[[{"header":{"parameterUnit":"m.s-1","parameterCategory":1,"la1":30.6,"la2":29.2853,"lo1":-89.7004,"lo2":-87.6739,"dy":0.0162,"dx":0.0183,"nx":112,"ny":82,"refTime":"2024-04-17T12:00:00:Z","depth":0,"parameterNumber":2,"parameterNumberName":"U-component_of_WINDS"},"data":[0.0,0.0,0.0,0.0,0.0,0.0,0.0,0.0,0.0,0.0,0.0,0.0,0.0,0.0,0.0,0.0,0.0,0.0,0.0,0.0,0.0,0.0,0.0,0.0,0.0,0.0,0.0,0.0,0.0,0.0,0.0,0.0,0.0,0.0,0.0,0.0,0.0,0.0,0.0,0.0,0.0,0.0,0.0,0.0,0.0,0.0,0.0,0.0,0.0,0.0,0.0,0.0,0.0,0.0,0.0,0.0,0.0,0.0,0.0,0.0,0.0,0.0,0.0,0.0,0.0,0.0,0.0,0.0,0.0,0.0,0.0,0.0,0.0,0.0,0.0,0.0,0.0,0.0,0.0,0.0,0.0,0.0,0.0,0.0,0.0,0.0,0.0,0.0,0.0,0.0,-2.2481,-2.7161,-3.2967,-3.6173,-3.5365,-3.4488,-3.1046,-2.4154,0.0,0.0,0.0,0.0,0.0,0.0,0.0,0.0,0.0,0.0,0.0,0.0,0.0,0.0,0.0,0.0,0.0,0.0,0.0,0.0,0.0,0.0,0.0,0.0,0.0,0.0,0.0,0.0,0.0,0.0,0.0,0.0,0.0,0.0,0.0,0.0,0.0,0.0,0.0,0.0,0.0,0.0,0.0,0.0,0.0,0.0,0.0,0.0,0.0,0.0,0.0,0.0,0.0,0.0,0.0,0.0,0.0,0.0,0.0,0.0,0.0,0.0,0.0,0.0,0.0,0.0,0.0,0.0,0.0,0.0,0.0,0.0,0.0,0.0,0.0,0.0,0.0,0.0,0.0,0.0,0.0,0.0,0.0,0.0,0.0,0.0,0.0,0.0,0.0,0.0,0.0,0.0,0.0,0.0,0.0,0.0,0.0,0.0,0.0,0.0,0.0,0.0,0.0,0.0,-2.487,-3.1274,-3.4186,-3.5327,-3.4468,-3.2199,-2.8568,-2.3309,0.0,0.0,0.0,0.0,0.0,0.0,0.0,0.0,0.0,0.0,0.0,0.0,0.0,0.0,0.0,0.0,0.0,0.0,0.0,0.0,0.0,0.0,0.0,0.0,0.0,0.0,0.0,0.0,0.0,0.0,0.0,0.0,0.0,0.0,0.0,0.0,0.0,0.0,0.0,0.0,0.0,0.0,0.0,0.0,0.0,0.0,0.0,0.0,0.0,0.0,0.0,0.0,0.0,0.0,0.0,0.0,0.0,0.0,0.0,0.0,0.0,0.0,0.0,0.0,0.0,0.0,0.0,0.0,0.0,0.0,0.0,0.0,0.0,0.0,0.0,0.0,0.0,0.0,0.0,0.0,0.0,0.0,0.0,0.0,0.0,0.0,0.0,0.0,0.0,0.0,0.0,0.0,0.0,0.0,0.0,0.0,0.0,0.0,0.0,0.0,0.0,0.0,0.0,-2.3512,-2.7101,-3.1115,-3.2673,-3.3096,-3.2218,-2.9556,-2.6251,-2.2283,-2.1196,0.0,0.0,0.0,0.0,0.0,0.0,0.0,0.0,0.0,0.0,0.0,0.0,0.0,0.0,0.0,0.0,0.0,0.0,0.0,0.0,0.0,0.0,0.0,0.0,0.0,0.0,0.0,0.0,0.0,0.0,0.0,0.0,0.0,0.0,0.0,0.0,0.0,0.0,0.0,0.0,0.0,0.0,0.0,0.0,0.0,0.0,0.0,0.0,0.0,0.0,0.0,0.0,0.0,0.0,0.0,0.0,0.0,0.0,0.0,0.0,0.0,0.0,0.0,0.0,0.0,0.0,0.0,0.0,0.0,0.0,0.0,0.0,0.0,0.0,0.0,0.0,0.0,0.0,0.0,0.0,0.0,0.0,0.0,0.0,0.0,0.0,0.0,0.0,0.0,0.0,0.0,0.0,0.0,0.0,0.0,0.0,0.0,0.0,0.0,0.0,0.0,0.0,-2.5972,-2.8005,-2.9885,-3.0698,-3.0737,-2.9885,-2.7198,-2.4284,-2.133,-1.9313,0.0,0.0,0.0,0.0,0.0,0.0,0.0,0.0,0.0,0.0,0.0,0.0,0.0,0.0,0.0,0.0,0.0,0.0,0.0,0.0,0.0,0.0,0.0,0.0,0.0,0.0,0.0,0.0,0.0,0.0,0.0,0.0,0.0,0.0,0.0,0.0,0.0,0.0,0.0,0.0,0.0,0.0,0.0,0.0,0.0,0.0,0.0,0.0,0.0,0.0,0.0,0.0,0.0,0.0,0.0,0.0,0.0,0.0,0.0,0.0,0.0,0.0,0.0,0.0,0.0,0.0,0.0,0.0,0.0,0.0,0.0,0.0,0.0,0.0,0.0,0.0,0.0,0.0,0.0,0.0,0.0,0.0,0.0,0.0,0.0,0.0,0.0,0.0,0.0,0.0,0.0,0.0,0.0,0.0,0.0,0.0,0.0,0.0,0.0,0.0,0.0,0.0,-2.4909,-2.6442,-2.8934,-2.9242,-2.8953,-2.814,-2.5545,-2.2939,-2.0522,-1.8548,0.0,0.0,0.0,0.0,0.0,0.0,0.0,0.0,0.0,0.0,0.0,0.0,0.0,0.0,0.0,0.0,0.0,0.0,0.0,0.0,0.0,0.0,0.0,0.0,0.0,0.0,0.0,0.0,0.0,0.0,0.0,0.0,0.0,0.0,0.0,0.0,0.0,0.0,0.0,0.0,0.0,0.0,0.0,0.0,0.0,0.0,0.0,0.0,0.0,0.0,0.0,0.0,0.0,0.0,0.0,0.0,0.0,0.0,0.0,0.0,0.0,0.0,0.0,0.0,0.0,0.0,0.0,0.0,0.0,0.0,0.0,0.0,0.0,0.0,0.0,0.0,0.0,0.0,0.0,0.0,0.0,0.0,0.0,0.0,0.0,0.0,0.0,0.0,0.0,0.0,0.0,0.0,0.0,0.0,0.0,0.0,0.0,0.0,0.0,0.0,0.0,0.0,-2.4947,-2.6486,-2.7448,-2.7544,-2.7428,-2.7121,-2.4494,-2.213,-2.0411,0.0,0.0,0.0,0.0,0.0,0.0,0.0,0.0,0.0,0.0,0.0,0.0,0.0,0.0,0.0,0.0,0.0,0.0,0.0,0.0,0.0,0.0,0.0,0.0,0.0,0.0,0.0,0.0,0.0,0.0,0.0,0.0,0.0,0.0,0.0,0.0,0.0,0.0,0.0,0.0,0.0,0.0,0.0,0.0,0.0,0.0,0.0,0.0,0.0,0.0,0.0,0.0,0.0,0.0,0.0,0.0,0.0,0.0,0.0,0.0,0.0,0.0,0.0,0.0,0.0,0.0,0.0,0.0,0.0,0.0,0.0,0.0,0.0,0.0,0.0,0.0,0.0,0.0,0.0,0.0,0.0,0.0,0.0,0.0,0.0,0.0,0.0,0.0,0.0,0.0,0.0,0.0,0.0,0.0,0.0,0.0,0.0,0.0,0.0,0.0,0.0,0.0,-2.2759,-2.4562,-2.5909,-2.6154,-2.6123,-2.5987,-2.5723,-2.337,-2.1275,-1.9858,0.0,0.0,0.0,0.0,0.0,0.0,0.0,0.0,0.0,0.0,0.0,0.0,0.0,0.0,0.0,0.0,0.0,0.0,0.0,0.0,0.0,0.0,0.0,0.0,0.0,0.0,0.0,0.0,0.0,0.0,0.0,0.0,0.0,0.0,0.0,0.0,0.0,0.0,0.0,0.0,0.0,0.0,0.0,0.0,0.0,0.0,0.0,0.0,0.0,0.0,0.0,0.0,0.0,0.0,0.0,0.0,0.0,0.0,0.0,0.0,0.0,0.0,0.0,0.0,0.0,0.0,0.0,0.0,0.0,0.0,0.0,0.0,0.0,0.0,0.0,0.0,0.0,0.0,0.0,0.0,0.0,0.0,0.0,0.0,0.0,0.0,0.0,0.0,0.0,0.0,0.0,0.0,0.0,0.0,0.0,0.0,0.0,0.0,0.0,0.0,0.0,0.0,-2.2682,-2.3567,-2.4413,-2.5212,-2.5111,-2.4673,-2.3869,-2.2084,-2.0331,0.0,0.0,0.0,0.0,0.0,0.0,0.0,0.0,0.0,0.0,0.0,0.0,0.0,0.0,0.0,0.0,0.0,0.0,0.0,0.0,0.0,0.0,0.0,0.0,0.0,0.0,0.0,0.0,0.0,0.0,0.0,0.0,0.0,0.0,0.0,0.0,0.0,0.0,0.0,0.0,0.0,0.0,0.0,0.0,0.0,0.0,0.0,0.0,0.0,0.0,0.0,0.0,0.0,0.0,0.0,0.0,0.0,0.0,0.0,0.0,0.0,0.0,0.0,0.0,0.0,0.0,0.0,0.0,0.0,0.0,0.0,0.0,0.0,0.0,0.0,0.0,0.0,0.0,0.0,0.0,0.0,0.0,0.0,0.0,0.0,0.0,0.0,0.0,0.0,0.0,0.0,0.0,0.0,0.0,0.0,0.0,0.0,0.0,0.0,0.0,0.0,0.0,0.0,-2.2682,-2.3567,-2.4413,-2.5212,-2.5111,-2.4673,-2.3869,-2.2508,-2.0827,-1.8726,0.0,0.0,0.0,0.0,0.0,0.0,0.0,0.0,0.0,0.0,0.0,0.0,0.0,0.0,0.0,0.0,0.0,0.0,0.0,0.0,0.0,0.0,0.0,0.0,0.0,0.0,0.0,0.0,0.0,0.0,0.0,0.0,0.0,0.0,0.0,0.0,0.0,0.0,0.0,0.0,0.0,0.0,0.0,0.0,0.0,0.0,0.0,0.0,0.0,0.0,0.0,0.0,0.0,0.0,0.0,0.0,0.0,0.0,0.0,0.0,0.0,0.0,0.0,0.0,0.0,0.0,0.0,0.0,0.0,0.0,0.0,0.0,0.0,0.0,0.0,0.0,0.0,0.0,0.0,0.0,0.0,0.0,0.0,0.0,0.0,0.0,0.0,0.0,0.0,0.0,0.0,0.0,0.0,0.0,0.0,0.0,0.0,0.0,0.0,0.0,0.0,0.0,-2.2643,-2.3259,-2.4028,-2.5173,-2.4823,-2.4209,-2.3386,-2.2216,-2.0665,-1.8642,0.0,0.0,0.0,0.0,0.0,0.0,0.0,0.0,0.0,0.0,0.0,0.0,0.0,0.0,0.0,0.0,0.0,0.0,0.0,0.0,0.0,0.0,0.0,0.0,0.0,0.0,0.0,0.0,0.0,0.0,0.0,0.0,0.0,0.0,0.0,0.0,0.0,0.0,0.0,0.0,0.0,0.0,0.0,0.0,0.0,0.0,0.0,0.0,0.0,0.0,0.0,0.0,0.0,0.0,0.0,0.0,0.0,0.0,0.0,0.0,0.0,0.0,0.0,0.0,0.0,0.0,0.0,0.0,0.0,0.0,0.0,0.0,0.0,0.0,0.0,0.0,0.0,0.0,0.0,0.0,0.0,0.0,0.0,0.0,0.0,0.0,0.0,0.0,0.0,0.0,0.0,0.0,0.0,0.0,0.0,0.0,0.0,0.0,0.0,0.0,0.0,0.0,-2.2701,-2.2913,-2.3524,-2.5135,-2.4397,-2.3505,-2.2748,-2.1525,-2.0148,-1.8571,0.0,0.0,0.0,0.0,0.0,0.0,0.0,0.0,0.0,0.0,0.0,0.0,0.0,0.0,0.0,0.0,0.0,0.0,0.0,0.0,0.0,0.0,0.0,0.0,0.0,0.0,0.0,0.0,0.0,0.0,0.0,0.0,0.0,0.0,0.0,0.0,0.0,0.0,0.0,0.0,0.0,0.0,0.0,0.0,0.0,0.0,0.0,0.0,0.0,0.0,0.0,0.0,0.0,0.0,0.0,0.0,0.0,0.0,0.0,0.0,-2.501,0.0,0.0,0.0,0.0,0.0,0.0,0.0,0.0,0.0,0.0,0.0,0.0,0.0,0.0,0.0,0.0,0.0,0.0,0.0,0.0,0.0,0.0,0.0,0.0,0.0,0.0,0.0,0.0,0.0,0.0,0.0,0.0,0.0,0.0,0.0,0.0,0.0,0.0,0.0,0.0,0.0,-2.3605,-2.3821,-2.4202,-2.5192,-2.4397,-2.3674,-2.3329,-2.177,-2.0314,-1.9169,-1.8463,0.0,0.0,0.0,0.0,0.0,0.0,0.0,0.0,0.0,0.0,0.0,0.0,0.0,0.0,0.0,0.0,0.0,0.0,0.0,0.0,0.0,0.0,0.0,0.0,0.0,0.0,0.0,0.0,0.0,0.0,0.0,0.0,0.0,0.0,0.0,0.0,0.0,0.0,0.0,0.0,0.0,0.0,0.0,0.0,0.0,0.0,0.0,0.0,0.0,0.0,0.0,0.0,0.0,0.0,0.0,0.0,0.0,0.0,0.0,0.0,-2.5974,0.0,0.0,0.0,0.0,0.0,0.0,0.0,0.0,0.0,0.0,0.0,0.0,0.0,0.0,0.0,0.0,0.0,0.0,0.0,0.0,0.0,0.0,0.0,0.0,0.0,0.0,0.0,0.0,0.0,0.0,0.0,0.0,0.0,0.0,0.0,0.0,0.0,0.0,0.0,0.0,-2.3937,-2.411,-2.4413,-2.5212,-2.4484,-2.3867,-2.3657,-2.2348,-2.1267,-2.064,-1.9518,0.0,0.0,0.0,0.0,0.0,0.0,0.0,0.0,0.0,0.0,0.0,0.0,0.0,0.0,0.0,0.0,0.0,0.0,0.0,0.0,0.0,0.0,0.0,0.0,0.0,0.0,0.0,0.0,0.0,0.0,0.0,0.0,0.0,0.0,0.0,0.0,0.0,0.0,0.0,0.0,0.0,0.0,0.0,0.0,0.0,0.0,0.0,0.0,0.0,0.0,0.0,0.0,0.0,-3.3026,-3.343,-3.3795,-3.3795,-3.343,-3.2718,-3.1404,-2.9505,-2.7388,-2.8063,0.0,0.0,0.0,0.0,0.0,0.0,0.0,0.0,0.0,0.0,0.0,0.0,0.0,0.0,0.0,0.0,0.0,0.0,0.0,0.0,0.0,0.0,0.0,0.0,-2.4495,-2.4061,-2.3217,0.0,0.0,0.0,0.0,0.0,0.0,0.0,0.0,0.0,0.0,0.0,-2.3802,-2.4125,-2.4567,-2.5231,-2.4586,-2.4062,-2.3978,-2.2975,-2.2322,-2.2218,-2.0699,-1.9775,0.0,0.0,0.0,0.0,0.0,0.0,0.0,0.0,0.0,0.0,0.0,0.0,0.0,0.0,0.0,0.0,0.0,0.0,0.0,0.0,0.0,0.0,0.0,0.0,0.0,0.0,0.0,0.0,0.0,0.0,0.0,0.0,-2.4548,-2.6236,0.0,0.0,0.0,0.0,0.0,0.0,0.0,0.0,0.0,0.0,0.0,0.0,0.0,-3.2737,-3.4135,-3.6045,-3.668,-3.6077,-3.8277,-3.8623,-3.7334,-3.7334,-3.7276,-3.7007,-3.391,0.0,-3.0943,-3.0321,0.0,0.0,0.0,0.0,0.0,0.0,0.0,0.0,0.0,0.0,0.0,0.0,0.0,0.0,0.0,0.0,0.0,0.0,0.0,0.0,0.0,0.0,-2.5994,-2.6911,-2.6126,-2.5346,0.0,-2.3746,-2.1551,-2.1859,-2.0956,0.0,0.0,0.0,0.0,0.0,0.0,0.0,-2.3047,-2.4235,-2.5173,-2.5288,-2.4586,-2.4257,-2.4633,-2.3366,-2.2716,-2.3111,-2.1722,-2.0866,-2.0791,-2.1353,0.0,0.0,0.0,0.0,0.0,0.0,0.0,0.0,0.0,0.0,0.0,0.0,0.0,0.0,0.0,0.0,0.0,0.0,0.0,0.0,0.0,0.0,0.0,0.0,0.0,0.0,0.0,0.0,0.0,-2.6416,-2.8626,-2.7467,-2.964,-3.0198,0.0,0.0,0.0,0.0,0.0,0.0,0.0,0.0,0.0,-3.3583,-3.5026,-3.5911,-3.6173,-3.8315,-3.945,-3.9577,-4.07,-4.1104,-4.0873,-4.0873,-4.0873,-4.0777,-3.9277,-3.7623,-3.5757,-3.2968,-3.1756,-3.1564,0.0,0.0,0.0,0.0,-2.6986,-2.7525,-2.6769,-2.7005,-2.7698,-2.8058,0.0,0.0,0.0,0.0,0.0,0.0,0.0,0.0,0.0,0.0,-2.7514,-2.8259,-2.8307,-2.8138,-2.8002,-2.6072,-2.4183,0.0,-2.3016,-2.2609,-2.2513,0.0,0.0,0.0,0.0,-2.4639,-2.4255,-2.4846,-2.5308,-2.5308,-2.4981,-2.4814,-2.4898,-2.432,-2.3999,-2.4129,-2.309,-2.2405,-2.2292,-2.2577,-2.2185,0.0,0.0,0.0,0.0,0.0,0.0,0.0,0.0,0.0,0.0,0.0,0.0,0.0,0.0,0.0,0.0,0.0,0.0,0.0,0.0,0.0,0.0,0.0,0.0,0.0,0.0,0.0,0.0,-2.8948,-3.1429,-2.914,-3.2025,-3.2968,0.0,0.0,0.0,0.0,0.0,0.0,-3.4122,-3.5033,-3.5802,-3.6456,-3.8315,-3.92,-3.8988,-4.0862,-4.2124,-4.2777,-4.2777,-4.3104,-4.372,-4.3508,-4.3412,-4.3393,-4.3181,-4.2027,-3.9969,-3.6122,-3.393,-3.3006,-3.316,-3.2602,-3.1635,-3.0962,-3.1,-3.1308,-3.0885,-3.0865,-3.1077,-3.1288,-3.0371,-2.9102,-2.8659,0.0,0.0,0.0,0.0,-2.6692,-2.714,-2.789,-2.8756,-2.9569,-3.0256,-3.0502,-2.9625,-2.8459,-2.7094,0.0,-2.4945,-2.4496,-2.3623,0.0,0.0,0.0,0.0,-2.5154,-2.4712,-2.5038,-2.5308,-2.5308,-2.5308,-2.5203,-2.4962,-2.5036,-2.4999,-2.4818,-2.408,-2.3675,-2.3731,-2.3547,-2.3191,-2.2723,0.0,0.0,0.0,0.0,0.0,0.0,0.0,0.0,0.0,0.0,0.0,0.0,0.0,0.0,0.0,0.0,0.0,0.0,0.0,0.0,0.0,0.0,0.0,0.0,0.0,0.0,0.0,0.0,0.0,-3.1429,-3.5199,0.0,0.0,0.0,0.0,-3.3994,-3.5449,-3.6769,-3.77,-3.8565,-4.0142,-4.2585,-4.2777,-4.3585,-4.5133,-4.5287,-4.5364,-4.5421,-4.5421,-4.5441,-4.546,-4.4624,-4.4239,-4.4201,-4.3431,-4.3028,-4.2701,-4.0065,-3.7988,-3.6288,-3.4737,-3.4584,-3.4942,-3.2526,-3.2641,-3.3782,-3.2199,-3.2141,-3.291,-3.3744,-3.3391,-3.2352,-3.075,-3.0212,0.0,0.0,-2.889,-2.9962,-2.9184,-2.9621,-3.0481,-3.1371,-3.1602,-3.1559,-3.1248,-3.0675,-2.9608,0.0,-2.5986,-2.5221,-2.5977,0.0,-2.5415,-2.3198,-2.425,-2.4712,-2.312,-2.4327,-2.5308,-2.5308,-2.5308,-2.516,-2.4847,-2.5109,-2.5143,-2.4825,-2.4345,-2.4316,-2.4897,-2.4174,-2.4062,-2.4657,-2.2892,0.0,0.0,0.0,0.0,0.0,0.0,0.0,0.0,0.0,0.0,0.0,0.0,0.0,0.0,0.0,0.0,0.0,0.0,0.0,0.0,0.0,0.0,0.0,0.0,0.0,0.0,0.0,0.0,-3.475,-3.768,0.0,-3.6834,-3.668,-3.668,-3.6642,-3.82,-3.9777,-4.12,-4.2066,-4.3181,-4.4671,-4.471,-4.4998,-4.5594,-4.5594,-4.5594,-4.5594,-4.5594,-4.5594,-4.5594,-4.5287,-4.5152,-4.5133,-4.4825,-4.4393,-4.3797,-4.2893,-4.1181,-3.9027,-3.7918,-3.7334,-3.7007,-3.6084,-3.6122,-3.6565,-3.5968,-3.5238,-3.4442,-3.3622,-3.3141,-3.2699,-3.1564,-3.1602,-3.1775,-3.066,-3.116,-3.1948,-3.1621,-3.1775,-3.2083,-3.241,-3.2468,-3.2449,-3.2352,-3.1751,-3.1014,-3.0279,-2.8262,-2.66,-2.634,-2.6301,-2.5873,-2.4596,-2.4923,-2.5077,-2.4481,-2.4923,-2.5308,-2.5308,-2.5308,-2.5248,-2.5132,-2.5233,-2.5248,-2.5126,-2.4969,-2.4864,-2.4871,-2.4683,-2.4587,-2.4607,-2.4077,-2.2924,0.0,0.0,0.0,0.0,0.0,0.0,0.0,0.0,0.0,0.0,0.0,0.0,0.0,0.0,0.0,0.0,0.0,0.0,0.0,0.0,0.0,0.0,0.0,0.0,0.0,-3.3814,-3.6745,-3.7853,-4.0219,-4.1239,-3.9854,-3.945,-3.9508,-4.0085,-4.1439,-4.2728,-4.3874,-4.4451,-4.4998,-4.5575,-4.5594,-4.5594,-4.5594,-4.5594,-4.5594,-4.5594,-4.5594,-4.5594,-4.5594,-4.5594,-4.5287,-4.4786,-4.5344,-4.496,-4.3932,-4.4509,-4.3412,-4.1304,-4.0469,-3.9796,-3.9258,-3.895,-3.8834,-3.8796,-3.8527,-3.7526,-3.6096,-3.4661,-3.4007,-3.368,-3.3135,-3.3353,-3.368,-3.3135,-3.3372,-3.3776,-3.3776,-3.3564,-3.3333,-3.3333,-3.3333,-3.3333,-3.3333,-3.2487,-3.1775,-3.2045,-3.0183,-2.8096,-2.6649,-2.6655,-2.6493,-2.5466,-2.5077,-2.4981,-2.5269,-2.5058,-2.4909,-2.4909,-2.5135,-2.5269,-2.5208,-2.5264,-2.5269,-2.5208,-2.5264,-2.5206,-2.4987,-2.5047,-2.4999,-2.4759,-2.4104,-2.2974,-2.1353,0.0,0.0,0.0,0.0,0.0,0.0,0.0,0.0,0.0,0.0,0.0,0.0,0.0,0.0,0.0,0.0,0.0,0.0,0.0,0.0,0.0,0.0,0.0,-3.0712,-3.6334,-4.0496,-4.0612,-4.2816,-4.4028,-4.3258,-4.3874,-4.4355,-4.4374,-4.5171,-4.5633,-4.5633,-4.5614,-4.5594,-4.5556,-4.5556,-4.5556,-4.5556,-4.5594,-4.5594,-4.5594,-4.5594,-4.5594,-4.5594,-4.5594,-4.471,-4.3278,-4.4902,-4.469,-4.3297,-4.494,-4.4643,-4.3085,-4.22,-4.1808,-4.1662,-4.0804,-4.0496,-4.0381,-3.9554,-3.8719,-3.7892,-3.7019,-3.6192,-3.5538,-3.5577,-3.5558,-3.5538,-3.5577,-3.5577,-3.5577,-3.5538,-3.4911,-3.4263,-3.4244,-3.4244,-3.4244,-3.4244,-3.2929,-3.2006,-3.2795,-3.1596,-2.9654,-2.7159,-2.739,-2.7351,-2.5673,-2.4716,0.0,-2.5231,-2.4639,-2.4168,-2.4206,-2.4889,-2.5276,-2.5105,-2.5236,-2.5252,-2.5022,-2.5198,-2.5303,-2.5284,-2.5279,-2.5298,-2.5274,-2.2962,-2.1833,-2.1991,0.0,0.0,0.0,0.0,0.0,0.0,0.0,0.0,0.0,0.0,0.0,0.0,0.0,0.0,0.0,0.0,0.0,0.0,0.0,0.0,0.0,-3.5238,-3.7719,-3.7719,-3.8823,-4.0535,-4.297,-4.444,-4.5171,-4.494,-4.5114,-4.549,-4.6144,-4.6413,-4.6547,-4.6547,-4.5932,-4.5306,-4.4682,-4.4662,-4.4662,-4.4662,-4.5287,-4.5594,-4.5594,-4.5594,-4.5594,-4.5594,-4.5594,-4.5344,-4.494,-4.5402,-4.5344,-4.496,-4.5421,-4.5325,-4.4767,-4.3316,-4.197,-4.0843,-4.0593,-4.0496,-4.0285,-3.8854,-3.8604,-3.8796,-3.793,-3.7065,-3.6481,-3.7123,-3.6865,-3.65,-3.7142,-3.7315,-3.718,-3.6519,-3.6192,-3.5872,-3.5269,-3.5135,-3.5135,-3.5135,-3.4276,-3.359,-3.3801,-3.2487,-3.0923,-2.9577,-2.9025,-2.8607,-2.8121,-2.6832,0.0,-2.6212,-2.55,-2.5447,-2.6722,-2.6486,-2.647,-2.7053,-2.6561,-2.5946,-2.5257,-2.5269,-2.5229,-2.5088,-2.5088,-2.5036,-2.4948,-2.3676,-2.3325,0.0,0.0,0.0,0.0,0.0,0.0,0.0,0.0,0.0,0.0,0.0,0.0,0.0,0.0,0.0,0.0,0.0,0.0,0.0,0.0,0.0,0.0,-3.8565,-4.1662,-4.3431,-4.2689,-4.267,-4.4605,-4.5287,-4.5594,-4.5594,-4.5594,-4.5806,-4.6317,-4.6701,-4.674,-4.6374,-4.622,-4.5586,-4.4335,-4.4643,-4.4662,-4.4297,-4.5171,-4.5594,-4.5594,-4.5594,-4.5594,-4.5594,-4.5594,-4.5229,-4.4586,-4.5306,-4.521,-4.4605,-4.5306,-4.5383,0.0,0.0,0.0,0.0,0.0,-4.0804,-4.0362,-3.94,-3.9169,-3.9227,-3.87,-3.795,-3.7276,-3.7411,-3.6865,-3.6231,-3.6372,-3.6142,-3.5834,-3.5699,-3.5641,-3.5718,-3.5942,-3.575,-3.5692,-3.6404,-3.5026,-3.3872,-3.4603,-3.3103,0.0,-3.1019,-2.991,-2.8992,-2.8646,-2.7467,-2.6736,-2.7101,-2.6385,-2.6231,-2.7255,-2.7236,-2.7351,-2.7857,-2.7448,0.0,0.0,0.0,-2.6135,-2.5564,-2.5539,0.0,0.0,0.0,-2.3795,-2.4586,0.0,0.0,0.0,-2.4331,-2.4447,0.0,0.0,0.0,0.0,0.0,0.0,0.0,0.0,0.0,0.0,0.0,0.0,0.0,0.0,0.0,0.0,-4.18,-4.3808,-4.7567,-4.6817,-4.5845,-4.5768,-4.5671,-4.5594,-4.5594,-4.5594,-4.5691,-4.5864,-4.6605,-4.674,-4.6056,0.0,0.0,0.0,0.0,-4.5075,-4.4316,-4.5171,-4.5594,-4.5594,-4.5594,-4.5594,-4.5594,-4.5594,-4.4786,-4.3451,-4.496,-4.4767,-4.3508,-4.4998,-4.5152,-4.4432,-4.4239,-4.4162,-4.3951,-4.2277,-4.1239,-4.0631,-4.0439,0.0,0.0,-3.9438,-3.8854,-3.8027,-3.7334,-3.6558,-3.5788,-3.5103,-3.4353,-3.391,-3.4609,-3.4783,-3.5129,-3.6526,-3.6231,-3.6077,-3.7661,-3.5468,-3.368,-3.5327,-3.3654,-3.1987,-3.1987,-3.0544,-2.9127,-2.8294,-2.7448,-2.7159,-2.7934,-2.7274,-2.6813,-2.7005,0.0,0.0,-2.8159,-2.8088,-2.8011,-2.7915,-2.7879,-2.7416,-2.6447,-2.6383,-2.5546,-2.3795,-2.3708,-2.3954,-2.4561,-2.4495,-2.5254,-2.6704,-2.5449,-2.5542,0.0,0.0,0.0,0.0,0.0,0.0,0.0,0.0,0.0,0.0,0.0,0.0,0.0,0.0,0.0,-4.2946,-4.5237,-4.7182,-4.799,-4.7817,-4.7375,-4.674,-4.6028,-4.5594,-4.5594,-4.5594,-4.6172,-4.7509,-4.7778,-4.8105,-4.8644,-4.7548,-4.6413,-4.5383,-4.4836,-4.447,-4.4297,-4.5171,-4.5594,-4.5594,0.0,0.0,-4.5594,-4.5594,-4.5421,-4.5133,-4.546,-4.5421,-4.5152,-4.5479,-4.5498,-4.521,-4.3855,-4.3335,-4.3124,-4.1393,-4.1085,-4.1354,-3.9988,-3.9861,-4.0265,-4.0265,-3.9708,-3.915,-3.9631,-3.92,0.0,-3.915,-3.9169,-3.8919,-3.8438,-3.8303,-3.8226,-3.7834,-3.7084,-3.675,-3.7777,-3.643,-3.5288,-3.6269,-3.4988,-3.3725,-3.3725,-3.2314,-3.091,-3.0058,-2.9179,-2.8684,-2.8857,-2.8145,-2.8179,-2.9519,-2.9198,-2.914,-2.9865,-2.9275,-2.8588,-2.7934,-2.7707,-2.7418,-2.704,-2.6875,-2.6535,-2.5999,-2.5959,-2.6031,-2.6158,-2.6146,-2.6631,-2.7548,-2.729,-2.7308,0.0,0.0,0.0,0.0,0.0,0.0,0.0,0.0,0.0,0.0,0.0,-3.7573,-3.7985,0.0,-4.3054,-4.477,-4.678,-4.8394,-4.9279,-4.8644,-4.7798,-4.7,-4.6124,-4.5594,-4.5594,-4.5594,-4.6124,-4.7413,-4.7875,-4.8298,-4.8721,-4.8375,-4.7375,-4.5652,-4.5605,-4.5182,-4.4316,-4.5171,-4.5594,-4.5594,-4.5594,-4.5594,-4.5594,-4.5594,-4.5594,-4.5594,-4.5594,-4.5594,-4.5594,-4.5594,-4.5594,-4.5518,-4.469,-4.4085,-4.3605,-4.272,-4.2412,-4.2277,-4.0989,-4.0816,-4.1085,-4.065,-4.0227,-3.99,-3.99,-3.9304,-3.8642,-3.8604,-3.8315,-3.8007,-3.8007,-3.8007,-3.8104,-3.8546,-3.7988,-3.77,-3.8969,-3.793,-3.7007,-3.7834,-3.6622,-3.5315,-3.493,-3.3795,-3.2526,-3.1231,-3.0314,-2.9756,-2.9756,-2.941,-2.9462,-3.0308,-3.0,-2.9929,-3.0365,-3.0,-2.9529,-2.8983,-2.8834,-2.8427,-2.7675,-2.7559,-2.7405,-2.72,-2.72,-2.7402,-2.7794,-2.7794,-2.8014,-2.8411,-2.8411,-2.8411,0.0,0.0,0.0,0.0,0.0,0.0,0.0,-3.3493,-3.4793,-3.6683,-3.8103,-3.9379,-4.0681,-4.2214,-4.4022,-4.6316,-4.7693,-4.8952,-5.026,-4.9048,-4.7722,-4.7,-4.6124,-4.5671,-4.5845,-4.5845,-4.6278,-4.7317,-4.799,-4.8432,-4.8606,-4.8952,-4.8202,-4.6152,-4.6451,-4.597,-4.4566,-4.5248,-4.5594,-4.5594,-4.5594,-4.5594,-4.5594,-4.5594,-4.5594,-4.5594,-4.5594,-4.5594,-4.5594,-4.5594,-4.5594,-4.5594,-4.5594,-4.5171,-4.4528,-4.4355,-4.3893,-4.3201,-4.2354,-4.1942,-4.1673,-4.0969,-4.065,-4.0419,-3.9938,-3.9296,-3.8584,-3.7885,-3.7212,-3.6827,-3.7315,-3.745,-3.7796,-3.9207,-3.8873,-3.8661,-4.0169,-3.9181,-3.8257,-3.913,-3.8027,-3.6692,-3.5865,-3.5026,-3.3833,-3.1987,-3.1096,-3.0596,-3.0423,-3.0404,-3.0404,-3.0404,-3.0404,-3.0404,-3.0404,-3.0404,-3.0292,-3.0013,-2.9969,-2.9458,-2.8398,-2.8293,-2.8199,-2.8037,-2.8026,-2.8429,-2.9225,-2.9225,-2.9225,-2.9225,-2.9225,-2.9152,-2.9299,-2.7493,-2.677,-3.0258,-3.1268,-3.2409,0.0,-3.8729,-4.0089,-3.9888,-4.1459,-4.2923,-4.3106,-4.4735,-4.6506,-4.7852,-4.9087,-4.9805,-4.9577,-4.8456,-4.7474,-4.6962,-4.6124,-4.5893,-4.6682,-4.6759,-4.7413,-4.899,-4.9202,-4.9586,-5.0366,-4.9029,-4.8105,-4.7836,-4.6471,-4.5652,-4.546,-4.5556,-4.5594,-4.5594,-4.5594,-4.5594,-4.5594,-4.5594,-4.5594,-4.5594,-4.5594,-4.5594,-4.5594,-4.5594,-4.5594,-4.5594,-4.5594,-4.5537,-4.5364,-4.4586,-4.4239,-4.4047,-4.3239,-4.245,-4.1769,-4.17,-4.1123,-4.0631,-4.1316,-4.1442,-4.1346,-4.125,-4.1154,-4.095,-4.0239,-4.0073,-4.0131,-4.0323,-3.9746,-3.94,-4.0304,-3.9181,-3.8257,-3.913,-3.8527,-3.7584,-3.6712,-3.5885,-3.4519,-3.2064,-3.1621,-3.1269,-3.05,-3.0404,-3.0404,-3.0404,-3.0404,-3.0404,-3.0404,-3.0404,-3.0292,-3.0013,-2.9829,-2.9587,-2.9273,-2.903,-2.8893,-2.8877,-2.8877,-2.9262,-3.0081,-3.0081,-3.0081,-3.0081,-3.0081,-2.9684,-2.9225,-3.0687,-3.2498,-3.2742,-3.4945,-3.7397,-3.8755,-4.012,-4.1181,-4.1414,-4.2551,-4.3626,-4.4103,-4.4661,-4.5769,-4.7947,-4.8297,-4.8547,-4.9298,-4.8167,-4.6979,-4.6233,-4.5189,-4.4969,-4.6038,-4.6144,-4.6836,-4.8529,-4.8644,-4.924,-5.0635,-5.001,-4.9144,-4.8125,-4.7413,-4.6586,-4.5614,-4.5594,-4.5594,-4.5594,-4.5594,-4.5594,-4.5594,-4.5594,-4.5594,-4.5594,-4.5594,-4.5594,-4.5594,-4.5594,-4.5594,-4.5594,-4.5594,-4.5594,-4.5556,-4.519,-4.5056,-4.494,-4.4085,-4.3566,-4.3085,-4.2115,-4.1893,-4.1989,-4.1835,-4.2162,-4.245,-4.1942,-4.1788,-4.1712,-4.1354,-4.1258,-4.1258,-4.1258,-4.1008,-4.07,-4.0535,-3.9958,-3.9554,-3.9938,-3.9342,-3.8642,-3.8277,-3.7084,-3.5673,-3.4135,-3.3045,-3.2102,-3.125,-3.1154,-3.1154,-3.1154,-3.0692,-3.0615,-3.1115,-3.0548,-3.0061,-2.9837,-2.9644,-2.9415,-2.9189,-2.9515,-2.9482,-2.9005,-2.9922,-3.0338,-3.021,-3.0668,-3.0889,-3.0889,-3.0889,-3.0723,-3.0234,-3.2999,-3.5711,-3.5257,-3.7826,-4.0469,-4.0543,-4.1368,-4.2251,-4.2837,-4.3424,-4.4066,-4.4892,-4.4563,-4.5065,-4.7713,-4.7607,-4.7554,-4.8589,-4.7738,-4.6499,-4.5139,-4.4274,-4.4064,-4.4718,-4.5271,-4.6394,-4.8317,-4.8471,-4.9106,-5.0616,-5.0481,-4.976,-4.8509,-4.824,-4.7528,-4.6297,-4.6278,-4.6182,-4.5951,-4.5951,-4.5825,-4.5594,-4.5594,-4.5594,-4.5594,-4.5594,-4.5594,-4.5594,-4.5594,-4.5594,-4.5594,-4.5594,-4.5594,-4.5594,-4.5594,-4.5594,-4.5518,-4.4874,-4.4489,-4.4066,-4.2624,-4.2585,-4.2989,-4.2354,-4.2758,-4.3297,-4.2681,-4.2489,-4.245,-4.222,-4.2162,-4.2162,-4.2162,-4.1962,-4.1643,-4.0989,-4.0603,-4.0389,-4.0389,-3.9832,-3.9346,-3.9202,-3.8127,-3.6953,-3.5974,-3.475,-3.3487,-3.2199,-3.1833,-3.1621,-3.1371,-3.0788,-3.0654,-3.1288,-3.052,-3.0011,-3.0034,-2.9625,-2.9482,-2.9641,-3.0008,-3.0026,-2.9666,-3.0797,-3.1219,-3.087,-3.1439,-3.1733,-3.1733,-3.1733,-3.1604,-3.2816,-3.2632,-3.2719,-3.7386,-3.867,-3.9386,-4.1699,-4.3461,-4.4617,-4.4618,-4.4636,-4.4911,-4.5718,-4.5204,-4.5344,-4.7392,-4.77,-4.7545,-4.7132,-4.7027,-4.6102,-4.3668,-4.3624,-4.3514,-4.2754,-4.447,-4.6653,-4.9163,-4.9356,-4.974,-5.0654,-4.9894,-4.9413,-4.9356,-4.8548,-4.8086,-4.8029,-4.8029,-4.7625,-4.6846,-4.6846,-4.6413,-4.5594,-4.5594,-4.5594,-4.5594,-4.5594,-4.5594,-4.5594,-4.5594,-4.5594,-4.5594,-4.5594,-4.5594,-4.5594,-4.5594,-4.5594,-4.5594,-4.5575,-4.5017,-4.4162,-4.3335,-4.3085,-4.3104,-4.3066,-4.3624,-4.4259,-4.422,-4.422,-4.4047,-4.3258,-4.3066,-4.3066,-4.3066,-4.2412,-4.1788,-4.1769,-4.0889,-4.011,-4.011,-3.9821,-3.9429,-3.8909,-3.8775,-3.8266,-3.6875,-3.6615,-3.5673,-3.3179,-3.2179,-3.1391,-3.0538,-3.0423,-3.0404,-3.0442,-3.0169,-3.025,-3.0827,-2.9934,-2.9983,-3.128,-3.0595,-3.0558,-3.1323,-3.1378,-3.177,-3.2528,-3.2546,-3.2564,-3.2564,-3.2564,-3.2155,-3.1549,-3.4174,-3.7312,-3.8414,-4.0304,-4.2084,-4.291,-4.3516,-4.3754,-4.3222,-4.194,-4.0849,-4.0557,-4.001,-4.0364,-4.2744,-4.4022,-4.505,-4.6057,-4.5975,-4.5256,-4.3809,-4.3523,-4.3532,-4.3713,-4.4339,-4.5566,-4.7586,-4.824,-4.9163,-5.0616,-5.0423,-4.999,-4.9413,-4.9125,-4.8682,-4.8105,-4.8105,-4.7971,-4.7702,-4.7154,-4.7028,-4.724,-4.6701,-4.6471,-4.6471,-4.6471,-4.6124,-4.5594,-4.5594,-4.5594,-4.5594,-4.5594,-4.5594,-4.5594,-4.5594,-4.5594,-4.5594,-4.5594,-4.5421,-4.5017,-4.4162,-4.4278,-4.4643,-4.4066,-4.4489,-4.5037,-4.4451,-4.4297,-4.4239,-4.397,-4.3893,-4.3893,-4.3893,-4.3662,-4.3316,-4.2777,-4.2144,-4.1692,-4.1692,-4.0983,-4.0405,-4.045,-3.9547,-3.8315,-3.6913,-3.5257,-3.3872,-3.3006,-3.1698,-3.1154,-3.1968,-3.1058,-3.1008,-3.2534,-3.1399,-3.0855,-3.1458,-3.1002,-3.0924,-3.1378,-3.1659,-3.1678,-3.1415,-3.2462,-3.2871,-3.2601,-3.3146,-3.3403,-3.3403,-3.3403,-3.3256,-3.3183,-3.6505,-3.9974,-4.0322,-4.1956,-4.3515,-4.3515,-4.3277,-4.2671,-4.1295,-4.0099,-3.8828,-3.7238,-3.6627,-3.7348,-4.0284,-4.1278,-4.2575,-4.5209,-4.5361,-4.4939,-4.4216,-4.3886,-4.3906,-4.436,-4.4777,-4.5409,-4.6365,-4.7471,-4.8721,-5.0164,-5.0539,-5.0567,-5.0298,-5.0298,-4.9894,-4.9048,-4.9029,-4.8875,-4.8548,-4.7721,-4.7451,-4.7663,-4.7135,-4.6567,-4.599,-4.6297,-4.5932,-4.5171,-4.5479,-4.5594,-4.5594,-4.5594,-4.5594,-4.5594,-4.5594,-4.5594,-4.5594,-4.5594,-4.5594,-4.546,-4.4586,-4.4893,-4.5441,-4.4566,-4.4913,-4.5479,-4.4913,-4.4759,-4.4759,-4.4759,-4.4759,-4.4759,-4.4759,-4.4528,-4.4085,-4.3278,-4.2804,-4.2415,-4.1974,-4.1321,-4.0892,-4.1092,-3.9671,-3.8208,-3.7293,-3.5007,-3.3353,-3.3353,-3.2429,-3.2045,-3.2814,-3.1948,-3.1853,-3.3225,-3.2123,-3.1617,-3.2195,-3.1703,-3.1672,-3.2241,-3.2485,-3.2504,-3.226,-3.3275,-3.355,-3.3036,-3.355,-3.3807,-3.3807,-3.3807,-3.3807,-3.7441,-3.9386,-4.0616,-4.2927,-4.3515,-4.3478,-4.3387,-4.2708,-4.1442,-3.9074,-3.9035,-3.8538,-3.5688,-3.5125,-3.6254,-3.9833,-3.9624,-4.0473,-4.4628,-4.5289,-4.5233,-4.4958,-4.4815,-4.4799,-4.4909,-4.5938,-4.6379,-4.5827,0.0,-4.8625,-4.9548,-5.0375,-5.1183,-5.1942,-5.1923,-5.1529,-5.077,-5.0731,-5.0289,-4.9452,-4.8586,-4.7798,-4.7077,-4.7,-4.6086,-4.4605,-4.5344,-4.521,-4.4489,-4.5287,-4.5594,-4.5594,-4.5594,-4.5594,-4.5594,-4.5594,-4.5594,-4.5594,-4.5594,-4.5594,-4.546,-4.4643,-4.494,-4.546,-4.4624,-4.4932,-4.5594,-4.5594,-4.5594,-4.5594,-4.5594,-4.5594,-4.5594,-4.5594,-4.4979,-4.4162,-4.3393,-4.2948,-4.2383,-4.122,-4.0976,-4.0925,-4.0808,-3.9233,-3.8007,-3.8007,-3.5872,-3.4244,-3.4205,-3.4167,-3.384,-3.3045,-3.2904,-3.2799,-3.2629,-3.238,-3.2471,-3.3006,-3.2096,-3.2223,-3.3733,-3.306,-3.3023,-3.3788,-3.3807,-3.3807,-3.3807,-3.3807,-3.3807,-3.3807,-3.3807,-3.3807,-3.8358,-4.0598,-4.2743,-4.3349,-4.3515,-4.3185,-4.1992,-4.0634,-3.9111,-3.7294,-3.4763,-3.2654,-3.1882,-3.2058,-3.3269,-3.6193,-3.8893,-4.1694,-4.4819,-4.631,-4.7246,-4.7764,-4.8069,-4.8464,-4.9075,-4.9946,-4.9892,0.0,-4.9433,-5.0683,-5.2145,-5.2433,-5.2664,-5.2856,-5.2231,-5.1788,-5.1606,-5.0991,-5.0596,-5.0366,-4.949,-4.9298,-4.9683,-4.8394,-4.7913,-4.8048,-4.7009,-4.6451,-4.6201,-4.5778,-4.5594,-4.5594,-4.5594,-4.5594,-4.5594,-4.5594,-4.5594,-4.5594,-4.5594,-4.5594,-4.5556,-4.5344,-4.5421,-4.5556,-4.5344,-4.5421,-4.5594,-4.5594,-4.5594,-4.5594,-4.5594,-4.5594,-4.5594,-4.5594,-4.5441,-4.521,-4.5017,-4.471,-4.4295,-4.3737,-4.2593,-4.1524,-4.0909,-3.9233,-3.8007,-3.8007,-3.6392,-3.493,-3.4282,-3.3622,-3.3391,-3.3821,-3.3109,-3.3021,-3.4046,-3.3314,-3.3025,-3.3552,-3.3345,-3.3366,-3.377,-3.3605,-3.3587,-3.3807,-3.3807,-3.3807,-3.3807,-3.3807,-3.3807,-3.3807,-3.3807,-3.3807,-4.0616,-4.2635,-4.447,-4.4103,-4.3754,-4.3001,-4.102,-3.9331,-3.7404,-3.472,-3.2692,-3.1027,-2.9686,-2.9456,-3.0672,-3.4435,-3.6542,-3.9403,-4.4299,-4.5947,-4.7398,-4.9483,-4.9621,-5.0058,-5.1395,-5.1946,-5.2058,-5.1673,-5.1375,-5.1645,-5.2577,-5.2991,-5.3203,-5.3203,-5.3106,-5.2673,-5.1904,-5.1452,-5.1048,-5.0693,-5.0202,-4.9817,-4.9529,-4.8933,-4.8125,-4.7144,0.0,-4.6471,-4.5759,-4.5643,-4.5594,-4.5594,-4.5594,-4.5594,-4.5594,-4.5594,-4.5594,-4.5594,-4.5594,-4.5594,-4.5594,-4.5594,-4.5594,-4.5594,-4.5594,-4.5594,-4.5594,-4.5594,-4.5594,-4.5594,-4.5594,-4.5495,-4.5419,-4.5568,-4.5495,-4.5323,-4.5087,-4.5179,-4.4993,-4.3927,-4.2786,-4.1681,-4.0673,-3.9411,-3.843,-3.8065,-3.6865,-3.5684,-3.4721,-3.426,-3.4185,-3.4568,-3.4025,-3.3872,-3.4425,-3.3889,-3.3605,-3.3797,-3.3807,-3.3807,-3.3807,-3.3807,-3.3807,-3.3807,-3.3807,-3.3807,-3.3807,-3.3807,-3.3807,-3.3807,-3.3807,-3.3807,-4.324,-4.4745,-4.5718,-4.4911,-4.4011,-4.2671,-4.0173,-3.808,-3.5583,-3.1727,-3.1384,-3.0998,-2.8373,-2.7727,-2.911,-3.3828,-3.4153,-3.6339,-4.3599,-4.5288,-4.7102,-5.0619,-5.0463,-5.0804,-5.2678,-5.28,-5.3274,-5.4493,-5.324,-5.2404,-5.2404,-5.3126,-5.3433,-5.3222,-5.3818,-5.3376,-5.175,-5.1731,-5.1395,-5.0712,-5.0712,-4.9913,-4.8471,-4.899,-4.7663,-4.5047,-4.622,-4.5932,-4.4682,-4.5344,-4.5594,-4.5594,-4.5594,-4.5594,-4.5594,-4.5594,-4.5594,-4.5594,-4.5594,-4.5594,-4.5594,-4.5594,-4.5594,-4.5594,-4.5594,-4.5594,-4.5594,-4.5594,-4.5594,-4.5586,-4.555,-4.5322,-4.515,-4.541,-4.5273,-4.497,-4.4516,-4.4976,-4.4921,-4.3058,-4.229,-4.1556,-4.0338,-3.9639,-3.895,-3.8059,-3.7235,-3.6319,-3.5244,-3.5304,-3.5335,-3.5079,-3.5008,-3.4774,-3.4246,-3.4171,-3.4056,-3.3815,-3.3807,-3.3807,-3.3807,-3.3807,-3.3807,-3.3807,-3.3807,-3.3807,-3.3807,-3.3807,-3.3807,-3.3807,-3.3807,-3.3807,-4.425,-4.5186,-4.5718,-4.4911,-4.3608,-4.1699,-3.8631,-3.5087,-3.169,-2.898,-2.8007,-2.7486,-2.6951,-2.8586,-3.0855,-3.3512,-3.5719,-3.8864,-4.397,-4.6813,-4.9346,-5.1969,-5.2461,-5.2999,-5.4065,-5.3859,-5.4034,-5.4931,-5.5032,-5.503,-5.503,-5.5184,-5.4626,-5.3241,-5.2654,-5.1895,-5.0914,-5.0914,-5.0846,-5.0712,-5.0712,-5.0539,-5.0212,-4.8913,-4.8394,-4.8413,-4.6605,0.0,-4.6413,-4.5817,-4.5594,-4.5594,-4.5594,-4.5594,-4.5594,-4.5594,-4.5594,-4.5594,-4.5594,-4.5594,-4.5594,-4.5594,-4.5594,-4.5594,-4.5594,-4.5594,-4.5594,-4.5594,-4.5594,-4.555,-4.5253,-4.514,-4.5052,-4.4837,-4.4943,-4.5069,-4.4989,-4.4851,-4.4454,-4.3383,-4.235,-4.1362,-4.0422,-3.9507,-3.8583,-3.7724,-3.7079,-3.6319,-3.5244,-3.5138,-3.507,-3.4812,-3.4521,-3.4315,-3.42,-3.4012,-3.3855,-3.3788,-3.3807,-3.3807,-3.3807,-3.3807,-3.3807,-3.3807,-3.3807,-3.3807,-3.3807,-3.3807,-3.3807,-3.3807,-3.3807,-3.3807,-4.5223,-4.6544,-4.7407,-4.5736,-4.3497,-4.0836,-3.7606,-3.3697,-3.0081,-2.7677,-2.72,-2.7108,-2.6686,-2.7744,-2.9543,-3.2132,-3.305,-3.5552,-4.1668,-4.4443,-4.729,-5.1192,-5.2567,-5.3541,-5.4428,-5.3928,-5.3964,-5.5018,-5.4892,-5.504,-5.5665,-5.4876,-5.3928,-5.292,-5.2047,-5.1316,-5.0747,-5.1167,-5.103,-5.0399,-5.081,-5.0675,-5.001,-4.9625,-4.8952,-4.8048,-4.724,-4.6311,-4.539,-4.6022,-4.5657,-4.4815,-4.5877,-4.599,-4.5594,-4.5594,-4.5594,-4.5594,-4.5594,-4.5594,-4.5594,-4.5594,-4.5594,-4.5594,-4.5594,-4.5594,-4.5594,-4.5594,-4.5466,-4.5312,-4.5129,-4.4818,-4.4548,-4.4593,-4.472,-4.4849,-4.4849,-4.4553,-4.3915,-4.2653,-4.1964,-4.1189,-3.9904,-3.9072,-3.8505,-3.8214,-3.7451,-3.6576,-3.5647,-3.5388,-3.5093,-3.4502,-3.43,-3.4147,-3.3993,-3.3863,-3.3807,-3.3807,-3.3807,-3.3807,-3.3807,-3.3807,-3.3807,-3.3807,-3.3807,-3.3807,-3.3807,-3.3807,-3.4027,-3.4417,-3.4417,-3.4417,-4.6269,-4.7829,-4.8802,-4.6691,-4.3479,-4.001,-3.678,-3.2742,-2.8998,-2.6576,-2.6594,-2.6888,-2.6429,-2.6611,-2.7771,-3.0668,-3.0356,-3.221,-3.9248,-4.1918,-4.5028,-5.0048,-5.208,-5.3367,-5.4148,-5.3534,-5.3603,-5.4876,-5.4299,-5.439,-5.5508,-5.4145,-5.3146,-5.2741,-5.1877,-5.1307,-5.1047,-5.1484,-5.1216,-5.0228,-5.0691,-5.0446,-4.9556,-4.9984,-4.9121,-4.7319,-4.7519,-4.6352,0.0,-4.608,-4.5735,-4.434,-4.6167,-4.6374,-4.5594,-4.5594,-4.5594,-4.5594,-4.5594,-4.5594,-4.5594,-4.5594,-4.5594,-4.5594,-4.5594,-4.5559,-4.5495,-4.5495,-4.5253,-4.4966,-4.4877,-4.4423,-4.4073,-4.4406,-4.4474,-4.4501,-4.458,-4.4276,-4.3513,-4.1903,-4.1556,-4.0966,-3.9305,-3.8771,-3.855,-3.8605,-3.7886,-3.7049,-3.6185,-3.5883,-3.5392,-3.4463,-3.4222,-3.4031,-3.3815,-3.3807,-3.3862,-3.4045,-3.3899,-3.388,-3.4045,-3.4064,-3.3972,-3.3807,-3.3972,-3.3972,-3.3807,-3.3807,-3.4211,-3.5004,-3.5004,-3.5096,-4.748,-4.8251,-4.8196,-4.7223,-4.3479,-3.9166,-3.5954,-3.1476,-2.7328,-2.4924,-2.4483,-2.4722,-2.5393,-2.6119,-2.7442,-2.9916,-3.0803,-3.313,-3.865,-4.2058,-4.5525,-4.9674,-5.1649,-5.2828,-5.3283,-5.292,-5.3184,-5.4459,-5.4163,-5.4269,-5.5103,-5.425,-5.3563,-5.3172,-5.2292,-5.1843,-5.1797,-5.1153,-5.0768,-5.0646,-4.9981,-4.9798,-4.9995,-4.892,-4.8497,-4.854,-4.6771,-4.5859,0.0,-4.6161,-4.5816,-4.511,-4.6388,-4.6374,-4.5594,-4.5594,-4.5594,-4.5594,-4.5594,-4.5594,-4.5594,-4.5594,-4.5594,-4.5594,-4.5594,-4.539,-4.5159,-4.5159,-4.4908,-4.4567,-4.419,-4.4043,-4.4016,-4.4061,-4.4061,-4.4146,-4.4527,-4.4276,-4.3513,-4.1903,-4.1351,-4.0627,-3.901,-3.8906,-3.8798,-3.8089,-3.81,-3.7814,-3.6764,-3.6609,-3.6165,-3.505,-3.427,-3.3829,-3.3788,-3.3807,-3.4119,-3.4839,-3.4197,-3.4137,-3.4857,-3.4894,-3.4546,-3.3807,-3.4509,-3.4527,-3.3807,-3.3807,-3.4211,-3.5004,-3.5004,-3.5426,-4.548,-4.7572,-4.8636,-4.6838,-4.2745,-3.8469,-3.5734,-3.0944,-2.6539,-2.4593,-2.4585,-2.4879,-2.4713,-2.4942,-2.5952,-2.8356,-2.7805,-2.917,-3.514,-3.7947,-4.1447,-4.6906,-4.9455,-5.1372,-5.3044,-5.2622,-5.2549,-5.3298,-5.3421,-5.3732,-5.4296,-5.3309,-5.2511,-5.2063,-5.1728,-5.1442,-5.125,-5.0916,-5.0613,-5.0324,-5.0006,-4.983,-4.9714,-4.9202,-4.8782,-4.8375,-4.7087,-4.5839,0.0,-4.564,-4.5098,-4.3894,-4.5802,-4.603,-4.5322,-4.5541,-4.5594,-4.5594,-4.5594,-4.5476,-4.5332,-4.5522,-4.5457,-4.5332,-4.555,-4.5381,-4.5096,-4.5096,-4.4676,-4.419,-4.4028,-4.3849,-4.3693,-4.3693,-4.3693,-4.3742,-4.3899,-4.3804,-4.3361,-4.2234,-4.1519,-4.0728,-3.9625,-3.8696,-3.8257,-3.8574,-3.8157,-3.7721,-3.7465,-3.728,-3.6809,-3.5877,-3.5023,-3.4325,-3.3844,-3.4247,-3.4454,-3.4302,-3.4926,-3.522,-3.5023,-3.55,-3.5642,-3.5312,-3.5624,-3.5371,-3.4509,-3.5055,-3.5477,-3.5789,-3.6285,-3.6688,-4.2966,-4.5847,-4.7719,-4.5975,-4.1735,-3.7349,-3.4926,-3.0155,-2.586,-2.4483,-2.4456,-2.4658,-2.4566,-2.4355,-2.4979,-2.7412,-2.6374,-2.7255,-3.2999,-3.544,-3.8689,-4.4176,-4.7186,-4.9682,-5.1922,-5.2377,-5.2654,-5.292,-5.2994,-5.3253,-5.3777,-5.2426,-5.1702,-5.1862,-5.1862,-5.1765,-5.1518,-5.1041,-5.0631,-5.0305,-4.9804,-4.936,-4.8969,-4.9074,-4.8664,-4.7796,-4.7016,-4.5997,0.0,-4.5697,-4.5082,-4.3887,-4.5773,-4.5932,-4.5107,-4.5253,-4.5362,-4.5438,-4.5342,-4.515,-4.5019,-4.5342,-4.5302,-4.515,-4.5504,-4.5381,-4.5074,-4.4977,-4.4414,-4.3849,-4.3849,-4.3679,-4.3515,-4.3515,-4.3515,-4.3515,-4.3515,-4.3515,-4.3259,-4.2451,-4.1662,-4.0838,-4.0029,-3.8759,-3.8114,-3.8869,-3.835,-3.7912,-3.8109,-3.7966,-3.7547,-3.6725,-3.6119,-3.5422,-3.4614,-3.5073,-3.5224,-3.4908,-3.5771,-3.6138,-3.5738,-3.6321,-3.6541,-3.6303,-3.6523,-3.6248,-3.5389,-3.6009,-3.6413,-3.6684,-3.7235,-3.7621,-4.0471,-4.2911,-4.4728,-4.4709,-4.0487,-3.5679,-3.3188,-2.8888,-2.5172,-2.4373,-2.3566,-2.3511,-2.5099,-2.475,-2.4979,-2.7412,-2.778,-2.9193,-3.322,-3.5932,-3.8686,-4.1956,-4.5168,-4.7792,-4.9482,-5.2158,-5.3777,-5.3777,-5.305,0.0,-5.3777,-5.1892,-5.1536,-5.3133,-5.3188,-5.3188,-5.3167,-5.161,-5.0802,-5.0765,-4.9114,-4.8107,-4.7723,-4.8145,-4.7854,-4.6972,-4.6231,-4.631,0.0,-4.6625,-4.6214,-4.5857,-4.6655,-4.6222,-4.5063,-4.472,-4.4825,-4.5063,-4.4739,-4.4624,-4.4657,-4.5007,-4.5096,-4.515,-4.5504,-4.5381,-4.5041,-4.4714,-4.408,-4.3515,-4.3515,-4.3496,-4.3515,-4.3515,-4.3515,-4.3515,-4.3515,-4.3515,-4.3259,-4.2451,-4.1662,-4.0838,-4.0029,-3.9221,-3.8689,-3.8707,-3.8689,-3.8689,-3.8689,-3.8689,-3.8377,-3.7566,-3.7474,-3.7144,-3.634,-3.6266,-3.6615,-3.7419,-3.674,-3.6652,-3.7437,-3.7474,-3.7107,-3.6321,-3.7088,-3.7088,-3.6285,-3.6303,-3.6707,-3.7492,-3.7492,-3.7933,-3.5459,-3.79,-3.9496,-3.8362,-3.5903,-3.3115,-3.0693,-2.7677,-2.5172,-2.4373,-2.4006,-2.3988,-2.4493,-2.3914,-2.4529,-2.8051,-2.8154,-2.9402,-3.3977,-3.6762,-3.9717,-4.3497,-4.8268,-5.1701,0.0,0.0,-5.2811,-5.3345,-5.2645,-5.2535,-5.3345,-5.2263,-5.2105,-5.3167,-5.2142,-5.183,-5.2362,-5.0765,-4.9996,-4.9978,-4.8838,-4.7941,-4.7297,-4.7408,-4.704,-4.6194,-4.5421,-4.5511,0.0,-4.4947,-4.4704,-4.5094,-4.5584,-4.5521,-4.5261,-4.5969,-4.6318,-4.6289,-4.5649,-4.5774,-4.6105,-4.5358,-4.5459,-4.5886,-4.5677,-4.5381,-4.4966,-4.4359,-4.3852,-4.3515,-4.3515,-4.3515,-4.3515,-4.3515,-4.3515,-4.3515,-4.3515,-4.3515,-4.3423,-4.3167,-4.247,-4.1846,-4.157,-4.0873,-4.0141,-3.9606,-3.9515,-3.9313,-3.8781,-3.8707,-3.8597,-3.834,-3.8322,-3.7771,-3.6413,-3.6813,-3.6997,-3.6703,-3.7459,-3.7808,-3.7511,-3.8028,-3.8193,-3.7955,-3.8193,-3.7918,-3.7125,-3.7661,-3.8065,-3.8322,-3.8322,-3.8469,-3.1187,-3.377,-3.5404,-3.4362,-3.2656,-3.0766,-2.895,-2.6447,-2.4355,-2.3859,-2.3988,-2.4006,-2.341,-2.3621,-2.4722,-2.7236,-2.7732,-2.9384,-3.3903,-3.6931,-4.0432,-4.5058,-4.9297,0.0,0.0,-5.2674,-5.2656,-5.317,-5.2747,-5.2674,-5.3167,-5.216,-5.1922,-5.2729,-5.1481,-5.1041,-5.1536,-5.0253,-4.961,-4.9592,-4.8416,-4.7424,-4.6636,-4.6636,-4.6121,-4.5173,-4.4834,0.0,0.0,-4.448,-4.4353,-4.4966,-4.5327,-4.5347,-4.532,-4.6237,-4.6659,-4.6719,-4.6242,-4.6388,-4.6718,-4.6209,-4.6156,-4.6167,-4.5441,-4.5085,-4.4781,-4.4175,-4.3775,-4.3515,-4.3515,-4.3515,-4.3515,-4.3515,-4.3515,-4.3515,-4.3515,-4.3515,-4.3515,-4.3515,-4.2837,-4.2304,-4.2304,-4.1627,-4.093,-4.0432,-4.0359,-4.0175,-3.968,-3.9625,-3.9496,-3.9184,-3.9148,-3.8615,-3.7312,-3.7661,-3.7734,-3.7239,-3.8157,-3.8487,-3.7955,-3.8432,-3.8707,-3.8707,-3.8707,-3.845,-3.7936,-3.8469,-3.8707,-3.8707,-3.8707,-3.8578,0.0,-3.0228,-3.197,-3.1995,-3.0326,-2.8455,-2.764,-2.5144,0.0,-2.3006,-2.3639,-2.3804,-2.2473,-2.4052,-2.565,-2.5944,-2.7247,-2.9586,-3.3513,-3.7037,-4.1203,-4.6544,-4.8765,0.0,-5.0747,-5.227,-5.3185,-5.3185,-5.3148,-5.3115,-5.3115,-5.1591,-5.1059,-5.1793,-5.0986,-5.06,-5.071,-4.9848,-4.9427,-4.9408,-4.7792,-4.6581,-4.581,-4.581,-4.5138,0.0,0.0,0.0,0.0,-4.4922,-4.4875,-4.5292,-4.5731,-4.5634,-4.5321,-4.5879,-4.6262,-4.6543,-4.6565,-4.6619,-4.6782,-4.7371,-4.6935,-4.597,-4.4884,-4.4553,-4.4487,-4.4121,-4.3775,-4.3515,-4.3515,-4.3515,-4.3515,-4.3515,-4.3515,-4.3515,-4.3515,-4.3515,-4.3515,-4.3515,-4.2892,-4.2396,-4.2396,-4.1772,-4.1242,-4.1187,-4.1187,-4.115,-4.1113,-4.1095,-4.0802,-4.0065,-3.9992,-3.9662,-3.8854,-3.8726,-3.8707,-3.8707,-3.8707,-3.8726,-3.8781,-3.8799,-3.8817,-3.8872,-3.8872,-3.8817,-3.8707,-3.8762,-3.8762,-3.8707,-3.8707,-3.8415,-2.3622,0.0,-2.5841,-2.6101,-2.575,-2.5126,0.0,-2.3538,-2.3006,-2.3006,-2.3639,-2.4649,-2.6127,-2.6862,-2.8239,-3.1329,-3.2137,-3.3385,-3.6225,-4.1001,-4.5168,-4.7719,-5.0582,-5.194,-5.0912,-5.227,-5.3185,-5.3185,-5.2637,-5.227,-5.227,-5.0747,-4.9978,-5.0161,-4.8746,-4.86,-4.9867,-4.8416,-4.7681,-4.7682,-4.6673,-4.5773,-4.4984,-4.4984,-4.4468,0.0,0.0,0.0,-4.4909,-4.4098,-4.4191,-4.4903,-4.5625,-4.5827,-4.5898,-4.7242,-4.7775,-4.7813,-4.7514,-4.7814,-4.8212,-4.7396,-4.6164,-4.4903,-4.4318,-4.4132,-4.4117,-4.4031,-4.3775,-4.3515,-4.3515,-4.3515,-4.3515,-4.3515,-4.3515,-4.3515,-4.3515,-4.3515,-4.3515,-4.3515,-4.3349,-4.3222,-4.3222,-4.3057,-4.2727,-4.2121,-4.2029,-4.1809,-4.1168,-4.1095,-4.1022,-4.0838,-4.0836,-4.0487,-3.968,-3.9056,-3.8707,-3.8707,-3.8707,-3.8982,-3.9588,-3.9625,-3.9918,-4.0508,-4.0526,-3.9921,-3.8707,-3.9313,-3.9294,-3.8707,-3.8707,-3.8415,-2.1772,-2.2877,-2.3997,-2.5047,-2.474,-2.4171,-2.4116,-2.3235,-2.2446,-2.2446,-2.3382,-2.4483,-2.5419,-2.6796,-2.8741,-3.1678,-3.2779,-3.4761,-3.9093,-4.3277,-4.6654,-4.8655,-5.0802,-5.1903,0.0,-5.2472,-5.3059,-5.2674,-5.2252,-5.183,-5.1463,-5.0271,-4.961,-4.961,-4.7976,-4.7535,-4.8434,-4.7186,-4.6562,-4.6526,-4.5736,-4.5131,-4.469,-4.4323,-4.3901,0.0,0.0,0.0,-4.4085,-4.3277,-4.3424,-4.4232,-4.5039,-4.5351,-4.5553,-4.7168,-4.7535,-4.7261,-4.7767,-4.8074,-4.8084,-4.6862,-4.5767,-4.4767,-4.3992,-4.3772,-4.3772,-4.3772,-4.3629,-4.3515,-4.3515,-4.3515,-4.3515,-4.3515,-4.3515,-4.3515,-4.3515,-4.3515,-4.3515,-4.3515,-4.3515,-4.3515,-4.3515,-4.3515,-4.3349,-4.291,-4.2837,-4.269,-4.2268,-4.2194,-4.2066,-4.1682,-4.1662,-4.1332,-4.0524,-4.0065,-3.9643,-3.9276,-3.9606,-3.9827,-3.99,-3.99,-4.0102,-4.0543,-4.0561,-4.0304,-3.9808,-4.0249,-4.023,-3.9808,-3.9808,-3.9509,-2.1102,-2.2643,-2.4324,-2.5999,-2.5291,-2.441,-2.5209,-2.363,-2.2051,-2.229,-2.3538,-2.4502,-2.4308,-2.6814,-2.942,-3.1054,-3.2871,-3.6193,-4.2194,-4.5002,-4.7168,-4.917,-5.0453,0.0,-5.1408,-5.2399,-5.2692,-5.1867,-5.1683,-5.1334,-5.0655,-4.9719,-4.9225,-4.9225,-4.7609,-4.6727,-4.6727,-4.6067,-4.5718,-4.5718,-4.4911,-4.4525,-4.4488,-4.3809,-4.3515,-4.346,0.0,0.0,-4.346,-4.2763,-4.2873,-4.3588,-4.4397,-4.4691,-4.4874,-4.636,-4.6599,-4.6355,-4.7733,-4.7845,-4.7198,-4.6093,-4.5415,-4.4917,-4.3816,-4.3515,-4.3515,-4.3515,-4.3515,-4.3515,-4.3515,-4.3515,-4.3515,-4.3515,-4.3515,-4.3515,-4.3515,-4.3515,-4.3515,-4.3515,-4.3515,-4.3515,-4.3515,-4.3515,-4.3515,-4.3515,-4.3515,-4.3515,-4.3515,-4.3515,-4.3239,-4.2561,-4.2488,-4.2158,-4.1352,-4.1389,-4.113,-4.0322,-4.0799,-4.0855,-4.0286,-4.0377,-4.0377,-4.0267,-4.0377,-4.0653,-4.1095,-4.1224,-4.1224,-4.1095,-4.1095,-4.0805,-2.0935,-2.3,-2.4667,-2.54,-2.4897,-2.441,-2.5209,-2.4061,-2.3199,-2.4566,-2.5585,-2.7034,-2.9622,-3.2192,-3.4435,-3.6115,-3.8872,-4.2121,0.0,0.0,-4.8838,-4.8545,0.0,-5.1793,-4.9132,-5.0875,-5.1848,-5.1041,-5.0343,-4.9922,-4.9794,-4.8324,-4.748,-4.748,-4.5902,-4.5058,-4.5058,-4.4948,-4.4892,-4.4856,-4.4066,-4.3681,-4.3681,-4.357,-4.3515,-4.3496,0.0,-4.3404,-4.3496,-4.3369,-4.3404,-4.3588,-4.4397,-4.4691,-4.4801,-4.5736,-4.6649,-4.7502,-4.801,-4.7447,-4.637,-4.5556,-4.4807,-4.4107,-4.3651,-4.3515,-4.3515,-4.3515,-4.3515,-4.3515,-4.3515,-4.3515,-4.3515,-4.3515,-4.3515,-4.3515,-4.3515,-4.3515,-4.3515,-4.3515,-4.3515,-4.3515,-4.3515,-4.3515,-4.3515,-4.3515,-4.3515,-4.3515,-4.3515,-4.3515,-4.346,-4.3331,-4.3331,-4.2983,-4.2176,-4.2745,-4.2782,-4.1974,-4.1407,-4.1352,-4.1901,-4.258,-4.2616,-4.1937,-4.2598,-4.2341,-4.1095,-4.1791,-4.1772,-4.1095,-4.1095,-4.0805,-1.9941,-2.1819,-2.3703,-2.5416,-2.5989,-2.6355,-2.7163,-2.6098,-2.5391,-2.7016,-2.7629,-2.8613,-3.0974,-3.3018,-3.5624,-3.946,-4.3167,-4.592,-4.6947,-4.8122,-4.8893,0.0,0.0,-5.1316,-4.9811,-5.1077,-5.1481,-5.0233,-4.9812,-4.9206,-4.8306,-4.7516,-4.6892,-4.6471,-4.5296,-4.4691,-4.4691,-4.4268,-4.4048,-4.4048,-4.368,-4.3515,-4.3515,-4.3515,-4.3515,-4.3478,0.0,-4.3094,-4.3478,-4.302,-4.3112,-4.3551,-4.3901,-4.4048,-4.4103,-4.447,-4.5486,-4.6626,-4.6341,-4.5988,-4.5605,-4.5269,-4.4632,-4.3971,-4.382,-4.3646,-4.3515,-4.3515,-4.3515,-4.3515,-4.3515,-4.3515,-4.3515,-4.3515,-4.3515,-4.3515,-4.3515,-4.3515,-4.3515,-4.3515,-4.3515,-4.3515,-4.3515,-4.3515,-4.3515,-4.3515,-4.3515,-4.3515,-4.3515,-4.3515,-4.3515,-4.3515,-4.3515,-4.3349,-4.2983,-4.3277,-4.3332,-4.2965,-4.2194,-4.1919,-4.2286,-4.2249,-4.2231,-4.2304,-4.2653,-4.269,-4.2396,-4.2763,-4.2763,-4.2396,-4.2396,-4.2258,-1.9212,-2.0697,-2.2546,-2.5126,-2.6459,-2.7654,-2.9672,-2.8372,-2.7508,-3.0167,-3.0546,-3.084,-3.2265,-3.4009,-3.6909,-4.2029,-4.592,-4.8233,-4.7993,-4.8673,-4.9407,-5.0088,-5.0527,-5.0729,-5.0545,-5.1077,-5.0747,-4.9132,-4.9003,-4.8361,-4.6892,-4.6636,-4.625,-4.5645,-4.4837,-4.4415,-4.4415,-4.3809,-4.3515,-4.3515,-4.3515,-4.3515,-4.3515,-4.3515,-4.3515,-4.3478,-4.2837,-4.2928,-4.346,-4.2837,-4.2928,-4.3515,-4.3515,-4.3515,-4.3515,-4.3818,-4.4662,-4.5627,-4.5394,-4.5406,-4.5544,-4.5536,-4.4968,-4.4265,-4.4191,-4.3841,-4.3515,-4.3515,-4.3515,-4.3515,-4.3515,-4.3515,-4.3515,-4.3515,-4.3515,-4.3515,-4.3515,-4.3515,-4.3515,-4.3515,-4.3515,-4.3515,-4.3515,-4.3515,-4.3515,-4.3515,-4.3515,-4.3515,-4.3515,-4.3515,-4.3515,-4.3515,-4.3515,-4.3515,-4.3515,-4.3515,-4.3515,-4.3515,-4.291,-4.258,-4.258,-4.1992,-4.1864,-4.2286,-4.2488,-4.2782,-4.3222,-4.3423,-4.3515,-4.3515,-4.3515,-4.3515,-1.9565,-2.0501,-2.1651,-2.3963,-2.4819,-2.6565,-3.2177,-3.0245,-2.8876,-3.461,-3.5133,-3.4857,-3.5771,-3.7863,-4.0561,-4.3993,-4.6654,-4.882,-5.0325,0.0,-5.1756,-5.1811,-5.1224,-5.0508,-4.9757,-4.9739,-4.9077,-4.7406,-4.7278,-4.6892,-4.603,-4.5278,-4.4856,-4.4783,-4.4011,-4.3589,-4.3589,-4.3533,-4.3515,-4.3515,-4.3515,-4.3515,-4.3515,-4.3515,-4.3515,-4.3515,-4.3441,-4.346,-4.3515,-4.3441,-4.346,-4.3515,-4.3515,-4.3515,-4.364,-4.4769,-4.5205,-4.5455,-4.6884,-4.715,-4.6862,-4.6852,-4.6077,-4.5074,-4.4736,-4.412,-4.3515,-4.3515,-4.3515,-4.3515,-4.3515,-4.3515,-4.3515,-4.3515,-4.3515,-4.3515,-4.3515,-4.3515,-4.3515,-4.3515,-4.3515,-4.3515,-4.3515,-4.3515,-4.3515,-4.3515,-4.3515,-4.3515,-4.3515,-4.3515,-4.3515,-4.3515,-4.3515,-4.3515,-4.3515,-4.3515,-4.3515,-4.3515,-4.346,-4.3423,-4.3423,-4.3368,-4.3002,-4.2304,-4.302,-4.3057,-4.2396,-4.313,-4.3515,-4.3515,-4.3515,-4.3515,-1.8358,-1.9981,-2.1885,-2.3999,-2.5287,-2.7251,-3.1984,-3.259,-3.3374,-3.7664,-3.8285,-3.8157,-3.8469,-4.0102,-4.2286,-4.5002,-4.7939,-5.0086,-5.071,-5.1481,-5.1811,-5.1316,-5.0986,-5.0472,-4.9684,-4.9095,-4.8324,-4.7186,0.0,0.0,-4.5204,-4.4856,-4.447,-4.3975,-4.3644,-4.3515,-4.3515,-4.3515,-4.3515,-4.3515,-4.3515,-4.3515,-4.3515,-4.3515,-4.3515,-4.3515,-4.3515,-4.3515,-4.3515,-4.3515,-4.3515,-4.3515,-4.3515,-4.3515,-4.3569,-4.4013,-4.43,-4.4621,-4.5716,-4.6177,-4.6237,-4.625,-4.5786,-4.5068,-4.4445,-4.3902,-4.3515,-4.3515,-4.3515,-4.3515,-4.3515,-4.3515,-4.3515,-4.3515,-4.3515,-4.3515,-4.3515,-4.3515,-4.3515,-4.3515,-4.3515,-4.3515,-4.3515,-4.3515,-4.3515,-4.3515,-4.3515,-4.3515,-4.3515,-4.3515,-4.3515,-4.3515,-4.3515,-4.3515,-4.3515,-4.3515,-4.3515,-4.3515,-4.3515,-4.3515,-4.3515,-4.3515,-4.3368,-4.3039,-4.3349,-4.3349,-4.3039,-4.3349,-4.3515,-4.3515,-4.3515,-4.3515,-1.7033,-1.8425,-2.0464,-2.3199,-2.4733,-2.701,-3.2506,-3.438,-3.6036,-3.9866,-4.0653,-4.0726,-4.0999,-4.1735,-4.302,0.0,-4.8049,-5.0105,-5.038,-5.0655,-5.0618,-5.0086,-4.9572,-4.904,-4.849,-4.7884,-4.7223,0.0,0.0,0.0,0.0,-4.4323,-4.4066,-4.3533,-4.3515,-4.3515,-4.3515,-4.3515,-4.3515,-4.3515,-4.3515,-4.3515,-4.3515,-4.3515,-4.3515,-4.3515,-4.3515,-4.3515,-4.3515,-4.3515,-4.3515,-4.3515,-4.3515,-4.3515,-4.3515,-4.3515,-4.3812,-4.4313,-4.4994,-4.5487,-4.5851,-4.5979,-4.5574,-4.4946,-4.439,-4.3863,-4.3515,-4.3515,-4.3515,-4.3515,-4.3515,-4.3515,-4.3515,-4.3515,-4.3515,-4.3515,-4.3515,-4.3515,-4.3515,-4.3515,-4.3515,-4.3515,-4.3515,-4.3515,-4.3515,-4.3515,-4.3515,-4.3515,-4.3515,-4.3515,-4.3515,-4.3515,-4.3515,-4.3515,-4.3515,-4.3515,-4.3515,-4.3515,-4.3515,-4.3515,-4.3515,-4.3515,-4.3386,-4.313,-4.3369,-4.3369,-4.3112,-4.3386,-4.3515,-4.3515,-4.3515,-4.3515,-1.5825,-1.5777,-1.6967,-2.1252,-2.2744,-2.546,-3.4256,-3.5422,-3.6103,-4.1282,-4.2323,-4.2543,-4.3349,-4.2837,-4.282,-4.4416,-4.6691,-4.8562,-4.9426,-4.882,-4.8268,-4.8268,-4.6874,-4.5902,-4.5902,-4.5883,-4.5571,0.0,0.0,0.0,0.0,-4.3515,-4.3515,-4.3515,-4.3515,-4.3515,-4.3515,-4.3515,-4.3515,-4.3515,-4.3515,-4.3515,-4.3515,-4.3515,-4.3515,-4.3515,-4.3515,-4.3515,-4.3515,-4.3515,-4.3515,-4.3515,-4.3515,-4.3515,-4.3515,-4.3515,-4.3993,-4.4761,-4.5154,-4.5564,-4.5955,-4.6343,-4.5677,-4.4691,-4.4691,-4.4121,-4.3515,-4.3515,-4.3515,-4.3515,-4.3515,-4.3515,-4.3515,-4.3515,-4.3515,-4.3515,-4.3515,-4.3515,-4.3515,-4.3515,-4.3515,-4.3515,-4.3515,-4.3515,-4.3515,-4.3515,-4.3515,-4.3515,-4.3515,-4.3515,-4.3515,-4.3515,-4.3515,-4.3515,-4.3515,-4.3515,-4.3515,-4.3515,-4.3515,-4.3515,-4.3515,-4.3515,-4.313,-4.2323,-4.3075,-4.3112,-4.2304,-4.3112,-4.3515,-4.3515,-4.3479,-4.3479,-1.7704,-1.8477,-1.9773,-2.2753,-2.5721,-2.8878,-3.2688,-3.5341,-3.8474,-4.3739,-4.3479,-4.2543,-4.3349,-4.3014,0.0,-4.3229,-4.4493,-4.5505,-4.5778,-4.6437,-4.668,-4.6118,-4.5954,-4.5902,-4.5902,-4.5388,0.0,0.0,0.0,0.0,0.0,-4.3515,-4.3515,-4.3515,-4.3515,-4.3515,-4.3515,-4.3515,-4.3515,-4.3515,-4.3515,-4.3515,-4.3515,-4.3515,-4.3515,-4.3515,-4.3515,-4.3515,-4.3515,-4.3515,-4.3515,-4.3515,-4.3515,-4.3515,-4.3515,-4.3515,-4.3662,-4.3937,-4.4644,-4.496,-4.5075,-4.5197,-4.4997,-4.4581,-4.403,-4.3681,-4.3515,-4.3515,-4.3515,-4.3515,-4.3515,-4.3515,-4.3515,-4.3515,-4.3515,-4.3515,-4.3515,-4.3515,-4.3515,-4.3515,-4.3515,-4.3515,-4.3515,-4.3515,-4.3515,-4.3515,-4.3515,-4.3515,-4.3515,-4.3515,-4.3515,-4.3515,-4.3515,-4.3515,-4.3515,-4.3515,-4.3515,-4.3515,-4.3515,-4.3515,-4.3515,-4.3515,-4.3404,-4.3149,-4.3386,-4.3386,-4.313,-4.3386,-4.3515,-4.3479,-4.3105,-4.2939,-1.7788,-1.9108,-2.1061,-2.4504,-2.7457,-3.0335,-3.3334,-3.656,-4.0184,-4.4654,-4.3926,-4.2776,-4.3793,-4.3083,0.0,-4.3089,-4.3742,-4.4201,-4.4201,-4.4856,-4.517,-4.4664,-4.482,-4.4947,-4.4947,0.0,0.0,0.0,0.0,0.0,0.0,-4.3515,-4.3515,-4.3515,-4.3515,-4.3515,-4.3515,-4.3515,-4.3515,-4.3515,-4.3515,-4.3515,-4.3515,-4.3515,-4.3515,-4.3515,-4.3515,-4.3515,-4.3515,-4.3515,-4.3515,-4.3515,-4.3515,-4.3515,-4.3515,-4.3515,-4.3515,-4.357,-4.4066,-4.4213,-4.4213,-4.4213,-4.4213,-4.4121,-4.3662,-4.3515,-4.3515,-4.3515,-4.3515,-4.3515,-4.3515,-4.3515,-4.3515,-4.3515,-4.3515,-4.3515,-4.3515,-4.3515,-4.3515,-4.3515,-4.3515,-4.3515,-4.3515,-4.3515,-4.3515,-4.3515,-4.3322,-4.325,-4.3462,-4.3105,-4.2996,-4.3444,-4.3303,-4.3268,-4.3479,-4.3515,-4.3515,-4.3515,-4.3515,-4.3515,-4.3515,-4.3515,-4.3392,-4.3196,-4.3178,-4.3051,-4.2829,-4.2829,-4.2829,-4.281,-4.2501,-4.2342,-1.7054,-1.8595,-2.1292,-2.6132,-2.8391,-3.0685,-3.5607,-3.8447,-4.0977,-4.4243,-4.37,-4.3023,-4.4309,-4.3005,-4.2147,-4.3414,-4.3686,-4.3761,-4.3809,-4.3703,-4.364,-4.3718,-4.3542,-4.3444,0.0,0.0,0.0,0.0,0.0,0.0,0.0,-4.3515,-4.3515,-4.3515,-4.3515,-4.3515,-4.3515,-4.3441,-4.3441,-4.3515,-4.3441,-4.3441,-4.3515,-4.3515,-4.3515,-4.3515,-4.3515,-4.3515,-4.3515,-4.3515,-4.3515,-4.3515,-4.3515,-4.3515,-4.3515,-4.3515,-4.3515,-4.3515,-4.3515,-4.3515,-4.3515,-4.3515,-4.3515,-4.3515,-4.3515,-4.3515,-4.3515,-4.3515,-4.3515,-4.3515,-4.3515,-4.3515,-4.3515,-4.3515,-4.3515,-4.3515,-4.3515,-4.3515,-4.3515,-4.3515,-4.3515,-4.3515,-4.3515,-4.3515,-4.3515,-4.3515,-4.3087,-4.2939,-4.3375,-4.2523,-4.2266,-4.3232,-4.2958,-4.2902,-4.3392,-4.3462,-4.3515,-4.3515,-4.3515,-4.3515,-4.3515,-4.3444,-4.3196,-4.2711,-4.2635,-4.2342,-4.181,-4.181,-4.181,-4.181,-4.1729,-4.1707,-1.9752,-2.0696,-2.2095,-2.5902,-2.9676,-3.3516,-3.7534,-3.8316,-3.9174,-4.2725,-4.2679,-4.2273,-4.3203,-4.2176,-4.1236,-4.1501,-4.074,-4.0319,-4.0884,-4.129,-4.1736,-4.2207,-4.2609,-4.3032,0.0,0.0,0.0,0.0,0.0,0.0,-4.3515,-4.3515,-4.3515,-4.3515,-4.3515,-4.3515,-4.3515,-4.2873,-4.2873,0.0,-4.2855,-4.2892,-4.3515,-4.3515,-4.3515,-4.3515,-4.3515,-4.3515,-4.3515,-4.3515,-4.3515,-4.3515,-4.3515,-4.3515,-4.3515,-4.3515,-4.3515,-4.3515,-4.3515,-4.3515,-4.3515,-4.3515,-4.3515,-4.3515,-4.3515,-4.3515,-4.3515,-4.3515,-4.3515,-4.3515,-4.3515,-4.3515,-4.3515,-4.3515,-4.3515,-4.3515,-4.3515,-4.3515,-4.3515,-4.3515,-4.3515,-4.3515,-4.3515,-4.3515,-4.3515,-4.3515,-4.341,-4.3214,-4.292,-4.2655,-4.2422,-4.2185,-4.25,-4.275,-4.2864,-4.325,-4.3515,-4.3515,-4.3515,-4.3515,-4.3515,-4.3105,-4.2826,-4.2693,-4.2223,-4.1937,-4.181,-4.181,-4.181,-4.1789,-4.1313,-4.1087,-1.9147,-2.0973,-2.3531,-2.8216,-3.1935,-3.4957,-3.6941,-3.7303,-3.7846,-4.0099,-4.042,-4.0528,-4.123,-4.0354,-3.9582,-3.9806,-3.9063,-3.8717,-3.9462,-3.9735,-4.0085,-4.0762,-4.1252,-4.1576,0.0,0.0,0.0,0.0,0.0,-4.3331,-4.2947,-4.2928,-4.2745,-4.2359,-4.2359,-4.2359,-4.2359,-4.1937,-4.1937,-4.2359,-4.2323,-4.2708,-4.3515,-4.3515,-4.3515,-4.3515,-4.3515,-4.3515,-4.3515,-4.3515,-4.3515,-4.3515,-4.3515,-4.3515,-4.3515,-4.3515,-4.3515,-4.3515,-4.3515,-4.3515,-4.3515,-4.3515,-4.3515,-4.3515,-4.3515,-4.3515,-4.3515,-4.3515,-4.3515,-4.3515,-4.3515,-4.3515,-4.3515,-4.3515,-4.3515,-4.3515,-4.3515,-4.3515,-4.3515,-4.3515,-4.3515,-4.3515,-4.3515,-4.3515,-4.3515,-4.3515,-4.3268,-4.3014,-4.275,-4.2183,-4.1832,-4.1793,-4.1814,-4.208,-4.2655,-4.2958,-4.3232,-4.3479,-4.3515,-4.3515,-4.3515,-4.2976,-4.2559,-4.2264,-4.1664,-4.1223,-4.0984,-4.0984,-4.0984,-4.0984,-4.0672,-4.0521,-1.7726,-2.0822,-2.5084,-3.0567,-3.3203,-3.4619,-3.5245,-3.5622,-3.6084,-3.6941,-3.7889,-3.8695,-3.9206,-3.8439,-3.7908,-3.8469,-3.8071,-3.7973,-3.87,-3.8665,-3.8827,-3.9517,-3.9846,-3.9904,0.0,0.0,0.0,0.0,0.0,-4.28,-4.2139,-4.2084,-4.1791,-4.1113,-4.1095,-4.1095,-4.1095,-4.0948,-4.0948,-4.1113,-4.1919,-4.2653,-4.3313,-4.3441,-4.3515,-4.3515,-4.3515,-4.3515,-4.3515,-4.3515,-4.3515,-4.3515,-4.3515,-4.3515,-4.3515,-4.3515,-4.3515,-4.3515,-4.3515,-4.3515,-4.3515,-4.3515,-4.3515,-4.3515,-4.3515,-4.3515,-4.3515,-4.3515,-4.3515,-4.3515,-4.3515,-4.3515,-4.3515,-4.3515,-4.3515,-4.3515,-4.3515,-4.3515,-4.3515,-4.3515,-4.3515,-4.3515,-4.3515,-4.3515,-4.3515,-4.3515,-4.3032,-4.2655,-4.2577,-4.1578,-4.1064,-4.1464,-4.1133,-4.1358,-4.246,-4.2635,-4.292,-4.348,-4.3515,-4.3515,-4.3515,-4.2976,-4.246,-4.1958,-4.1268,-4.0631,-4.0096,-4.0096,-4.0096,-4.0096,-4.0096,-4.0096,-1.8211,-2.1955,-2.6133,-2.955,-3.0142,-3.0736,-3.3914,-3.3237,-3.2341,-3.3728,-3.6147,-3.8014,-3.8108,-3.7488,-3.7191,-3.7888,-3.7418,-3.7218,-3.7939,-3.8028,-3.8224,-3.8767,-3.8899,0.0,0.0,0.0,0.0,0.0,-4.1062,-4.137,-4.126,-4.126,-4.1205,-4.1095,-4.1095,-4.1095,-4.1095,-4.0414,-4.0414,-4.1113,-4.1919,-4.2359,-4.2488,-4.3167,-4.3515,-4.3515,-4.3515,-4.3515,-4.3515,-4.3515,-4.3515,-4.3515,-4.3515,-4.3515,-4.3515,-4.3515,-4.3515,-4.3515,-4.3515,-4.3515,-4.3515,-4.3515,-4.3515,-4.3515,-4.3515,-4.3515,-4.3515,-4.3515,-4.3515,-4.3515,-4.3515,-4.3515,-4.3515,-4.3515,-4.3515,-4.3515,-4.3515,-4.3515,-4.3515,-4.3515,-4.3515,-4.3515,-4.3515,-4.3515,-4.3515,-4.3515,-4.3032,-4.25,-4.1979,-4.1335,-4.0733,-4.0385,-4.0655,-4.1178,-4.1874,-4.2382,-4.292,-4.348,-4.3515,-4.3515,-4.3515,-4.2976,-4.2655,-4.2577,-4.1468,-4.0631,-4.0096,-4.0096,-4.0096,-4.0096,-4.0096,-4.0096,-1.9345,-2.1295,-2.3378,-2.7232,-2.7317,-2.7453,-3.119,-3.0615,-2.9835,-3.1765,-3.3541,-3.4878,-3.5301,-3.5115,-3.4996,-3.5334,-3.5115,-3.5301,-3.6468,-3.6265,-3.6243,-3.6886,-3.7232,0.0,0.0,0.0,0.0,0.0,-4.0396,-4.071,-3.9808,-3.9756,-3.9551,-3.9093,-3.9074,-3.9294,-3.9753,-3.9405,-3.9625,-4.0432,-4.0781,-4.1423,-4.2304,-4.2671,-4.3057,-4.3515,-4.3515,-4.3515,-4.3515,-4.3515,-4.3515,-4.3515,-4.3515,-4.3515,-4.3515,-4.3515,-4.3515,-4.3515,-4.3515,-4.3515,-4.3515,-4.3515,-4.3515,-4.3515,-4.3515,-4.3515,-4.3515,-4.3515,-4.3515,-4.3515,-4.3515,-4.3515,-4.3515,-4.3515,-4.3515,-4.3515,-4.3515,-4.3515,-4.3515,-4.3515,-4.3515,-4.3515,-4.3515,-4.3515,-4.3515,-4.3515,-4.3032,-4.248,-4.1874,-4.1251,-4.0703,-4.0171,-4.0311,-4.0821,-4.1707,-4.2041,-4.256,-4.3444,-4.3515,-4.3515,-4.3515,-4.3268,-4.2846,-4.2203,-4.1358,-4.1004,-4.1214,-4.0475,-4.0316,-4.0696,-4.0299,-4.0096,-1.9532,-2.0166,-2.0859,-2.4408,-2.4321,-2.4188,-2.7402,-2.7232,-2.6979,0.0,-3.0378,-3.1309,-3.1884,-3.2611,-3.3119,-3.3119,-3.3119,-3.3508,-3.4624,-3.4455,-3.4421,-3.4974,-3.5382,0.0,0.0,0.0,0.0,0.0,-3.8813,-3.9189,-3.7982,-3.8038,-3.7826,-3.7217,-3.7199,-3.7584,-3.8395,-3.8597,-3.9001,-3.9588,-3.979,-4.0524,-4.1699,-4.2103,-4.2635,-4.3221,-4.3423,-4.3515,-4.3515,-4.3515,-4.3515,-4.3515,-4.3515,-4.3515,-4.3515,-4.3515,-4.3515,-4.3515,-4.3515,-4.3515,-4.3515,-4.3515,-4.3515,-4.3515,-4.3515,-4.3515,-4.3515,-4.3515,-4.3515,-4.3515,-4.3515,-4.3515,-4.3515,-4.3515,-4.3515,-4.3515,-4.3515,-4.3515,-4.3515,-4.3515,-4.3515,-4.3515,-4.3515,-4.3515,-4.3515,-4.3515,-4.2902,-4.2302,-4.1874,-4.1155,-4.0528,-4.0146,-4.0229,-4.0696,-4.1707,-4.1937,-4.2444,-4.3444,-4.3515,-4.3515,-4.3515,-4.3375,-4.2977,-4.2246,-4.155,-4.1415,-4.1884,-4.0865,-4.0646,-4.1187,-4.0426,-4.0197,-1.7732,-1.8966,-2.0234,-2.1241,-2.0856,-2.066,-2.233,-2.2634,-2.3021,-2.4541,-2.6556,-2.8043,-2.8077,-3.0429,-3.2361,-3.2361,-3.2361,-3.2378,-3.2462,-3.3034,-3.3474,-3.3508,-3.3546,0.0,0.0,0.0,0.0,0.0,-3.5329,-3.5844,-3.5772,-3.6167,-3.6413,-3.6358,-3.6358,-3.6758,-3.7547,-3.8322,-3.8726,-3.8781,-3.9533,-3.9937,-4.0065,-4.1607,-4.2323,-4.2396,-4.3167,-4.3515,-4.3515,-4.3515,-4.3515,-4.3515,-4.3515,-4.3515,-4.3515,-4.3515,-4.3515,-4.3515,-4.3515,-4.3515,-4.3515,-4.3515,-4.3515,-4.3515,-4.3515,-4.3515,-4.3515,-4.3515,-4.3515,-4.3515,-4.3515,-4.3515,-4.3515,-4.3515,-4.3515,-4.3515,-4.3515,-4.3515,-4.3515,-4.3515,-4.3515,-4.3515,-4.3515,-4.3515,-4.3515,-4.3515,-4.2562,-4.1832,-4.1793,-4.0838,-4.0121,-4.0096,-4.0552,-4.111,-4.1746,-4.2322,-4.2902,-4.3462,-4.3515,-4.3515,-4.3515,-4.3014,-4.2958,-4.3391,-4.251,-4.1776,-4.1256,-4.1196,-4.117,-4.1187,-4.0426,-4.046,-1.9017,-1.8915,-1.9017,-2.0767,-1.9164,-1.7946,-2.0923,-2.1181,-2.0978,-2.1502,-2.4156,-2.61,-2.5152,-2.7824,-3.0178,-3.0178,-3.0178,-3.0347,-3.0818,-3.1529,-3.1816,-3.1343,-3.2544,0.0,0.0,0.0,0.0,0.0,0.0,-3.4839,-3.4839,-3.4746,-3.4926,-3.5445,-3.5463,-3.5881,-3.6721,-3.7529,-3.7933,-3.7951,-3.8744,-3.9405,-3.9953,-4.1038,-4.1809,-4.2341,-4.3149,-4.3515,-4.3515,-4.3515,-4.3515,-4.3515,-4.3515,-4.3515,-4.3515,-4.3515,-4.3515,-4.3515,-4.3515,-4.3515,-4.3515,-4.3515,-4.3515,-4.3515,-4.3515,-4.3515,-4.3515,-4.3515,-4.3515,-4.3515,-4.3515,-4.3515,-4.3515,-4.3515,-4.3515,-4.3515,-4.3515,-4.3515,-4.3515,-4.3515,-4.3515,-4.3515,-4.3515,-4.3515,-4.3515,-4.3515,-4.2542,-4.181,-4.181,-4.1105,-4.0473,-4.0146,-4.0577,-4.0995,-4.1183,-4.1789,-4.2382,-4.2958,-4.3303,-4.3559,-4.3684,-4.351,-4.3568,-4.3894,-4.3623,-4.336,-4.3008,-4.2262,-4.1914,-4.1897,-4.1653,-4.139,-1.9203,-1.8915,-1.8713,-1.9498,-1.8195,-1.7101,-1.8618,-1.9502,-1.9866,-1.936,-2.2245,-2.456,-2.3579,-2.5642,-2.7656,-2.8147,-2.8231,-2.8484,-2.921,-2.9973,-3.0296,-2.9786,-3.1021,0.0,0.0,0.0,0.0,0.0,0.0,0.0,-3.2983,-3.3253,-3.377,-3.4564,-3.4857,-3.5279,-3.5862,-3.667,-3.7235,-3.7511,-3.8028,-3.8707,-3.9515,-4.0341,-4.1148,-4.1937,-4.2745,-4.324,-4.3515,-4.3515,-4.3515,-4.3515,-4.3515,-4.3515,-4.3515,-4.3515,-4.3515,-4.3515,-4.3515,-4.3515,-4.3515,-4.3515,-4.3515,-4.3515,-4.3515,-4.3515,-4.3515,-4.3515,-4.3515,-4.3515,-4.3515,-4.3515,-4.3515,-4.3515,-4.3699,-4.3901,-4.3901,-4.3901,-4.3901,-4.3901,-4.4121,-4.4213,-4.3938,-4.3901,-4.3739,-4.3286,-4.2424,-4.181,-4.181,-4.1127,-4.0552,-4.0392,-4.0679,-4.0903,-4.0903,-4.1643,-4.2389,-4.3053,-4.3597,-4.3981,-4.4189,-4.4004,-4.3946,-4.4049,-4.4027,-4.4033,-4.4103,-4.3134,-4.2675,-4.2658,-4.2405,-4.2033,0.0,0.0,0.0,-1.7365,-1.7856,-1.8115,-1.5247,-1.7349,-1.9478,-1.8036,-2.0703,-2.3291,-2.3291,-2.3915,-2.4914,-2.6369,-2.6607,-2.6894,-2.7604,-2.8383,-2.8891,-2.8874,-2.8925,0.0,0.0,0.0,0.0,0.0,-3.0124,-3.015,-3.0183,-3.1719,-3.2949,-3.3733,-3.4546,-3.4954,-3.494,-3.5811,-3.6652,-3.7441,-3.7492,-3.7918,-3.8726,-3.9533,-4.0322,-4.1113,-4.1937,-4.2745,-4.3478,-4.3496,-4.3515,-4.3515,-4.3515,-4.3515,-4.3515,-4.3515,-4.3515,-4.3515,-4.3515,-4.3515,-4.3515,-4.3515,-4.3515,-4.3515,-4.3515,-4.3515,-4.3515,-4.3515,-4.3515,-4.3515,-4.3515,-4.3533,-4.3551,-4.3551,-4.4121,-4.4727,-4.4728,-4.4745,-4.4745,-4.4745,-4.5369,-4.5645,-4.4856,-4.4709,-4.4254,-4.2952,-4.2221,-4.181,-4.181,-4.0814,-4.0311,-4.081,-4.088,-4.0903,-4.088,-4.1997,-4.3035,-4.3812,-4.44,-4.4802,-4.5001,-4.443,-4.4097,-4.4047,-4.3632,-4.3744,-4.4318,-4.3717,-4.3409,-4.3375,-4.2675,-4.2337,-2.031,0.0,0.0,0.0,0.0,0.0,-1.7073,-1.727,-1.7348,-1.6407,-1.8729,-2.0944,-2.0944,-2.2009,-2.3224,-2.4154,-2.4762,-2.5185,-2.5372,-2.6065,-2.6336,-2.5811,-2.7165,-2.801,0.0,0.0,0.0,0.0,-2.9041,-2.9147,-2.9736,-3.1342,-3.2447,-3.2931,-3.3715,-3.3995,-3.3706,-3.4804,-3.5608,-3.6131,-3.7061,-3.7918,-3.8726,-3.9533,-4.001,-4.0304,-4.1699,-4.2433,-4.2671,-4.3259,-4.3515,-4.3515,-4.3515,-4.3515,-4.3515,-4.3515,-4.3515,-4.3515,-4.3515,-4.3515,-4.3515,-4.3515,-4.3515,-4.3515,-4.3515,-4.3515,-4.3515,-4.3515,-4.3515,-4.3515,-4.3515,-4.392,-4.4378,-4.4378,-4.4544,-4.4874,-4.5443,-4.5571,-4.5571,-4.5571,-4.5755,-4.5828,-4.5608,-4.5094,-4.4564,-4.42,-4.2821,-4.181,-4.181,-4.1133,-4.0601,-4.0343,-4.0679,-4.0733,-4.0343,-4.1928,-4.3009,-4.3223,-4.4311,-4.4978,-4.5134,-4.4582,-4.4498,-4.5062,-4.4544,-4.4572,-4.5174,-4.4572,-4.3961,-4.3392,-4.3172,-4.3403,-2.1275,-2.1312,-2.1299,-2.0822,0.0,0.0,-1.7693,-1.8217,-1.8567,-1.6864,-1.8882,-2.0758,-2.012,-2.0728,-2.1485,-2.1907,-2.2344,-2.3054,-2.4321,-2.488,-2.4983,-2.4541,-2.5642,-2.6505,0.0,-2.7232,-2.7841,-2.845,-2.815,-2.8494,-2.9766,-3.078,-3.1678,-3.2535,-3.3197,-3.3346,-3.2921,-3.3803,-3.4691,-3.5614,-3.6355,-3.7415,-3.8726,-3.9184,-3.9772,-4.0451,-4.1387,-4.2176,-4.2837,-4.3296,-4.3515,-4.3515,-4.3515,-4.3515,-4.3515,-4.3515,-4.3515,-4.3515,-4.3515,-4.3515,-4.3515,-4.3515,-4.3515,-4.3515,-4.3515,-4.3515,-4.3515,-4.3515,-4.3515,-4.3515,-4.3515,-4.3846,-4.4287,-4.4618,-4.4966,-4.5424,-4.6232,-4.6673,-4.6801,-4.6471,-4.6673,-4.6801,-4.6471,-4.5736,-4.4931,-4.4117,-4.2747,-4.1831,-4.192,-4.1399,-4.1104,-4.1364,-4.1464,-4.1364,-4.1035,-4.2509,-4.3607,-4.3926,-4.5155,-4.5809,-4.5705,-4.5372,-4.5302,-4.5579,-4.5235,-4.5388,-4.6042,-4.5065,-4.435,-4.391,-4.4231,-4.4621,-2.1532,-2.229,-2.2716,-2.0842,-2.1282,0.0,-1.7738,-1.9401,-2.0923,-1.8222,-1.9744,-2.1181,-1.9968,-1.9816,-1.9879,-1.9879,-1.9879,-2.0842,-2.3611,-2.4152,-2.4186,-2.4017,-2.422,-2.4897,-2.6217,-2.5812,-2.6049,-2.7452,-2.7362,-2.8001,-2.977,-3.0033,-3.0788,-3.22,-3.2831,-3.2905,-3.2434,-3.2952,-3.3978,-3.5514,-3.558,-3.6671,-3.8707,-3.8643,-3.9467,-4.0967,-4.1058,-4.1974,-4.3369,-4.346,-4.3515,-4.3515,-4.3515,-4.3515,-4.3515,-4.3515,-4.3515,-4.3515,-4.3515,-4.3515,-4.3515,-4.3515,-4.3515,-4.3515,-4.3515,-4.3515,-4.3515,-4.3515,-4.3515,-4.3515,-4.3515,-4.3573,-4.3849,-4.4564,-4.5352,-4.614,-4.6964,-4.768,-4.7994,-4.7351,-4.781,-4.8086,-4.7351,-4.6581,-4.5421,-4.364,-4.2619,-4.2106,-4.2215,-4.1698,-4.1793,-4.2967,-4.262,-4.2339,-4.2402,-4.3526,-4.4582,-4.5346,-4.649,-4.6966,-4.656,-4.6459,-4.622,-4.5833,-4.5821,-4.6143,-4.6786,-4.5495,-4.4801,-4.475,-4.5483,-4.5788,0.0,0.0,0.0,0.0,-2.2057,0.0,-1.8922,-1.8127,-1.7636,-1.7044,-1.6908,-1.7185,-1.807,-1.8713,-1.9113,-1.9113,-1.9113,-1.9536,-2.0707,-2.1941,-2.2276,-2.1028,-2.2496,0.0,-2.4034,-2.4457,-2.5083,-2.5947,-2.652,-2.7124,-2.7828,-2.9026,-3.0008,-3.0625,-3.1943,-3.24,-3.1933,-3.2777,-3.382,-3.5027,-3.5365,-3.664,-3.8692,-3.8249,-3.8828,-4.0175,-4.0836,-4.1662,-4.258,-4.3222,-4.3515,-4.3515,-4.3515,-4.3515,-4.3515,-4.3515,-4.3515,-4.3515,-4.3515,-4.3515,-4.3515,-4.3515,-4.3515,-4.3515,-4.3515,-4.3515,-4.3515,-4.3515,-4.3515,-4.3515,-4.3515,-4.4089,-4.4746,-4.4909,-4.556,-4.6357,-4.7174,-4.7335,-4.748,-4.7957,-4.8196,-4.8251,-4.8104,-4.7388,-4.6575,-4.5717,-4.4492,-4.3474,-4.3048,-4.2467,-4.2187,-4.2454,-4.2366,-4.2533,-4.3061,-4.4325,-4.5352,-4.6068,-4.6871,-4.7359,-4.7369,-4.6842,-4.6579,-4.6595,-4.6583,-4.665,-4.6786,-4.6498,-4.6058,-4.55,-4.6244,-4.6261,0.0,0.0,0.0,-2.2852,0.0,0.0,0.0,-1.8922,-1.8731,-1.7958,-1.7794,-1.78,-1.78,-1.7794,-1.7805,-1.7805,-1.7501,-1.7642,-1.8746,-2.02,-2.1147,-2.1147,-2.2175,0.0,-2.3359,-2.3729,-2.4408,-2.5524,-2.5947,-2.6571,-2.7502,-2.8271,-2.9145,-3.0127,-3.1079,-3.1568,-3.1507,-3.2179,-3.3176,-3.4547,-3.4765,-3.5935,-3.7948,-3.8326,-3.9079,-4.0172,-4.1232,-4.2158,-4.2928,-4.3331,-4.3515,-4.3515,-4.3515,-4.3515,-4.3515,-4.3515,-4.3515,-4.3515,-4.3515,-4.3515,-4.3515,-4.3515,-4.3515,-4.3515,-4.3515,-4.3515,-4.3515,-4.3515,-4.3515,-4.3519,-4.3615,-4.4023,-4.4602,-4.5415,-4.592,-4.6509,-4.7613,-4.7764,-4.781,-4.8233,-4.8306,-4.8306,-4.8306,-4.7378,-4.6436,-4.5835,-4.4557,-4.3565,-4.3323,-4.3042,-4.2997,-4.3386,-4.3464,-4.3683,-4.4343,-4.528,-4.6122,-4.6807,-4.7897,-4.8222,-4.7616,-4.7666,-4.76,-4.7357,-4.7716,-4.7716,-4.7361,-4.7716,-4.7327,-4.6261,-4.6616,-4.6802,0.0,0.0,0.0,0.0,0.0,-2.2601,0.0,0.0,0.0,-1.8983,0.0,0.0,0.0,0.0,0.0,0.0,0.0,0.0,0.0,-1.9,0.0,-2.1282,-2.1552,0.0,-2.2665,-2.3004,-2.3799,-2.5287,-2.5524,-2.6167,-2.7519,-2.7722,-2.8432,-2.9837,-3.0345,-3.0792,-3.121,-3.1603,-3.2605,-3.4202,-3.4183,-3.5238,-3.7227,-3.8167,-3.9121,-4.0131,-4.1373,-4.2438,-4.3277,-4.3441,-4.3515,-4.3515,-4.3515,-4.3515,-4.3515,-4.3515,-4.3515,-4.3515,-4.3515,-4.3515,-4.3515,-4.3515,-4.3515,-4.3515,-4.3515,-4.3515,-4.3515,-4.3515,-4.3608,-4.3741,-4.3802,-4.3924,-4.4402,-4.5698,-4.613,-4.6588,-4.7849,-4.821,-4.8306,-4.8306,-4.8306,-4.8306,-4.8306,-4.7368,-4.6365,-4.5612,-4.4558,-4.3775,-4.3664,-4.3639,-4.3876,-4.4547,-4.4615,-4.4892,-4.5667,-4.6291,-4.6918,-4.7576,-4.9017,-4.9228,-4.7864,-4.8455,-4.8618,-4.8105,-4.8714,-4.8714,-4.8091,-4.8578,-4.8105,-4.6802,-4.709,-4.7479,0.0,0.0,0.0,0.0,-2.2582,0.0,0.0,0.0,-1.9204,-1.8141,0.0,0.0,0.0,0.0,0.0,0.0,0.0,0.0,-1.936,-1.878,-1.8104,-1.829,-1.8894,-1.9587,0.0,-2.162,-2.3038,-2.4508,-2.522,-2.5964,-2.6776,-2.7435,-2.8196,-2.9111,-2.9792,-3.0503,-3.119,-3.1603,-3.2605,-3.4202,-3.4144,-3.5217,-3.719,-3.6871,-3.7627,-3.9282,-4.0149,-4.1249,-4.2488,-4.3221,-4.3515,-4.3515,-4.3515,-4.3515,-4.3515,-4.3515,-4.3515,-4.3515,-4.3515,-4.3515,-4.3515,-4.3515,-4.3515,-4.3515,-4.3515,-4.3515,-4.3515,-4.3515,-4.4011,-4.4455,-4.3946,-4.4403,-4.5078,-4.5255,-4.5863,-4.658,-4.7345,-4.7917,-4.8306,-4.8306,-4.8306,-4.8306,-4.8306,-4.8175,-4.7652,-4.6452,-4.6147,-4.5663,-4.4595,-4.4479,-4.4513,-4.4598,-4.4615,-4.5097,-4.6367,-4.7149,-4.7796,-4.8343,-4.9815,-5.0043,-4.8618,-4.8821,-4.8948,-4.8883,-4.8968,-4.8968,-4.8883,-4.8308,-4.7614,-4.6819,-4.8139,-4.8443,0.0,0.0,0.0,0.0,0.0,0.0,-2.1633,0.0,-1.999,0.0,0.0,0.0,0.0,0.0,0.0,0.0,-1.6722,0.0,0.0,0.0,-1.7963,0.0,0.0,0.0,0.0,0.0,0.0,0.0,-2.457,-2.5377,-2.5639,-2.6622,-2.7723,-2.8959,-2.9314,-3.0006,-3.119,-3.137,-3.222,-3.3744,-3.3704,-3.4597,-3.6287,-3.6845,-3.7504,-3.8302,-3.9695,-4.0872,-4.1886,-4.2532,-4.3075,-4.3515,-4.3515,-4.3515,-4.3515,-4.3515,-4.3515,-4.3515,-4.3515,-4.3515,-4.3515,-4.3515,-4.3515,-4.3515,-4.3515,-4.3515,-4.3515,-4.3515,-4.3834,-4.4132,-4.396,-4.4288,-4.4803,-4.5246,-4.5914,-4.6594,-4.7259,-4.7877,-4.8306,-4.8306,-4.8306,-4.8306,-4.8306,-4.8015,-4.747,-4.6548,-4.6094,-4.5571,-4.4692,-4.4615,-4.4615,-4.4615,-4.4976,-4.5785,-4.7129,-4.7918,-4.8781,-4.9765,-5.0105,-5.0229,-5.0095,-4.9395,-4.9001,-4.9001,-4.9001,-4.8798,-4.8376,-4.8494,-4.8173,-4.7462,-4.8088,-4.8443,-2.2783,0.0,0.0,0.0,0.0,0.0,0.0,0.0,0.0,0.0,0.0,0.0,0.0,0.0,0.0,0.0,0.0,-1.7416,0.0,-1.7907,0.0,0.0,0.0,0.0,0.0,0.0,0.0,0.0,0.0,-2.453,-2.4887,-2.6041,-2.7419,-2.8942,-2.9196,-2.9905,-3.119,-3.1393,-3.2138,-3.3406,-3.3609,-3.437,-3.5639,-3.662,-3.7124,-3.7387,-3.9284,-4.0508,-4.1252,-4.2225,-4.2965,-4.3515,-4.3515,-4.3515,-4.3515,-4.3515,-4.3515,-4.3515,-4.3515,-4.3515,-4.3515,-4.3515,-4.3515,-4.3515,-4.3515,-4.3662,-4.3792,-4.3632,-4.401,-4.4399,-4.4147,-4.4363,-4.4784,-4.5347,-4.5965,-4.6594,-4.7259,-4.7877,-4.8306,-4.8306,-4.8306,-4.8306,-4.8306,-4.7937,-4.7345,-4.6524,-4.6039,-4.5459,-4.4692,-4.4784,-4.4919,-4.4919,-4.5551,-4.6548,-4.7904,-4.8692,-4.9722,-5.1079,-5.0367,-5.0161,-5.0761,-4.9622,-4.9001,-4.9001,-4.9001,-4.8748,-4.8193,-4.8748,-4.8731,-4.8206,-4.8206,-4.8494,0.0,0.0,0.0,-2.2943,0.0,0.0,0.0,0.0,-2.2068,0.0,0.0,0.0,0.0,0.0,0.0,0.0,0.0,0.0,0.0,0.0,0.0,0.0,0.0,0.0,0.0,0.0,0.0,0.0,0.0,0.0,-2.4821,-2.6041,-2.7419,-2.8942,-2.9685,-3.0429,-3.119,-3.1921,-3.2666,-3.3406,-3.4117,-3.4861,-3.56,-3.5639,-3.5954,-3.6558,-3.8697,-3.9902,-4.0492,-4.2591,-4.3478,-4.3515,-4.3515,-4.3515,-4.3515,-4.3515,-4.3515,-4.3515,-4.3515,-4.3515,-4.3515,-4.3515,-4.3515,-4.3515,-4.3515,-4.4048,-4.4546,-4.3948,-4.4928,-4.5842,-4.4607,-4.4879,-4.5477,-4.5494,-4.5965,-4.6594,-4.7259,-4.7877,-4.8306,-4.8306,-4.8306,-4.8306,-4.8306,-4.8287,-4.7838,-4.6594,-4.6383,-4.594,-4.4748,-4.5213,-4.5669,-4.5669,-4.6312,-4.734,-4.8751,-4.9521,-5.0563,-5.1963,-5.0695,-4.9925,-5.0027,-4.9359,-4.9001,-4.9001,-4.9001,-4.8984,-4.8968,-4.8984,-4.8984,-4.8968,-4.8968,-4.8984,0.0,0.0,-2.3236,-2.3278,0.0,0.0,0.0,0.0,0.0,0.0,0.0,0.0,0.0,0.0,0.0,0.0,0.0,0.0,0.0,0.0,0.0,0.0,0.0,0.0,0.0,0.0,0.0,0.0,0.0,0.0,0.0,-2.4853,-2.6953,-2.8494,-2.9542,-3.0446,-3.119,-3.1938,-3.2662,-3.3406,-3.415,-3.4895,-3.56,-3.56,-3.5983,-3.6722,-3.7762,-3.8867,-4.0084,-4.1516,-4.245,-4.2995,-4.3375,-4.3515,-4.3515,-4.3515,-4.3515,-4.3515,-4.3515,-4.3515,-4.3515,-4.3515,-4.3515,-4.3606,-4.4121,-4.4103,-4.4086,-4.4967,-4.4983,-4.476,-4.4859,-4.4914,-4.4906,-4.4906,-4.5673,-4.6478,-4.6687,-4.7554,-4.8306,-4.8306,-4.7995,-4.7697,-4.7697,-4.7324,-4.6892,-4.646,-4.6484,-4.6239,-4.5439,-4.5974,-4.643,-4.643,-4.709,-4.7907,-4.8799,-5.0031,-5.0949,-5.1401,-5.0497,-4.998,-4.9987,-4.9359,-4.9001,-4.9001,-4.9001,-4.9001,-4.9001,-4.9001,-4.9001,-4.9001,-4.9001,-4.9001,-2.367,-2.367,0.0,-2.3864,-2.3969,0.0,-2.45,0.0,0.0,0.0,0.0,0.0,0.0,0.0,0.0,0.0,0.0,0.0,0.0,-2.0002,0.0,0.0,0.0,0.0,0.0,0.0,0.0,0.0,0.0,0.0,0.0,0.0,-2.6702,-2.8265,-2.9734,-3.0852,-3.1562,-3.2307,-3.3051,-3.3795,-3.4539,-3.5148,-3.56,-3.56,-3.5893,-3.6429,-3.7201,-3.8257,-3.9507,-4.0664,-4.1764,-4.2713,-4.3069,-4.3321,-4.3515,-4.3515,-4.3515,-4.3515,-4.3515,-4.3515,-4.3515,-4.3515,-4.3515,-4.3606,-4.4121,-4.4305,-4.4417,-4.4741,-4.4853,-4.4794,-4.4617,-4.4585,-4.4682,-4.4925,-4.5743,-4.6537,-4.6818,-4.7653,-4.8375,-4.8375,-4.7855,-4.7406,-4.7406,-4.6682,-4.6088,-4.6088,-4.6377,-4.6387,-4.5772,-4.6583,-4.7192,-4.7192,-4.7868,-4.8541,-4.9232,-5.0391,-5.0981,-5.0716,-5.0269,-4.9907,-4.9634,-4.9243,-4.912,-4.939,-4.9137,-4.9137,-4.939,-4.9137,-4.9001,-4.9001,-4.9001,-4.9001]},{"header":{"parameterUnit":"m.s-1","parameterCategory":1,"la1":30.6,"la2":29.2853,"lo1":-89.7004,"lo2":-87.6739,"dy":0.0162,"dx":0.0183,"nx":112,"ny":82,"refTime":"2024-04-17T12:00:00:Z","depth":0,"parameterNumber":3,"parameterNumberName":"V-component_of_WINDS"},"data":[0.0,0.0,0.0,0.0,0.0,0.0,0.0,0.0,0.0,0.0,0.0,0.0,0.0,0.0,0.0,0.0,0.0,0.0,0.0,0.0,0.0,0.0,0.0,0.0,0.0,0.0,0.0,0.0,0.0,0.0,0.0,0.0,0.0,0.0,0.0,0.0,0.0,0.0,0.0,0.0,0.0,0.0,0.0,0.0,0.0,0.0,0.0,0.0,0.0,0.0,0.0,0.0,0.0,0.0,0.0,0.0,0.0,0.0,0.0,0.0,0.0,0.0,0.0,0.0,0.0,0.0,0.0,0.0,0.0,0.0,0.0,0.0,0.0,0.0,0.0,0.0,0.0,0.0,0.0,0.0,0.0,0.0,0.0,0.0,0.0,0.0,0.0,0.0,0.0,0.0,0.3385,0.418,0.5591,0.6419,0.6276,0.7764,0.7561,0.4914,0.0,0.0,0.0,0.0,0.0,0.0,0.0,0.0,0.0,0.0,0.0,0.0,0.0,0.0,0.0,0.0,0.0,0.0,0.0,0.0,0.0,0.0,0.0,0.0,0.0,0.0,0.0,0.0,0.0,0.0,0.0,0.0,0.0,0.0,0.0,0.0,0.0,0.0,0.0,0.0,0.0,0.0,0.0,0.0,0.0,0.0,0.0,0.0,0.0,0.0,0.0,0.0,0.0,0.0,0.0,0.0,0.0,0.0,0.0,0.0,0.0,0.0,0.0,0.0,0.0,0.0,0.0,0.0,0.0,0.0,0.0,0.0,0.0,0.0,0.0,0.0,0.0,0.0,0.0,0.0,0.0,0.0,0.0,0.0,0.0,0.0,0.0,0.0,0.0,0.0,0.0,0.0,0.0,0.0,0.0,0.0,0.0,0.0,0.0,0.0,0.0,0.0,0.0,0.0,0.4273,0.5409,0.599,0.6269,0.6078,0.6514,0.604,0.4241,0.0,0.0,0.0,0.0,0.0,0.0,0.0,0.0,0.0,0.0,0.0,0.0,0.0,0.0,0.0,0.0,0.0,0.0,0.0,0.0,0.0,0.0,0.0,0.0,0.0,0.0,0.0,0.0,0.0,0.0,0.0,0.0,0.0,0.0,0.0,0.0,0.0,0.0,0.0,0.0,0.0,0.0,0.0,0.0,0.0,0.0,0.0,0.0,0.0,0.0,0.0,0.0,0.0,0.0,0.0,0.0,0.0,0.0,0.0,0.0,0.0,0.0,0.0,0.0,0.0,0.0,0.0,0.0,0.0,0.0,0.0,0.0,0.0,0.0,0.0,0.0,0.0,0.0,0.0,0.0,0.0,0.0,0.0,0.0,0.0,0.0,0.0,0.0,0.0,0.0,0.0,0.0,0.0,0.0,0.0,0.0,0.0,0.0,0.0,0.0,0.0,0.0,0.0,0.3987,0.4779,0.5521,0.5798,0.5873,0.5681,0.6181,0.585,0.4306,0.5408,0.0,0.0,0.0,0.0,0.0,0.0,0.0,0.0,0.0,0.0,0.0,0.0,0.0,0.0,0.0,0.0,0.0,0.0,0.0,0.0,0.0,0.0,0.0,0.0,0.0,0.0,0.0,0.0,0.0,0.0,0.0,0.0,0.0,0.0,0.0,0.0,0.0,0.0,0.0,0.0,0.0,0.0,0.0,0.0,0.0,0.0,0.0,0.0,0.0,0.0,0.0,0.0,0.0,0.0,0.0,0.0,0.0,0.0,0.0,0.0,0.0,0.0,0.0,0.0,0.0,0.0,0.0,0.0,0.0,0.0,0.0,0.0,0.0,0.0,0.0,0.0,0.0,0.0,0.0,0.0,0.0,0.0,0.0,0.0,0.0,0.0,0.0,0.0,0.0,0.0,0.0,0.0,0.0,0.0,0.0,0.0,0.0,0.0,0.0,0.0,0.0,0.0,0.455,0.4938,0.5303,0.5413,0.542,0.5303,0.5905,0.569,0.4291,0.4726,0.0,0.0,0.0,0.0,0.0,0.0,0.0,0.0,0.0,0.0,0.0,0.0,0.0,0.0,0.0,0.0,0.0,0.0,0.0,0.0,0.0,0.0,0.0,0.0,0.0,0.0,0.0,0.0,0.0,0.0,0.0,0.0,0.0,0.0,0.0,0.0,0.0,0.0,0.0,0.0,0.0,0.0,0.0,0.0,0.0,0.0,0.0,0.0,0.0,0.0,0.0,0.0,0.0,0.0,0.0,0.0,0.0,0.0,0.0,0.0,0.0,0.0,0.0,0.0,0.0,0.0,0.0,0.0,0.0,0.0,0.0,0.0,0.0,0.0,0.0,0.0,0.0,0.0,0.0,0.0,0.0,0.0,0.0,0.0,0.0,0.0,0.0,0.0,0.0,0.0,0.0,0.0,0.0,0.0,0.0,0.0,0.0,0.0,0.0,0.0,0.0,0.0,0.4392,0.4692,0.5069,0.5123,0.5073,0.4962,0.5226,0.4902,0.3734,0.4048,0.0,0.0,0.0,0.0,0.0,0.0,0.0,0.0,0.0,0.0,0.0,0.0,0.0,0.0,0.0,0.0,0.0,0.0,0.0,0.0,0.0,0.0,0.0,0.0,0.0,0.0,0.0,0.0,0.0,0.0,0.0,0.0,0.0,0.0,0.0,0.0,0.0,0.0,0.0,0.0,0.0,0.0,0.0,0.0,0.0,0.0,0.0,0.0,0.0,0.0,0.0,0.0,0.0,0.0,0.0,0.0,0.0,0.0,0.0,0.0,0.0,0.0,0.0,0.0,0.0,0.0,0.0,0.0,0.0,0.0,0.0,0.0,0.0,0.0,0.0,0.0,0.0,0.0,0.0,0.0,0.0,0.0,0.0,0.0,0.0,0.0,0.0,0.0,0.0,0.0,0.0,0.0,0.0,0.0,0.0,0.0,0.0,0.0,0.0,0.0,0.0,0.0,0.4399,0.467,0.484,0.4857,0.4836,0.4782,0.529,0.5033,0.3691,0.0,0.0,0.0,0.0,0.0,0.0,0.0,0.0,0.0,0.0,0.0,0.0,0.0,0.0,0.0,0.0,0.0,0.0,0.0,0.0,0.0,0.0,0.0,0.0,0.0,0.0,0.0,0.0,0.0,0.0,0.0,0.0,0.0,0.0,0.0,0.0,0.0,0.0,0.0,0.0,0.0,0.0,0.0,0.0,0.0,0.0,0.0,0.0,0.0,0.0,0.0,0.0,0.0,0.0,0.0,0.0,0.0,0.0,0.0,0.0,0.0,0.0,0.0,0.0,0.0,0.0,0.0,0.0,0.0,0.0,0.0,0.0,0.0,0.0,0.0,0.0,0.0,0.0,0.0,0.0,0.0,0.0,0.0,0.0,0.0,0.0,0.0,0.0,0.0,0.0,0.0,0.0,0.0,0.0,0.0,0.0,0.0,0.0,0.0,0.0,0.0,0.0,0.3987,0.4331,0.4568,0.4641,0.4812,0.4904,0.4826,0.5395,0.5255,0.4085,0.0,0.0,0.0,0.0,0.0,0.0,0.0,0.0,0.0,0.0,0.0,0.0,0.0,0.0,0.0,0.0,0.0,0.0,0.0,0.0,0.0,0.0,0.0,0.0,0.0,0.0,0.0,0.0,0.0,0.0,0.0,0.0,0.0,0.0,0.0,0.0,0.0,0.0,0.0,0.0,0.0,0.0,0.0,0.0,0.0,0.0,0.0,0.0,0.0,0.0,0.0,0.0,0.0,0.0,0.0,0.0,0.0,0.0,0.0,0.0,0.0,0.0,0.0,0.0,0.0,0.0,0.0,0.0,0.0,0.0,0.0,0.0,0.0,0.0,0.0,0.0,0.0,0.0,0.0,0.0,0.0,0.0,0.0,0.0,0.0,0.0,0.0,0.0,0.0,0.0,0.0,0.0,0.0,0.0,0.0,0.0,0.0,0.0,0.0,0.0,0.0,0.0,0.3974,0.4129,0.4277,0.4474,0.5109,0.5385,0.5128,0.5481,0.5472,0.0,0.0,0.0,0.0,0.0,0.0,0.0,0.0,0.0,0.0,0.0,0.0,0.0,0.0,0.0,0.0,0.0,0.0,0.0,0.0,0.0,0.0,0.0,0.0,0.0,0.0,0.0,0.0,0.0,0.0,0.0,0.0,0.0,0.0,0.0,0.0,0.0,0.0,0.0,0.0,0.0,0.0,0.0,0.0,0.0,0.0,0.0,0.0,0.0,0.0,0.0,0.0,0.0,0.0,0.0,0.0,0.0,0.0,0.0,0.0,0.0,0.0,0.0,0.0,0.0,0.0,0.0,0.0,0.0,0.0,0.0,0.0,0.0,0.0,0.0,0.0,0.0,0.0,0.0,0.0,0.0,0.0,0.0,0.0,0.0,0.0,0.0,0.0,0.0,0.0,0.0,0.0,0.0,0.0,0.0,0.0,0.0,0.0,0.0,0.0,0.0,0.0,0.0,0.3974,0.4129,0.4277,0.4474,0.5109,0.5385,0.5128,0.5952,0.6021,0.4974,0.0,0.0,0.0,0.0,0.0,0.0,0.0,0.0,0.0,0.0,0.0,0.0,0.0,0.0,0.0,0.0,0.0,0.0,0.0,0.0,0.0,0.0,0.0,0.0,0.0,0.0,0.0,0.0,0.0,0.0,0.0,0.0,0.0,0.0,0.0,0.0,0.0,0.0,0.0,0.0,0.0,0.0,0.0,0.0,0.0,0.0,0.0,0.0,0.0,0.0,0.0,0.0,0.0,0.0,0.0,0.0,0.0,0.0,0.0,0.0,0.0,0.0,0.0,0.0,0.0,0.0,0.0,0.0,0.0,0.0,0.0,0.0,0.0,0.0,0.0,0.0,0.0,0.0,0.0,0.0,0.0,0.0,0.0,0.0,0.0,0.0,0.0,0.0,0.0,0.0,0.0,0.0,0.0,0.0,0.0,0.0,0.0,0.0,0.0,0.0,0.0,0.0,0.3967,0.4075,0.421,0.4467,0.505,0.5312,0.5051,0.6057,0.6293,0.5279,0.0,0.0,0.0,0.0,0.0,0.0,0.0,0.0,0.0,0.0,0.0,0.0,0.0,0.0,0.0,0.0,0.0,0.0,0.0,0.0,0.0,0.0,0.0,0.0,0.0,0.0,0.0,0.0,0.0,0.0,0.0,0.0,0.0,0.0,0.0,0.0,0.0,0.0,0.0,0.0,0.0,0.0,0.0,0.0,0.0,0.0,0.0,0.0,0.0,0.0,0.0,0.0,0.0,0.0,0.0,0.0,0.0,0.0,0.0,0.0,0.0,0.0,0.0,0.0,0.0,0.0,0.0,0.0,0.0,0.0,0.0,0.0,0.0,0.0,0.0,0.0,0.0,0.0,0.0,0.0,0.0,0.0,0.0,0.0,0.0,0.0,0.0,0.0,0.0,0.0,0.0,0.0,0.0,0.0,0.0,0.0,0.0,0.0,0.0,0.0,0.0,0.0,0.3977,0.4014,0.4148,0.446,0.4991,0.5238,0.5043,0.5995,0.6377,0.5856,0.0,0.0,0.0,0.0,0.0,0.0,0.0,0.0,0.0,0.0,0.0,0.0,0.0,0.0,0.0,0.0,0.0,0.0,0.0,0.0,0.0,0.0,0.0,0.0,0.0,0.0,0.0,0.0,0.0,0.0,0.0,0.0,0.0,0.0,0.0,0.0,0.0,0.0,0.0,0.0,0.0,0.0,0.0,0.0,0.0,0.0,0.0,0.0,0.0,0.0,0.0,0.0,0.0,0.0,0.0,0.0,0.0,0.0,0.0,0.0,0.4382,0.0,0.0,0.0,0.0,0.0,0.0,0.0,0.0,0.0,0.0,0.0,0.0,0.0,0.0,0.0,0.0,0.0,0.0,0.0,0.0,0.0,0.0,0.0,0.0,0.0,0.0,0.0,0.0,0.0,0.0,0.0,0.0,0.0,0.0,0.0,0.0,0.0,0.0,0.0,0.0,0.0,0.4136,0.4147,0.424,0.447,0.4991,0.5466,0.5898,0.6345,0.6625,0.6718,0.6066,0.0,0.0,0.0,0.0,0.0,0.0,0.0,0.0,0.0,0.0,0.0,0.0,0.0,0.0,0.0,0.0,0.0,0.0,0.0,0.0,0.0,0.0,0.0,0.0,0.0,0.0,0.0,0.0,0.0,0.0,0.0,0.0,0.0,0.0,0.0,0.0,0.0,0.0,0.0,0.0,0.0,0.0,0.0,0.0,0.0,0.0,0.0,0.0,0.0,0.0,0.0,0.0,0.0,0.0,0.0,0.0,0.0,0.0,0.0,0.0,0.4755,0.0,0.0,0.0,0.0,0.0,0.0,0.0,0.0,0.0,0.0,0.0,0.0,0.0,0.0,0.0,0.0,0.0,0.0,0.0,0.0,0.0,0.0,0.0,0.0,0.0,0.0,0.0,0.0,0.0,0.0,0.0,0.0,0.0,0.0,0.0,0.0,0.0,0.0,0.0,0.0,0.4167,0.4197,0.4277,0.4474,0.4649,0.5046,0.5707,0.6093,0.6527,0.7006,0.6483,0.0,0.0,0.0,0.0,0.0,0.0,0.0,0.0,0.0,0.0,0.0,0.0,0.0,0.0,0.0,0.0,0.0,0.0,0.0,0.0,0.0,0.0,0.0,0.0,0.0,0.0,0.0,0.0,0.0,0.0,0.0,0.0,0.0,0.0,0.0,0.0,0.0,0.0,0.0,0.0,0.0,0.0,0.0,0.0,0.0,0.0,0.0,0.0,0.0,0.0,0.0,0.0,0.0,0.5823,0.5895,0.5959,0.5959,0.5895,0.5769,0.5573,0.5535,0.5572,0.5169,0.0,0.0,0.0,0.0,0.0,0.0,0.0,0.0,0.0,0.0,0.0,0.0,0.0,0.0,0.0,0.0,0.0,0.0,0.0,0.0,0.0,0.0,0.0,0.0,0.4374,0.4677,0.6248,0.0,0.0,0.0,0.0,0.0,0.0,0.0,0.0,0.0,0.0,0.0,0.4143,0.4227,0.4304,0.4477,0.4308,0.4568,0.5453,0.5702,0.619,0.7085,0.6576,0.6259,0.0,0.0,0.0,0.0,0.0,0.0,0.0,0.0,0.0,0.0,0.0,0.0,0.0,0.0,0.0,0.0,0.0,0.0,0.0,0.0,0.0,0.0,0.0,0.0,0.0,0.0,0.0,0.0,0.0,0.0,0.0,0.0,0.4301,0.4626,0.0,0.0,0.0,0.0,0.0,0.0,0.0,0.0,0.0,0.0,0.0,0.0,0.0,0.5772,0.6057,0.6356,0.6468,0.6402,0.6749,0.681,0.6583,0.6583,0.6573,0.6525,0.5979,0.0,0.5595,0.5415,0.0,0.0,0.0,0.0,0.0,0.0,0.0,0.0,0.0,0.0,0.0,0.0,0.0,0.0,0.0,0.0,0.0,0.0,0.0,0.0,0.0,0.0,0.4759,0.5567,0.5108,0.5128,0.0,0.592,0.4385,0.573,0.5322,0.0,0.0,0.0,0.0,0.0,0.0,0.0,0.4038,0.4273,0.4467,0.4487,0.4308,0.4797,0.6313,0.5583,0.569,0.7176,0.6229,0.5664,0.579,0.6579,0.0,0.0,0.0,0.0,0.0,0.0,0.0,0.0,0.0,0.0,0.0,0.0,0.0,0.0,0.0,0.0,0.0,0.0,0.0,0.0,0.0,0.0,0.0,0.0,0.0,0.0,0.0,0.0,0.0,0.4836,0.5015,0.4843,0.5226,0.5325,0.0,0.0,0.0,0.0,0.0,0.0,0.0,0.0,0.0,0.5922,0.6176,0.6332,0.6419,0.6756,0.6956,0.7023,0.7177,0.7248,0.7207,0.7207,0.7207,0.719,0.6926,0.6634,0.6305,0.5813,0.5599,0.5566,0.0,0.0,0.0,0.0,0.4758,0.4853,0.475,0.4762,0.4884,0.4979,0.0,0.0,0.0,0.0,0.0,0.0,0.0,0.0,0.0,0.0,0.4913,0.5397,0.5246,0.5406,0.6852,0.5661,0.4865,0.0,0.6464,0.5716,0.5198,0.0,0.0,0.0,0.0,0.4345,0.4277,0.4409,0.4491,0.4491,0.4433,0.4795,0.5891,0.5531,0.5706,0.6834,0.6268,0.6108,0.6577,0.6983,0.6995,0.0,0.0,0.0,0.0,0.0,0.0,0.0,0.0,0.0,0.0,0.0,0.0,0.0,0.0,0.0,0.0,0.0,0.0,0.0,0.0,0.0,0.0,0.0,0.0,0.0,0.0,0.0,0.0,0.5104,0.5542,0.5138,0.5647,0.5813,0.0,0.0,0.0,0.0,0.0,0.0,0.6017,0.6138,0.6273,0.6387,0.6756,0.6912,0.6875,0.7159,0.7428,0.7543,0.7543,0.76,0.7709,0.7672,0.7655,0.7651,0.7614,0.7411,0.7048,0.6369,0.5983,0.582,0.5847,0.5749,0.5614,0.5494,0.5501,0.5556,0.5481,0.5477,0.5515,0.5552,0.5355,0.5131,0.5053,0.0,0.0,0.0,0.0,0.4737,0.4785,0.4918,0.507,0.5181,0.5335,0.5619,0.623,0.5596,0.5451,0.0,0.7035,0.6221,0.5427,0.0,0.0,0.0,0.0,0.4464,0.4385,0.4443,0.4491,0.4491,0.4491,0.4842,0.5706,0.5464,0.5628,0.6534,0.6032,0.604,0.6805,0.6808,0.6842,0.6974,0.0,0.0,0.0,0.0,0.0,0.0,0.0,0.0,0.0,0.0,0.0,0.0,0.0,0.0,0.0,0.0,0.0,0.0,0.0,0.0,0.0,0.0,0.0,0.0,0.0,0.0,0.0,0.0,0.0,0.5542,0.6207,0.0,0.0,0.0,0.0,0.5956,0.6251,0.6525,0.6647,0.68,0.7078,0.7509,0.7543,0.7685,0.7907,0.7934,0.7948,0.7958,0.7958,0.7961,0.7965,0.7868,0.7801,0.7794,0.7658,0.7587,0.7529,0.7065,0.6698,0.6439,0.6125,0.6098,0.6201,0.5735,0.5755,0.5919,0.5677,0.5667,0.5803,0.5912,0.5888,0.5705,0.5457,0.5361,0.0,0.0,0.5094,0.5317,0.5113,0.5223,0.5409,0.5532,0.5572,0.5813,0.6678,0.6067,0.5722,0.0,0.6299,0.562,0.5729,0.0,0.5373,0.4195,0.4303,0.4385,0.4077,0.4317,0.4491,0.4491,0.4491,0.5062,0.6426,0.5308,0.5144,0.6507,0.5147,0.4699,0.5548,0.547,0.5777,0.6607,0.6754,0.0,0.0,0.0,0.0,0.0,0.0,0.0,0.0,0.0,0.0,0.0,0.0,0.0,0.0,0.0,0.0,0.0,0.0,0.0,0.0,0.0,0.0,0.0,0.0,0.0,0.0,0.0,0.0,0.6166,0.6644,0.0,0.6495,0.6468,0.6468,0.6461,0.6736,0.7014,0.7265,0.7417,0.7614,0.7826,0.7833,0.7884,0.7988,0.7988,0.7988,0.7988,0.7988,0.7988,0.7988,0.7934,0.7911,0.7907,0.7853,0.7828,0.7723,0.7563,0.7261,0.6881,0.6643,0.6583,0.6525,0.6363,0.6369,0.6447,0.6342,0.6213,0.6112,0.5928,0.5844,0.5766,0.5566,0.5572,0.5603,0.5406,0.5494,0.5633,0.5576,0.5603,0.5657,0.5715,0.5725,0.5831,0.6142,0.5849,0.5643,0.6057,0.5975,0.5806,0.5809,0.5801,0.547,0.4475,0.4423,0.445,0.4344,0.4423,0.4491,0.4491,0.4491,0.4708,0.5199,0.4791,0.4708,0.5226,0.4712,0.4946,0.6172,0.5698,0.6016,0.7289,0.6875,0.6357,0.0,0.0,0.0,0.0,0.0,0.0,0.0,0.0,0.0,0.0,0.0,0.0,0.0,0.0,0.0,0.0,0.0,0.0,0.0,0.0,0.0,0.0,0.0,0.0,0.0,0.5962,0.6438,0.6675,0.7092,0.7272,0.7027,0.6956,0.6966,0.7068,0.726,0.7486,0.7736,0.7838,0.7884,0.7985,0.7988,0.7988,0.7988,0.7988,0.7988,0.7988,0.7988,0.7988,0.7988,0.7988,0.7934,0.7847,0.7944,0.7877,0.7746,0.7848,0.7655,0.7237,0.7136,0.7017,0.6922,0.6868,0.6848,0.6841,0.6793,0.6617,0.6405,0.6112,0.5996,0.5939,0.588,0.5881,0.5939,0.588,0.5884,0.5956,0.5956,0.5918,0.5878,0.5878,0.5878,0.5878,0.5878,0.5728,0.5603,0.565,0.5731,0.5716,0.5482,0.5453,0.527,0.4605,0.445,0.4433,0.4484,0.4447,0.4392,0.4392,0.446,0.4598,0.4814,0.4625,0.4598,0.4814,0.4625,0.4928,0.5855,0.541,0.5628,0.6605,0.6178,0.6022,0.6098,0.0,0.0,0.0,0.0,0.0,0.0,0.0,0.0,0.0,0.0,0.0,0.0,0.0,0.0,0.0,0.0,0.0,0.0,0.0,0.0,0.0,0.0,0.0,0.545,0.6407,0.7095,0.7115,0.755,0.7763,0.7628,0.7736,0.7821,0.7824,0.7914,0.7995,0.7995,0.7992,0.7988,0.7982,0.7982,0.7982,0.7982,0.7988,0.7988,0.7988,0.7988,0.7988,0.7988,0.7988,0.7833,0.7631,0.7867,0.783,0.7634,0.7874,0.7872,0.7597,0.7441,0.7419,0.7346,0.7149,0.7095,0.7075,0.693,0.6827,0.6681,0.6569,0.6422,0.6306,0.6313,0.631,0.6306,0.6313,0.6313,0.6313,0.6306,0.6156,0.6003,0.6,0.6,0.6,0.6,0.5806,0.5644,0.5783,0.5607,0.5262,0.4789,0.483,0.4823,0.4556,0.4358,0.0,0.4477,0.4345,0.4207,0.4214,0.4389,0.477,0.5422,0.4877,0.4794,0.5433,0.4869,0.4519,0.4515,0.4543,0.4546,0.457,0.4698,0.5596,0.7278,0.0,0.0,0.0,0.0,0.0,0.0,0.0,0.0,0.0,0.0,0.0,0.0,0.0,0.0,0.0,0.0,0.0,0.0,0.0,0.0,0.0,0.6213,0.6651,0.6651,0.6802,0.7102,0.7577,0.7786,0.7914,0.7874,0.7904,0.8021,0.8136,0.8184,0.8208,0.8208,0.8099,0.7938,0.7879,0.7875,0.7875,0.7875,0.7934,0.7988,0.7988,0.7988,0.7988,0.7988,0.7988,0.7944,0.7874,0.7955,0.7944,0.7877,0.7958,0.7941,0.7843,0.7638,0.74,0.7156,0.7112,0.7095,0.7058,0.6851,0.6807,0.6841,0.6688,0.6536,0.6474,0.6546,0.6542,0.6477,0.6549,0.658,0.6556,0.648,0.6422,0.6325,0.6259,0.6235,0.6235,0.6235,0.6044,0.5885,0.5922,0.5728,0.5487,0.5248,0.5118,0.5012,0.4958,0.4731,0.0,0.4651,0.4525,0.4487,0.4682,0.467,0.4757,0.5045,0.4803,0.4692,0.4767,0.4598,0.4704,0.5218,0.5218,0.5464,0.6018,0.5958,0.6223,0.0,0.0,0.0,0.0,0.0,0.0,0.0,0.0,0.0,0.0,0.0,0.0,0.0,0.0,0.0,0.0,0.0,0.0,0.0,0.0,0.0,0.0,0.68,0.7346,0.7658,0.7479,0.7476,0.7865,0.7934,0.7988,0.7988,0.7988,0.8025,0.8167,0.8235,0.8241,0.8177,0.815,0.8038,0.7818,0.7872,0.7875,0.7811,0.7914,0.7988,0.7988,0.7988,0.7988,0.7988,0.7988,0.7924,0.7862,0.7938,0.7921,0.7865,0.7938,0.7951,0.0,0.0,0.0,0.0,0.0,0.7149,0.7071,0.6903,0.6862,0.6873,0.6824,0.6692,0.6573,0.6597,0.6542,0.6429,0.6413,0.6373,0.6318,0.6295,0.6285,0.6298,0.6378,0.6344,0.6334,0.646,0.6176,0.5973,0.6101,0.5837,0.0,0.5504,0.5274,0.5079,0.5019,0.4843,0.4714,0.4779,0.4682,0.4655,0.4806,0.4802,0.4823,0.4881,0.484,0.0,0.0,0.0,0.4962,0.5609,0.5633,0.0,0.0,0.0,0.6936,0.7224,0.0,0.0,0.0,0.7526,0.7416,0.0,0.0,0.0,0.0,0.0,0.0,0.0,0.0,0.0,0.0,0.0,0.0,0.0,0.0,0.0,0.0,0.7464,0.7774,0.8387,0.8255,0.8032,0.8019,0.8002,0.7988,0.7988,0.7988,0.8005,0.8035,0.8218,0.8241,0.8069,0.0,0.0,0.0,0.0,0.7897,0.7814,0.7914,0.7988,0.7988,0.7988,0.7988,0.7988,0.7988,0.7847,0.7662,0.7877,0.7843,0.7672,0.7884,0.7911,0.7834,0.7801,0.7787,0.775,0.7455,0.7272,0.7119,0.7085,0.0,0.0,0.691,0.6851,0.6705,0.6583,0.6487,0.6351,0.619,0.6057,0.5979,0.6064,0.6094,0.6155,0.6441,0.6429,0.6402,0.6641,0.6254,0.5939,0.6269,0.5972,0.564,0.564,0.5386,0.5103,0.4989,0.484,0.4789,0.4894,0.4809,0.4728,0.4762,0.0,0.0,0.4965,0.4921,0.4908,0.4891,0.4979,0.5329,0.5954,0.6061,0.6369,0.6936,0.7361,0.7812,0.8277,0.8704,0.9192,0.9719,0.8515,0.8608,0.0,0.0,0.0,0.0,0.0,0.0,0.0,0.0,0.0,0.0,0.0,0.0,0.0,0.0,0.0,0.9226,0.8742,0.8319,0.8462,0.8431,0.8353,0.8241,0.8116,0.7988,0.7988,0.7988,0.8089,0.8377,0.8425,0.8482,0.8577,0.8384,0.8184,0.7951,0.7906,0.7841,0.7811,0.7914,0.7988,0.7988,0.0,0.0,0.7988,0.7988,0.7958,0.7907,0.7965,0.7958,0.7911,0.7968,0.7971,0.7921,0.7733,0.7641,0.7604,0.7299,0.7244,0.7292,0.7051,0.6984,0.7055,0.7055,0.6957,0.6859,0.6943,0.6912,0.0,0.6859,0.6862,0.6819,0.6734,0.6711,0.6697,0.6671,0.6539,0.6521,0.6661,0.6424,0.6262,0.6436,0.6169,0.5909,0.5909,0.5698,0.545,0.5334,0.5145,0.5026,0.5056,0.4931,0.4969,0.5238,0.5148,0.5138,0.53,0.5162,0.5009,0.4894,0.5574,0.6267,0.6993,0.7675,0.8398,0.9079,0.9193,0.9282,0.9392,0.9484,0.9693,1.0027,0.9765,0.9771,0.0,0.0,0.0,0.0,0.0,0.0,0.0,0.0,0.0,0.0,0.0,1.1308,1.1432,0.0,0.9643,1.0028,0.9199,0.8533,0.8689,0.8577,0.8428,0.834,0.8133,0.7988,0.7988,0.7988,0.8133,0.836,0.8442,0.8516,0.8591,0.853,0.8353,0.7998,0.8041,0.7967,0.7814,0.7914,0.7988,0.7988,0.7988,0.7988,0.7988,0.7988,0.7988,0.7988,0.7988,0.7988,0.7988,0.7988,0.7988,0.7975,0.783,0.7773,0.7689,0.7533,0.7478,0.7455,0.7227,0.7197,0.7244,0.7122,0.7048,0.6991,0.6991,0.6886,0.6814,0.6807,0.6756,0.6702,0.6702,0.6702,0.6719,0.6797,0.6698,0.6647,0.6871,0.6688,0.6525,0.6671,0.6458,0.6227,0.6159,0.5959,0.5735,0.5542,0.5345,0.5247,0.5247,0.5186,0.5228,0.5378,0.5324,0.5277,0.5388,0.5324,0.5406,0.5765,0.6195,0.6923,0.8001,0.8459,0.907,0.99,0.99,0.9973,1.0151,1.0151,1.0231,1.0341,1.0341,1.0341,0.0,0.0,0.0,0.0,0.0,0.0,0.0,1.2025,1.2621,1.308,1.2981,1.2985,1.3464,1.1856,1.0569,1.0799,0.9812,0.8962,0.8862,0.8869,0.8737,0.834,0.8133,0.8002,0.8032,0.8032,0.816,0.8343,0.8462,0.854,0.857,0.8632,0.8499,0.8086,0.8191,0.8106,0.7858,0.7928,0.7988,0.7988,0.7988,0.7988,0.7988,0.7988,0.7988,0.7988,0.7988,0.7988,0.7988,0.7988,0.7988,0.7988,0.7988,0.7914,0.7851,0.7821,0.774,0.7617,0.7468,0.7443,0.7395,0.7224,0.7122,0.7082,0.6997,0.6929,0.6803,0.6723,0.6603,0.6535,0.658,0.6603,0.6664,0.6869,0.6854,0.6817,0.7038,0.6909,0.6746,0.6856,0.6705,0.6511,0.6364,0.6176,0.5966,0.564,0.5518,0.5429,0.5399,0.5395,0.5395,0.5395,0.5395,0.5395,0.5395,0.5395,0.5785,0.6654,0.685,0.755,0.8852,0.9057,0.9469,1.017,1.02,1.0347,1.0673,1.0673,1.0673,1.0673,1.0673,1.0646,1.07,1.0007,0.971,1.0976,1.1342,1.1516,0.0,1.3383,1.4344,1.325,1.4275,1.5411,1.5477,1.4643,1.361,1.271,1.1558,1.0303,0.8909,0.9584,0.9713,0.8439,0.8133,0.8092,0.8231,0.8245,0.836,0.8638,0.8676,0.8743,0.8824,0.8645,0.8482,0.8435,0.8194,0.7998,0.7965,0.7982,0.7988,0.7988,0.7988,0.7988,0.7988,0.7988,0.7988,0.7988,0.7988,0.7988,0.7988,0.7988,0.7988,0.7988,0.7988,0.7978,0.7948,0.7862,0.7801,0.7767,0.7624,0.7485,0.7412,0.7353,0.7251,0.7119,0.7285,0.7354,0.7337,0.732,0.7303,0.7221,0.7095,0.7021,0.7031,0.7065,0.6964,0.6903,0.7061,0.6909,0.6746,0.6856,0.6793,0.6627,0.6515,0.6368,0.6126,0.5654,0.5576,0.5549,0.5412,0.5395,0.5395,0.5395,0.5395,0.5395,0.5395,0.5395,0.5785,0.6654,0.7437,0.8275,0.9195,0.9996,1.0445,1.0546,1.0546,1.0687,1.0949,1.0949,1.0949,1.0949,1.0949,1.0841,1.0673,1.1169,1.1788,1.1917,1.2719,1.3519,1.3487,1.4257,1.4887,1.4463,1.5173,1.5879,1.6052,1.5052,1.3829,1.296,1.2322,1.1208,0.9026,1.0403,1.0792,0.8412,0.8682,0.8792,0.817,0.8136,0.8258,0.8557,0.8577,0.8682,0.8871,0.8818,0.8665,0.8486,0.836,0.8214,0.7992,0.7988,0.7988,0.7988,0.7988,0.7988,0.7988,0.7988,0.7988,0.7988,0.7988,0.7988,0.7988,0.7988,0.7988,0.7988,0.7988,0.7988,0.7982,0.7917,0.7894,0.7874,0.7773,0.7682,0.7597,0.7473,0.7387,0.7404,0.7377,0.7434,0.7485,0.7443,0.7415,0.7402,0.7292,0.7275,0.7275,0.7275,0.7231,0.7177,0.7102,0.7001,0.693,0.6997,0.6893,0.6814,0.6749,0.6539,0.633,0.6057,0.5827,0.5661,0.5545,0.5528,0.5528,0.5528,0.5446,0.5433,0.5521,0.5903,0.6527,0.7405,0.8291,0.9134,1.0015,1.0561,1.0767,1.0593,1.0928,1.1042,1.0995,1.1162,1.1243,1.1243,1.1243,1.1182,1.1042,1.2011,1.2954,1.2832,1.3768,1.473,1.4756,1.5057,1.543,1.5591,1.5805,1.6039,1.6339,1.5399,1.4317,1.3513,1.3314,1.2464,1.0106,1.1406,1.1701,0.9235,0.9461,0.9416,0.844,0.8135,0.818,0.852,0.8547,0.8659,0.8868,0.8844,0.8774,0.8554,0.8506,0.8381,0.8163,0.816,0.8143,0.8102,0.8102,0.8029,0.7988,0.7988,0.7988,0.7988,0.7988,0.7988,0.7988,0.7988,0.7988,0.7988,0.7988,0.7988,0.7988,0.7988,0.7988,0.7975,0.7913,0.7845,0.777,0.7516,0.7509,0.758,0.7468,0.7539,0.7634,0.7526,0.7492,0.7485,0.7444,0.7434,0.7434,0.7434,0.7446,0.7343,0.7227,0.7388,0.7577,0.7577,0.7788,0.7826,0.7443,0.7239,0.6932,0.6424,0.6166,0.5905,0.5677,0.5613,0.5576,0.5532,0.5463,0.544,0.5552,0.6244,0.7101,0.8048,0.8846,0.9757,1.0788,1.0922,1.0929,1.0834,1.1209,1.1363,1.1236,1.1443,1.155,1.155,1.155,1.1503,1.1944,1.1877,1.1868,1.3607,1.4075,1.4335,1.5177,1.5818,1.6239,1.6295,1.6301,1.6346,1.664,1.6453,1.5946,1.5056,1.4925,1.4366,1.2684,1.2546,1.2299,1.1497,1.0473,0.9647,0.9283,0.8493,0.8174,0.8669,0.8703,0.8771,0.8875,0.8798,0.8713,0.8703,0.856,0.8479,0.8469,0.8469,0.8397,0.8313,0.8313,0.8184,0.7988,0.7988,0.7988,0.7988,0.7988,0.7988,0.7988,0.7988,0.7988,0.7988,0.7988,0.7988,0.7988,0.7988,0.7988,0.7988,0.7985,0.7887,0.7787,0.7641,0.7597,0.76,0.7594,0.7692,0.7804,0.7797,0.7797,0.7767,0.7628,0.7594,0.7594,0.7594,0.7478,0.7415,0.7412,0.818,0.8846,0.8846,0.9744,1.0105,0.8849,0.8641,0.8134,0.671,0.6497,0.633,0.585,0.5674,0.5535,0.5419,0.5399,0.5395,0.5402,0.6207,0.7193,0.8332,0.8973,0.9923,1.1308,1.1136,1.1122,1.1362,1.1382,1.1563,1.1879,1.1886,1.1893,1.1893,1.1893,1.1703,1.1483,1.2438,1.3581,1.3981,1.4669,1.5317,1.5618,1.5838,1.5925,1.5732,1.4852,1.4066,1.4014,1.3193,1.2533,1.256,1.2779,1.2811,1.2395,1.3129,1.287,1.0619,1.0801,1.0351,0.8497,0.8018,0.8035,0.8391,0.8506,0.8669,0.8868,0.8834,0.8815,0.8713,0.8662,0.8584,0.8482,0.8482,0.8459,0.8411,0.8368,0.8292,0.833,0.8235,0.8194,0.8194,0.8194,0.8133,0.7988,0.7988,0.7988,0.7988,0.7988,0.7988,0.7988,0.7988,0.7988,0.7988,0.7988,0.7958,0.7887,0.7787,0.7807,0.7872,0.777,0.7845,0.7891,0.7838,0.7811,0.7801,0.7753,0.774,0.774,0.774,0.7699,0.7638,0.7543,0.8479,0.9291,0.9291,1.0171,1.0543,0.9292,0.8858,0.8188,0.6717,0.6217,0.5973,0.582,0.5589,0.5528,0.5637,0.5511,0.5782,0.673,0.743,0.8304,0.9468,1.0261,1.0913,1.1382,1.1523,1.153,1.1395,1.1775,1.1964,1.1906,1.2064,1.2158,1.2158,1.2158,1.2104,1.2078,1.3287,1.4549,1.4676,1.5271,1.5784,1.5784,1.5752,1.5531,1.503,1.42,1.3275,1.2369,1.1592,1.1107,1.1361,1.1934,1.251,1.2964,1.376,1.3739,1.2314,1.1965,1.1202,0.9429,0.8957,0.857,0.8228,0.837,0.8591,0.8845,0.8854,0.8916,0.8869,0.8869,0.8798,0.8648,0.8645,0.8618,0.856,0.8414,0.8367,0.8404,0.8364,0.8211,0.8109,0.8163,0.8099,0.7914,0.7968,0.7988,0.7988,0.7988,0.7988,0.7988,0.7988,0.7988,0.7988,0.7988,0.7988,0.7965,0.7862,0.7916,0.7961,0.7858,0.7919,0.7968,0.7919,0.7892,0.7892,0.7892,0.7892,0.7892,0.7892,0.7851,0.7773,0.7631,0.8563,0.9549,0.998,1.059,1.0766,1.0055,0.884,0.7643,0.6702,0.6173,0.5881,0.5881,0.5718,0.565,0.5786,0.5633,0.6047,0.7328,0.8084,0.8992,1.019,1.0994,1.1489,1.1695,1.1824,1.183,1.1702,1.2111,1.2211,1.2024,1.2211,1.2305,1.2305,1.2305,1.2305,1.3627,1.4335,1.4783,1.5571,1.5784,1.5771,1.5792,1.5545,1.5084,1.4222,1.4159,1.3694,1.1768,1.154,1.1605,1.1516,1.2351,1.3346,1.4339,1.4388,1.4752,1.5865,1.3808,1.2109,1.1771,1.087,0.97,0.8132,0.0,0.8574,0.8737,0.8882,0.9025,0.9217,0.9214,0.9086,0.8895,0.8888,0.8811,0.872,0.8567,0.8428,0.8354,0.834,0.8126,0.7865,0.7944,0.7921,0.7845,0.7934,0.7988,0.7988,0.7988,0.7988,0.7988,0.7988,0.7988,0.7988,0.7988,0.7988,0.7965,0.7872,0.7874,0.7965,0.7868,0.7923,0.7988,0.7988,0.7988,0.7988,0.7988,0.7988,0.7988,0.7988,0.788,0.7787,0.7651,0.8543,0.9688,1.09,1.098,1.087,1.1078,0.8653,0.6702,0.6702,0.6325,0.6,0.5993,0.5986,0.5929,0.5827,0.5839,0.6301,0.7308,0.8186,0.9273,1.0605,1.1169,1.1688,1.2278,1.2074,1.206,1.2298,1.2305,1.2305,1.2305,1.2305,1.2305,1.2305,1.2305,1.2305,1.3961,1.4776,1.5505,1.5724,1.5784,1.5718,1.5284,1.479,1.4235,1.3574,1.2182,1.0926,1.0398,0.9155,0.8953,1.1281,1.0969,1.1318,1.3863,1.4657,1.4276,1.2353,1.2655,1.2139,0.9873,0.9595,0.9247,0.0,0.8716,0.8937,0.9195,0.9245,0.9286,0.932,0.9268,0.919,0.91,0.8991,0.8865,0.8824,0.8726,0.8693,0.876,0.8533,0.8448,0.8472,0.8289,0.8191,0.8147,0.8072,0.7988,0.7988,0.7988,0.7988,0.7988,0.7988,0.7988,0.7988,0.7988,0.7988,0.7982,0.7944,0.7958,0.7982,0.7944,0.7958,0.7988,0.7988,0.7988,0.7988,0.7988,0.7988,0.7988,0.7988,0.7961,0.7921,0.7887,0.8893,1.0176,1.1464,1.1512,1.1272,1.1153,0.8653,0.6702,0.6702,0.6417,0.6159,0.6006,0.5928,0.5888,0.5925,0.6548,0.7434,0.8686,0.9592,1.0611,1.1799,1.1972,1.2144,1.2291,1.2231,1.2225,1.2305,1.2305,1.2305,1.2305,1.2305,1.2305,1.2305,1.2305,1.2305,1.4783,1.5518,1.6186,1.6052,1.5925,1.5598,1.493,1.4315,1.3614,1.2594,1.1537,1.0495,0.9574,0.8238,0.8004,1.0282,1.0091,1.0512,1.2807,1.4048,1.404,1.2166,1.266,1.2365,1.0223,1.0156,0.9884,0.9169,0.9059,0.9106,0.933,0.9344,0.9381,0.9381,0.9364,0.9347,0.921,0.9072,0.9001,0.8881,0.8852,0.8784,0.8733,0.8628,0.8486,0.8313,0.0,0.8194,0.8069,0.8048,0.7988,0.7988,0.7988,0.7988,0.7988,0.7988,0.7988,0.7988,0.7988,0.7988,0.7988,0.7988,0.7988,0.7988,0.7988,0.7988,0.7988,0.7988,0.7988,0.7988,0.7988,0.8432,0.8726,0.8137,0.8432,0.8707,0.8052,0.8526,0.9461,1.0546,1.1165,1.1217,1.0283,0.8287,0.6776,0.6712,0.6542,0.6493,0.6749,0.635,0.622,0.6719,0.7232,0.8171,0.983,1.0401,1.1162,1.2218,1.2305,1.2305,1.2305,1.2305,1.2305,1.2305,1.2305,1.2305,1.2305,1.2305,1.2305,1.2305,1.2305,1.2305,1.5738,1.6286,1.664,1.6346,1.6019,1.5531,1.4572,1.3813,1.2907,1.1509,1.1423,1.1053,0.9253,0.8378,0.8313,0.9501,0.9995,1.0592,1.1682,1.3254,1.4008,1.3327,1.3227,1.2844,1.198,1.1705,1.1081,1.0038,0.9507,0.9299,0.9299,0.9367,0.9422,0.9384,0.949,0.9412,0.9183,0.918,0.9062,0.8885,0.8885,0.8801,0.8547,0.8638,0.8404,0.7943,0.815,0.8099,0.7879,0.7944,0.7988,0.7988,0.7988,0.7988,0.7988,0.7988,0.7988,0.7988,0.7988,0.7988,0.7988,0.7988,0.7988,0.7988,0.7988,0.7988,0.7988,0.7988,0.7988,0.8038,0.8237,0.9118,0.9752,0.8775,0.9262,0.9661,0.8351,0.8336,0.8732,0.9447,1.074,1.1232,0.9684,0.8155,0.7087,0.6968,0.6691,0.6813,0.7693,0.7022,0.6868,0.7897,0.8122,0.8912,1.0634,1.0938,1.1354,1.2224,1.2305,1.2305,1.2305,1.2305,1.2305,1.2305,1.2305,1.2305,1.2305,1.2305,1.2305,1.2305,1.2305,1.2305,1.6106,1.6446,1.664,1.6346,1.5872,1.5177,1.4013,1.2727,1.1495,1.0548,1.0194,0.997,0.961,0.9357,0.9765,1.1498,1.1735,1.1697,1.1576,1.3534,1.4266,1.2357,1.3141,1.3953,1.4045,1.2682,1.1732,1.1739,1.0448,0.9703,0.9703,0.973,0.9632,0.9388,0.9344,0.915,0.8977,0.8977,0.8908,0.8885,0.8885,0.8854,0.8797,0.8625,0.8533,0.8537,0.8218,0.0,0.8184,0.8079,0.7988,0.7988,0.7988,0.7988,0.7988,0.7988,0.7988,0.7988,0.7988,0.7988,0.7988,0.7988,0.7988,0.7988,0.7988,0.7988,0.7988,0.7988,0.7988,0.8237,0.9361,0.9801,1.0194,1.1023,1.0583,0.994,0.9665,1.0458,1.1187,1.1119,1.2094,1.2744,1.2214,1.0034,0.8333,0.8148,0.7207,0.6813,0.7693,0.7629,0.7936,0.8922,0.9777,1.0409,1.0783,1.1545,1.2114,1.2298,1.2305,1.2305,1.2305,1.2305,1.2305,1.2305,1.2305,1.2305,1.2305,1.2305,1.2305,1.2305,1.2305,1.2305,1.646,1.6941,1.7255,1.6647,1.5832,1.4863,1.3687,1.2265,1.0949,1.0074,0.99,0.9866,0.9713,0.935,0.9635,1.1537,1.1219,1.1039,1.185,1.3217,1.3784,1.2823,1.3595,1.4346,1.4584,1.3633,1.2831,1.226,1.1355,1.0512,0.9815,0.9676,0.9873,1.0466,1.0353,1.0615,1.1309,1.1402,1.1021,1.0025,1.0164,0.9735,0.8818,0.875,0.8632,0.8472,0.833,0.8531,0.8874,0.8374,0.8411,0.8762,0.8296,0.8109,0.7988,0.7988,0.7988,0.7988,0.7988,0.7988,0.7988,0.7988,0.7988,0.7988,0.7988,0.7988,0.7988,0.7988,0.8478,0.9167,0.985,1.1019,1.1989,1.1896,1.1409,1.0974,1.0974,1.2042,1.28,1.2382,1.278,1.3036,1.263,1.0836,0.9289,0.8647,0.8388,0.836,0.864,0.9193,0.9691,1.0056,1.0527,1.1013,1.1539,1.2033,1.2305,1.2305,1.2305,1.2305,1.2305,1.2305,1.2305,1.2305,1.2305,1.2305,1.2305,1.2305,1.2385,1.2569,1.2569,1.2569,1.684,1.7408,1.7762,1.6994,1.5825,1.4563,1.3387,1.1917,1.0555,0.9673,0.9679,0.9786,0.9619,0.9163,0.9393,1.1049,1.0526,1.0466,1.2046,1.2866,1.3445,1.3938,1.4504,1.5051,1.5591,1.5035,1.4112,1.2795,1.2162,1.1375,1.035,1.0096,1.0632,1.2055,1.1977,1.2436,1.3618,1.3795,1.3126,1.1654,1.1819,1.0953,0.9241,0.9603,0.9437,0.8877,0.9183,0.9641,0.0,0.9114,0.9045,0.9526,0.8661,0.8177,0.7988,0.7988,0.7988,0.7988,0.7988,0.7988,0.7988,0.7988,0.7988,0.7988,0.7988,0.8187,0.8432,0.8432,0.9361,1.0485,1.0774,1.2372,1.3632,1.2576,1.2334,1.2237,1.1945,1.2958,1.372,1.3111,1.3302,1.341,1.2771,1.153,1.0375,0.9536,0.9754,1.0014,0.9992,1.0757,1.1287,1.1239,1.1161,1.1428,1.2224,1.2305,1.2325,1.2392,1.2338,1.2331,1.2392,1.2398,1.2365,1.2305,1.2365,1.2365,1.2305,1.2305,1.2452,1.2784,1.2784,1.2817,1.7281,1.7562,1.7542,1.7246,1.5825,1.4255,1.3086,1.1456,0.9947,0.9072,0.8911,0.8998,0.9211,0.9442,0.992,1.0889,1.1135,1.1408,1.1863,1.2808,1.4027,1.5484,1.6038,1.7038,1.8803,1.7323,1.5754,1.4465,1.2754,1.1845,1.1964,1.1841,1.2489,1.4061,1.3951,1.3891,1.4061,1.3826,1.3603,1.3452,1.3217,1.2358,1.0912,1.2084,1.1923,1.0706,1.1661,1.2074,0.0,1.0604,1.0,0.9846,0.8755,0.8177,0.7988,0.7988,0.7988,0.7988,0.7988,0.7988,0.7988,0.7988,0.7988,0.7988,0.7988,0.8874,0.9805,0.9805,1.073,1.1994,1.3247,1.3728,1.3878,1.3734,1.3734,1.3392,1.2139,1.2958,1.372,1.3111,1.3986,1.4637,1.4054,1.2923,1.2047,1.1827,1.097,1.062,1.1416,1.1587,1.1882,1.2541,1.2346,1.2187,1.2298,1.2305,1.2418,1.2723,1.2489,1.2425,1.273,1.2744,1.2616,1.2305,1.2603,1.261,1.2305,1.2305,1.2452,1.2784,1.2784,1.2938,1.6553,1.7315,1.7702,1.7048,1.5558,1.4001,1.3006,1.1263,0.9659,0.8951,0.8918,0.9024,0.8964,0.9078,0.9446,1.0321,1.012,1.0365,1.1928,1.2835,1.4069,1.6151,1.6968,1.794,1.9241,1.8505,1.7328,1.5851,1.4189,1.3771,1.4994,1.3849,1.3886,1.5483,1.5445,1.585,1.6714,1.6666,1.608,1.5026,1.4931,1.3995,1.2453,1.2954,1.2786,1.2173,1.2397,1.282,0.0,1.1909,1.1663,1.1864,1.0154,0.9365,0.9118,0.8287,0.7988,0.7988,0.7988,0.8531,0.9069,0.8283,0.8528,0.9069,0.8237,0.8924,0.9998,0.9998,1.1502,1.3247,1.3776,1.4459,1.5045,1.5045,1.5045,1.4902,1.437,1.4657,1.493,1.4542,1.4754,1.4874,1.4422,1.3656,1.2893,1.2301,1.226,1.2211,1.1858,1.2428,1.2899,1.3014,1.279,1.2536,1.2318,1.2465,1.2583,1.2485,1.2712,1.2819,1.279,1.2965,1.2973,1.2852,1.2966,1.2918,1.2603,1.2759,1.2913,1.3026,1.3206,1.3353,1.5692,1.6687,1.7368,1.6734,1.519,1.3594,1.2712,1.0975,0.9412,0.8911,0.8871,0.8944,0.8911,0.8864,0.9092,0.9943,0.9599,0.992,1.2011,1.2899,1.4082,1.6079,1.7174,1.8083,1.8898,1.8612,1.7874,1.6749,1.5572,1.5522,1.6891,1.5903,1.5868,1.7164,1.7227,1.7698,1.8751,1.8577,1.7867,1.6649,1.6483,1.5504,1.3811,1.4362,1.3954,1.2919,1.3537,1.368,0.0,1.3104,1.298,1.2896,1.1466,1.0552,0.9948,0.9361,0.892,0.8627,0.9019,0.9752,1.0342,0.9019,0.9217,0.9752,0.8382,0.8924,1.0096,1.0435,1.2474,1.4459,1.4459,1.5146,1.5784,1.5784,1.5784,1.5784,1.5784,1.5784,1.5745,1.5451,1.5164,1.4914,1.4569,1.4059,1.3544,1.2911,1.3345,1.3472,1.2659,1.3258,1.362,1.3367,1.3146,1.2893,1.2599,1.2766,1.2864,1.2705,1.3019,1.3153,1.3052,1.322,1.33,1.3213,1.3293,1.3193,1.2924,1.3106,1.3253,1.3307,1.3507,1.3646,1.478,1.5671,1.6335,1.6328,1.4736,1.2986,1.212,1.0514,0.9131,0.8871,0.8577,0.8557,0.9104,0.8978,0.9092,0.9943,1.0077,1.0589,1.2091,1.3034,1.4033,1.5271,1.6496,1.7395,1.7949,1.7389,1.702,1.702,1.6663,0.0,1.6956,1.7931,1.8758,1.9339,1.9359,1.9359,1.9417,1.8784,1.849,1.8477,1.7876,1.6682,1.5047,1.6754,1.5722,1.2751,1.5469,1.5103,0.0,1.4033,1.3634,1.2234,1.2501,1.1524,1.0145,1.1409,1.1072,1.0145,1.1414,1.1853,1.1653,1.0391,0.9998,0.9752,0.8382,0.8924,1.0243,1.1512,1.374,1.5784,1.5784,1.5778,1.5784,1.5784,1.5784,1.5784,1.5784,1.5784,1.5745,1.5451,1.5164,1.4914,1.4569,1.4275,1.4082,1.4088,1.4082,1.4082,1.4082,1.4082,1.3968,1.3626,1.3593,1.3473,1.3227,1.32,1.3327,1.3573,1.3327,1.334,1.358,1.3593,1.346,1.322,1.3453,1.3453,1.3206,1.3213,1.336,1.36,1.36,1.376,1.2906,1.3794,1.4376,1.401,1.3112,1.2094,1.1209,1.0074,0.9131,0.8871,0.8738,0.8731,0.8884,0.8704,0.8958,1.0244,1.0247,1.0701,1.2409,1.338,1.4456,1.5832,1.7628,1.8818,0.0,0.0,1.8378,1.8629,1.832,1.8282,1.8629,1.87,1.8965,1.9417,1.8978,1.8865,1.9058,1.8477,1.8135,1.8129,1.7776,1.7213,1.6517,1.708,1.66,1.5456,1.614,1.606,0.0,1.5422,1.5229,1.4924,1.41,1.343,1.2925,1.2641,1.2249,1.1971,1.2178,1.2319,1.2138,1.0524,1.0078,0.9858,0.8414,0.8924,1.0485,1.2668,1.4513,1.5784,1.5784,1.5784,1.5784,1.5784,1.5784,1.5784,1.5784,1.5784,1.5751,1.5712,1.5458,1.5231,1.513,1.4877,1.466,1.4416,1.4382,1.4309,1.4115,1.4088,1.4048,1.3955,1.3948,1.3748,1.3253,1.3353,1.342,1.3313,1.3634,1.3761,1.3606,1.3841,1.3901,1.3814,1.3901,1.3801,1.3467,1.3707,1.3854,1.3948,1.3948,1.4001,1.1506,1.2291,1.2886,1.2549,1.1926,1.1236,1.0573,0.9626,0.8864,0.8684,0.8731,0.8738,0.8492,0.8597,0.8998,0.9913,1.0094,1.0695,1.2382,1.3487,1.4716,1.6455,1.7943,0.0,0.0,1.9172,1.9165,1.9352,1.9199,1.9172,1.9417,1.8985,1.8898,1.9192,1.8738,1.8577,1.8758,1.8229,1.7995,1.7989,1.7622,1.732,1.7032,1.7032,1.6502,1.5665,1.6097,0.0,0.0,1.5696,1.5761,1.5428,1.5276,1.4844,1.4289,1.4302,1.3987,1.3507,1.326,1.3247,1.3011,1.0828,1.018,1.0129,0.9607,1.0047,1.1165,1.3295,1.4806,1.5784,1.5784,1.5784,1.5784,1.5784,1.5784,1.5784,1.5784,1.5784,1.5784,1.5784,1.5591,1.5398,1.5398,1.5202,1.4948,1.4716,1.4689,1.4623,1.4442,1.4422,1.4376,1.4262,1.4249,1.4055,1.3581,1.3707,1.3734,1.3554,1.3888,1.4008,1.3814,1.3988,1.4088,1.4088,1.4088,1.3995,1.3808,1.4001,1.4088,1.4088,1.4088,1.4328,0.0,1.1114,1.1755,1.1685,1.1075,1.0392,1.006,0.9152,0.0,0.8402,0.8604,0.8664,0.8152,0.8725,0.9304,0.9411,0.9884,1.0768,1.2198,1.348,1.4997,1.6998,1.7749,0.0,1.847,1.9025,1.9424,1.9424,1.941,1.9332,1.9332,1.8778,1.8584,1.8851,1.8557,1.8417,1.8457,1.8143,1.7929,1.7922,1.7395,1.7012,1.6673,1.6673,1.5708,0.0,0.0,0.0,0.0,1.5194,1.5452,1.4444,1.6082,1.5769,1.4671,1.619,1.6042,1.4955,1.4626,1.4587,1.4191,1.1428,1.0459,1.056,1.1712,1.2042,1.2285,1.3542,1.4806,1.5784,1.5784,1.5784,1.5784,1.5784,1.5784,1.5784,1.5784,1.5784,1.5784,1.5784,1.5611,1.5431,1.5431,1.5204,1.5062,1.5042,1.5042,1.5028,1.5015,1.5008,1.4901,1.4583,1.4556,1.4436,1.4142,1.4095,1.4088,1.4088,1.4088,1.4095,1.4115,1.4122,1.4128,1.4148,1.4148,1.4128,1.4088,1.4108,1.4108,1.4088,1.4088,1.465,0.9574,0.0,1.0179,0.9662,0.9372,0.9145,0.0,0.8596,0.8402,0.8402,0.8604,0.8971,0.9477,0.9744,1.0243,1.1403,1.1697,1.2151,1.314,1.4923,1.644,1.7368,1.841,1.8905,1.8531,1.9025,1.9424,1.9424,1.9158,1.9025,1.9025,1.847,1.8129,1.8195,1.7742,1.7689,1.8089,1.7622,1.7414,1.7355,1.6987,1.666,1.6373,1.6373,1.602,0.0,0.0,0.0,1.5354,1.5779,1.5866,1.5846,1.6437,1.6454,1.6253,1.7078,1.7212,1.6756,1.5381,1.5018,1.4855,1.2755,1.1831,1.1717,1.3022,1.344,1.3488,1.383,1.4806,1.5784,1.5784,1.5784,1.5784,1.5784,1.5784,1.5784,1.5784,1.5784,1.5784,1.5784,1.5724,1.5732,1.5732,1.5671,1.5551,1.5331,1.5297,1.5217,1.5035,1.5008,1.4981,1.4914,1.4863,1.4736,1.4442,1.4215,1.4088,1.4088,1.4088,1.4188,1.4409,1.4422,1.4529,1.4794,1.48,1.4579,1.4088,1.4309,1.4302,1.4088,1.4088,1.465,0.9242,0.933,0.9635,0.9302,0.9005,0.8798,0.8778,0.8457,0.817,0.817,0.851,0.8911,0.9252,0.9753,1.0461,1.153,1.1931,1.2652,1.4229,1.5752,1.6981,1.7709,1.849,1.8891,0.0,1.9098,1.9312,1.9172,1.9018,1.8865,1.8731,1.8235,1.7995,1.7995,1.7462,1.736,1.7629,1.7174,1.6947,1.6991,1.6647,1.6426,1.6266,1.6132,1.5979,0.0,0.0,0.0,1.6046,1.5752,1.5805,1.6099,1.6393,1.6506,1.658,1.7168,1.7301,1.691,1.4775,1.3672,1.3053,1.2557,1.2639,1.3155,1.44,1.4752,1.4752,1.4752,1.5289,1.5784,1.5784,1.5784,1.5784,1.5784,1.5784,1.5784,1.5784,1.5784,1.5784,1.5784,1.5784,1.5784,1.5784,1.5784,1.5724,1.5618,1.5591,1.5538,1.5384,1.5357,1.5311,1.5223,1.5164,1.5044,1.475,1.4583,1.4429,1.4295,1.4416,1.4496,1.4522,1.4522,1.4596,1.4756,1.4763,1.4669,1.4489,1.4649,1.4643,1.4489,1.4489,1.5067,0.9506,0.9437,0.9766,0.9656,0.9205,0.8884,0.9144,0.8571,0.7999,0.8085,0.8538,0.8918,0.8878,0.976,1.0708,1.1303,1.1964,1.3173,1.5357,1.638,1.7168,1.7836,1.8364,0.0,1.8711,1.9072,1.9178,1.8878,1.8811,1.8684,1.8437,1.8096,1.7856,1.7856,1.7328,1.7065,1.7065,1.6767,1.664,1.664,1.6346,1.6206,1.6192,1.5945,1.5784,1.5764,0.0,0.0,1.5764,1.5565,1.5605,1.5811,1.6159,1.6321,1.6388,1.6931,1.6846,1.6131,1.38,1.1874,1.0626,1.2028,1.3237,1.427,1.5462,1.5784,1.5784,1.5784,1.5784,1.5784,1.5784,1.5784,1.5784,1.5784,1.5784,1.5784,1.5784,1.5784,1.5784,1.5784,1.5784,1.5784,1.5784,1.5784,1.5784,1.5784,1.5784,1.5784,1.5784,1.5784,1.5684,1.5491,1.5464,1.5344,1.5102,1.5115,1.497,1.4676,1.485,1.487,1.4663,1.4696,1.4696,1.4656,1.4696,1.4796,1.5008,1.5055,1.5055,1.5008,1.5008,1.5562,1.0753,1.0756,1.047,0.9528,0.9031,0.8884,0.9144,0.8758,0.8444,0.8911,0.9312,0.984,1.0782,1.1717,1.2576,1.31,1.4148,1.5331,0.0,0.0,1.7776,1.7669,0.0,1.8851,1.7883,1.8517,1.8871,1.8577,1.8323,1.8109,1.8062,1.7589,1.734,1.734,1.6764,1.6455,1.6455,1.6415,1.6339,1.6382,1.6039,1.5899,1.5899,1.5804,1.5784,1.5778,0.0,1.5744,1.5778,1.5785,1.5744,1.5811,1.6159,1.6321,1.6362,1.6647,1.6119,1.5034,1.354,1.1775,1.0652,1.3171,1.3967,1.4172,1.5404,1.5784,1.5784,1.5784,1.5784,1.5784,1.5784,1.5784,1.5784,1.5784,1.5784,1.5784,1.5784,1.5784,1.5784,1.5784,1.5784,1.5784,1.5784,1.5784,1.5784,1.5784,1.5784,1.5784,1.5784,1.5784,1.5764,1.5718,1.5718,1.5645,1.5351,1.5558,1.5571,1.5277,1.5122,1.5102,1.5251,1.5498,1.5511,1.5264,1.5504,1.5411,1.5008,1.5211,1.5204,1.5008,1.5008,1.5562,1.0464,1.0466,1.0337,0.9979,0.9684,0.9593,0.9886,0.9499,0.9273,0.9833,1.009,1.0414,1.1235,1.2017,1.2966,1.4362,1.5712,1.6714,1.7146,1.7515,1.7796,0.0,0.0,1.8677,1.813,1.8591,1.8738,1.8283,1.8069,1.7849,1.7582,1.7353,1.7125,1.6914,1.6543,1.6321,1.6321,1.6112,1.6032,1.6032,1.5844,1.5784,1.5784,1.5784,1.5784,1.5771,0.0,1.5685,1.5771,1.5658,1.5691,1.5798,1.5979,1.6032,1.6052,1.6186,1.5109,1.348,1.2688,1.1413,1.0319,1.1549,1.2851,1.4022,1.4609,1.5242,1.5784,1.5784,1.5784,1.5784,1.5784,1.5784,1.5784,1.5784,1.5784,1.5784,1.5784,1.5784,1.5784,1.5784,1.5784,1.5784,1.5784,1.5784,1.5784,1.5784,1.5784,1.5784,1.5784,1.5784,1.5784,1.5784,1.5784,1.5724,1.5645,1.5752,1.5772,1.5638,1.5357,1.5257,1.5391,1.5378,1.5371,1.5398,1.5524,1.5538,1.5431,1.5565,1.5565,1.5431,1.5431,1.5695,1.0296,1.0094,1.0009,1.0536,1.0422,1.0305,1.0873,1.0502,1.025,1.1055,1.1156,1.1263,1.1744,1.2378,1.3434,1.5297,1.6714,1.7555,1.7527,1.7716,1.7983,1.8169,1.839,1.8464,1.8397,1.8591,1.847,1.7883,1.7836,1.7602,1.7125,1.7032,1.6891,1.6613,1.6319,1.6166,1.6166,1.5945,1.5784,1.5784,1.5784,1.5784,1.5784,1.5784,1.5784,1.5771,1.5591,1.5625,1.5764,1.5591,1.5625,1.5784,1.5784,1.5784,1.5784,1.5517,1.4296,1.2707,1.1845,1.1163,1.0672,1.0618,1.2154,1.4063,1.4358,1.5096,1.5784,1.5784,1.5784,1.5784,1.5784,1.5784,1.5784,1.5784,1.5784,1.5784,1.5784,1.5784,1.5784,1.5784,1.5784,1.5784,1.5784,1.5784,1.5784,1.5784,1.5784,1.5784,1.5784,1.5784,1.5784,1.5784,1.5784,1.5784,1.5784,1.5784,1.5784,1.5784,1.5618,1.5498,1.5498,1.5284,1.5237,1.5391,1.5464,1.5571,1.5732,1.5751,1.5784,1.5784,1.5784,1.5784,1.1268,1.053,0.981,1.0952,1.0759,1.0632,1.1871,1.1572,1.1374,1.2725,1.2831,1.273,1.3019,1.3781,1.4763,1.6012,1.6981,1.7769,1.8317,0.0,1.8838,1.8858,1.8644,1.8384,1.8049,1.8042,1.7862,1.7313,1.7266,1.7125,1.6754,1.648,1.6326,1.6355,1.6019,1.5865,1.5865,1.5791,1.5784,1.5784,1.5784,1.5784,1.5784,1.5784,1.5784,1.5784,1.5758,1.5764,1.5784,1.5758,1.5764,1.5784,1.5784,1.5784,1.5668,1.46,1.4199,1.3788,1.1364,1.1429,1.2557,1.2444,1.3267,1.4483,1.5732,1.5949,1.5784,1.5784,1.5784,1.5784,1.5784,1.5784,1.5784,1.5784,1.5784,1.5784,1.5784,1.5784,1.5784,1.5784,1.5784,1.5784,1.5784,1.5784,1.5784,1.5784,1.5784,1.5784,1.5784,1.5784,1.5784,1.5784,1.5784,1.5784,1.5784,1.5784,1.5784,1.5784,1.5764,1.5751,1.5751,1.5731,1.5651,1.5398,1.5658,1.5671,1.5431,1.5698,1.5784,1.5784,1.5784,1.5784,1.0625,1.068,1.0644,1.0969,1.1391,1.1778,1.1998,1.2104,1.2519,1.3755,1.3935,1.3888,1.4001,1.4596,1.5391,1.638,1.7448,1.823,1.8457,1.8738,1.8858,1.8677,1.8557,1.837,1.8022,1.7869,1.7589,1.7233,0.0,0.0,1.6453,1.6382,1.6186,1.6005,1.5885,1.5784,1.5784,1.5784,1.5784,1.5784,1.5784,1.5784,1.5784,1.5784,1.5784,1.5784,1.5784,1.5784,1.5784,1.5784,1.5784,1.5784,1.5784,1.5784,1.575,1.5316,1.4715,1.3908,1.3109,1.2697,1.2551,1.2501,1.3291,1.4372,1.471,1.5278,1.5784,1.5784,1.5784,1.5784,1.5784,1.5784,1.5784,1.5784,1.5784,1.5784,1.5784,1.5784,1.5784,1.5784,1.5784,1.5784,1.5784,1.5784,1.5784,1.5784,1.5784,1.5784,1.5784,1.5784,1.5784,1.5784,1.5784,1.5784,1.5784,1.5784,1.5784,1.5784,1.5784,1.5784,1.5784,1.5784,1.5731,1.5665,1.5724,1.5724,1.5665,1.5724,1.5784,1.5784,1.5784,1.5784,0.9834,1.0108,1.0343,1.0511,1.1337,1.2132,1.2275,1.2726,1.3429,1.4559,1.4796,1.4823,1.4872,1.519,1.5658,0.0,1.7488,1.8237,1.8337,1.8437,1.8424,1.823,1.8043,1.7849,1.7589,1.7428,1.7188,0.0,0.0,0.0,0.0,1.6132,1.6039,1.5791,1.5784,1.5784,1.5784,1.5784,1.5784,1.5784,1.5784,1.5784,1.5784,1.5784,1.5784,1.5784,1.5784,1.5784,1.5784,1.5784,1.5784,1.5784,1.5784,1.5784,1.5784,1.5784,1.53,1.4612,1.4349,1.4015,1.3691,1.3184,1.3933,1.4875,1.4691,1.521,1.5784,1.5784,1.5784,1.5784,1.5784,1.5784,1.5784,1.5784,1.5784,1.5784,1.5784,1.5784,1.5784,1.5784,1.5784,1.5784,1.5784,1.5784,1.5784,1.5784,1.5784,1.5784,1.5784,1.5784,1.5784,1.5784,1.5784,1.5784,1.5784,1.5784,1.5784,1.5784,1.5784,1.5784,1.5784,1.5784,1.5738,1.5698,1.5785,1.5785,1.5691,1.5738,1.5784,1.5784,1.5784,1.5784,0.9114,0.8723,0.8645,0.9601,1.0425,1.1435,1.2893,1.3509,1.413,1.5179,1.5404,1.5484,1.5724,1.5591,1.5638,1.6221,1.7052,1.7735,1.7989,1.7769,1.7628,1.7628,1.7061,1.6707,1.6707,1.67,1.6587,0.0,0.0,0.0,0.0,1.5784,1.5784,1.5784,1.5784,1.5784,1.5784,1.5784,1.5784,1.5784,1.5784,1.5784,1.5784,1.5784,1.5784,1.5784,1.5784,1.5784,1.5784,1.5784,1.5784,1.5784,1.5784,1.5784,1.5784,1.5784,1.6012,1.6071,1.4617,1.5245,1.6443,1.5002,1.5339,1.6321,1.6321,1.6059,1.5784,1.5784,1.5784,1.5784,1.5784,1.5784,1.5784,1.5784,1.5784,1.5784,1.5784,1.5784,1.5784,1.5784,1.5784,1.5784,1.5784,1.5784,1.5784,1.5784,1.5784,1.5784,1.5784,1.5784,1.5784,1.5784,1.5784,1.5784,1.5784,1.5784,1.5784,1.5784,1.5784,1.5784,1.5784,1.5784,1.5698,1.5404,1.5678,1.5691,1.5398,1.5691,1.5784,1.5784,1.5825,1.5825,1.0196,1.0216,1.0321,1.1313,1.258,1.3813,1.4554,1.4865,1.5252,1.6136,1.5825,1.5484,1.5724,1.6458,0.0,1.7247,1.8544,1.9609,1.9668,1.9057,1.8506,1.8283,1.7353,1.6707,1.6707,1.652,0.0,0.0,0.0,0.0,0.0,1.5784,1.5784,1.5784,1.5784,1.5784,1.5784,1.5784,1.5784,1.5784,1.5784,1.5784,1.5784,1.5784,1.5784,1.5784,1.5784,1.5784,1.5784,1.5784,1.5784,1.5784,1.5784,1.5784,1.5784,1.5784,1.5838,1.5937,1.57,1.5977,1.635,1.5894,1.599,1.6281,1.6025,1.5899,1.5784,1.5784,1.5784,1.5784,1.5784,1.5784,1.5784,1.5784,1.5784,1.5784,1.5784,1.5784,1.5784,1.5784,1.5784,1.5784,1.5784,1.5784,1.5784,1.5784,1.5784,1.5784,1.5784,1.5784,1.5784,1.5784,1.5784,1.5784,1.5784,1.5784,1.5784,1.5784,1.5784,1.5784,1.5784,1.5784,1.5744,1.5705,1.5738,1.5738,1.5698,1.5738,1.5784,1.5825,1.6709,1.7131,1.0244,1.0729,1.1435,1.2654,1.4255,1.5707,1.6529,1.6325,1.6235,1.7197,1.6807,1.626,1.6048,1.7297,0.0,1.7903,1.9304,2.0377,2.0377,1.9388,1.8595,1.8386,1.7149,1.6359,1.6359,0.0,0.0,0.0,0.0,0.0,0.0,1.5784,1.5784,1.5784,1.5784,1.5784,1.5784,1.5784,1.5784,1.5784,1.5784,1.5784,1.5784,1.5784,1.5784,1.5784,1.5784,1.5784,1.5784,1.5784,1.5784,1.5784,1.5784,1.5784,1.5784,1.5784,1.5784,1.5804,1.6039,1.6092,1.6092,1.6092,1.6092,1.6059,1.5838,1.5784,1.5784,1.5784,1.5784,1.5784,1.5784,1.5784,1.5784,1.5784,1.5784,1.5784,1.5784,1.5784,1.5784,1.5784,1.5784,1.5784,1.5784,1.5784,1.5784,1.5784,1.6251,1.6386,1.5872,1.6655,1.6882,1.592,1.6244,1.6339,1.5825,1.5784,1.5784,1.5784,1.5784,1.5784,1.5784,1.5784,1.6062,1.6527,1.6574,1.6796,1.725,1.725,1.725,1.7296,1.8041,1.8411,0.9797,1.0682,1.1985,1.3713,1.5535,1.7317,1.8734,1.7928,1.7183,1.8383,1.8213,1.7601,1.6787,1.8254,1.9374,1.854,1.9622,2.0581,2.0662,1.9344,1.8356,1.8221,1.6878,1.592,0.0,0.0,0.0,0.0,0.0,0.0,0.0,1.5784,1.5784,1.5784,1.5784,1.5784,1.5784,1.5758,1.5758,1.5784,1.5758,1.5758,1.5784,1.5784,1.5784,1.5784,1.5784,1.5784,1.5784,1.5784,1.5784,1.5784,1.5784,1.5784,1.5784,1.5784,1.5784,1.5784,1.5784,1.5784,1.5784,1.5784,1.5784,1.5784,1.5784,1.5784,1.5784,1.5784,1.5784,1.5784,1.5784,1.5784,1.5784,1.5784,1.5784,1.5784,1.5784,1.5784,1.5784,1.5784,1.5784,1.5784,1.5784,1.5784,1.5784,1.5784,1.681,1.7131,1.6109,1.794,1.8488,1.6379,1.7084,1.7225,1.6062,1.5872,1.5784,1.5784,1.5784,1.5784,1.5784,1.592,1.6527,1.7692,1.7824,1.8411,1.9497,1.9497,1.9497,1.9497,1.9625,1.967,1.1375,1.1531,1.2028,1.4506,1.6918,1.9253,2.1236,2.0212,1.8948,1.9471,1.9338,1.9098,1.9122,2.0004,2.0728,2.0635,2.1435,2.2177,2.2488,2.1437,2.0244,1.929,1.8087,1.6897,0.0,0.0,0.0,0.0,0.0,0.0,1.5784,1.5784,1.5784,1.5784,1.5784,1.5784,1.5784,1.5605,1.5605,0.0,1.5598,1.5611,1.5784,1.5784,1.5784,1.5784,1.5784,1.5784,1.5784,1.5784,1.5784,1.5784,1.5784,1.5784,1.5784,1.5784,1.5784,1.5784,1.5784,1.5784,1.5784,1.5784,1.5784,1.5784,1.5784,1.5784,1.5784,1.5784,1.5784,1.5784,1.5784,1.5784,1.5784,1.5784,1.5784,1.5784,1.5784,1.5784,1.5784,1.5784,1.5784,1.5784,1.5784,1.5784,1.5784,1.5784,1.6015,1.648,1.7178,1.7777,1.8226,1.8672,1.8095,1.7598,1.7318,1.6386,1.5784,1.5784,1.5784,1.5784,1.5784,1.6763,1.7412,1.7684,1.8634,1.9222,1.9497,1.9497,1.9497,1.9542,2.0486,2.0935,1.1055,1.1836,1.3144,1.6167,1.8437,2.0233,2.1328,2.089,2.0388,2.0763,2.0263,1.9603,1.9171,2.0395,2.1324,2.0777,2.1542,2.2353,2.2783,2.1575,2.0535,2.0102,1.8367,1.7115,0.0,0.0,0.0,0.0,0.0,1.5718,1.5631,1.5625,1.5558,1.5418,1.5418,1.5418,1.5418,1.5264,1.5264,1.5418,1.5404,1.5545,1.5784,1.5784,1.5784,1.5784,1.5784,1.5784,1.5784,1.5784,1.5784,1.5784,1.5784,1.5784,1.5784,1.5784,1.5784,1.5784,1.5784,1.5784,1.5784,1.5784,1.5784,1.5784,1.5784,1.5784,1.5784,1.5784,1.5784,1.5784,1.5784,1.5784,1.5784,1.5784,1.5784,1.5784,1.5784,1.5784,1.5784,1.5784,1.5784,1.5784,1.5784,1.5784,1.5784,1.5784,1.6339,1.6943,1.7598,1.8726,1.9451,1.9488,1.9443,1.8956,1.7777,1.7084,1.6433,1.5825,1.5784,1.5784,1.5784,1.7037,1.7956,1.8542,1.9761,2.0666,2.1221,2.1221,2.1221,2.1221,2.1854,2.2173,1.0234,1.2021,1.4482,1.7603,1.917,2.0038,2.04,2.0566,2.0781,2.1328,2.084,2.0036,1.9016,2.0438,2.1447,2.0508,2.1157,2.1924,2.2344,2.1212,2.0374,2.0571,1.858,1.7454,0.0,0.0,0.0,0.0,0.0,1.5578,1.5337,1.5317,1.5211,1.5015,1.5008,1.5008,1.5008,1.4955,1.4955,1.5015,1.5257,1.5524,1.5711,1.5758,1.5784,1.5784,1.5784,1.5784,1.5784,1.5784,1.5784,1.5784,1.5784,1.5784,1.5784,1.5784,1.5784,1.5784,1.5784,1.5784,1.5784,1.5784,1.5784,1.5784,1.5784,1.5784,1.5784,1.5784,1.5784,1.5784,1.5784,1.5784,1.5784,1.5784,1.5784,1.5784,1.5784,1.5784,1.5784,1.5784,1.5784,1.5784,1.5784,1.5784,1.5784,1.5784,1.6897,1.7777,1.7963,1.9943,2.098,2.0223,2.0845,2.0395,1.8187,1.7824,1.7178,1.5879,1.5784,1.5784,1.5784,1.7037,1.8187,1.9177,2.0576,2.1889,2.3091,2.3091,2.3091,2.3091,2.3091,2.3091,1.0488,1.2676,1.5088,1.7061,1.7402,1.7701,1.958,1.9189,1.8672,1.9473,2.0712,2.1617,2.1451,2.1318,2.1364,2.16,2.144,2.1434,2.1904,2.179,2.1243,2.0235,1.9766,0.0,0.0,0.0,0.0,0.0,1.5711,1.5109,1.5068,1.5068,1.5048,1.5008,1.5008,1.5008,1.5008,1.471,1.471,1.5015,1.5257,1.5418,1.5464,1.5712,1.5784,1.5784,1.5784,1.5784,1.5784,1.5784,1.5784,1.5784,1.5784,1.5784,1.5784,1.5784,1.5784,1.5784,1.5784,1.5784,1.5784,1.5784,1.5784,1.5784,1.5784,1.5784,1.5784,1.5784,1.5784,1.5784,1.5784,1.5784,1.5784,1.5784,1.5784,1.5784,1.5784,1.5784,1.5784,1.5784,1.5784,1.5784,1.5784,1.5784,1.5784,1.5784,1.6897,1.8095,1.9131,2.044,2.1658,2.2501,2.1845,2.0755,1.936,1.8319,1.7178,1.5879,1.5784,1.5784,1.5784,1.7037,1.7777,1.7963,2.0169,2.1889,2.3091,2.3091,2.3091,2.3091,2.3091,2.3091,1.1141,1.2295,1.3531,1.5723,1.5771,1.581,1.8008,1.7676,1.7269,1.834,1.9365,2.0137,2.0381,2.0273,2.0205,2.04,2.0273,2.0381,2.1055,2.0937,2.0662,2.0394,1.9797,0.0,0.0,0.0,0.0,0.0,1.5861,1.4867,1.4489,1.4519,1.4396,1.4229,1.4222,1.4302,1.4469,1.4342,1.4422,1.4716,1.4843,1.5077,1.5398,1.5531,1.5671,1.5784,1.5784,1.5784,1.5784,1.5784,1.5784,1.5784,1.5784,1.5784,1.5784,1.5784,1.5784,1.5784,1.5784,1.5784,1.5784,1.5784,1.5784,1.5784,1.5784,1.5784,1.5784,1.5784,1.5784,1.5784,1.5784,1.5784,1.5784,1.5784,1.5784,1.5784,1.5784,1.5784,1.5784,1.5784,1.5784,1.5784,1.5784,1.5784,1.5784,1.5784,1.6897,1.8141,1.936,2.0567,2.1756,2.296,2.2633,2.1534,1.967,1.8993,1.7902,1.592,1.5784,1.5784,1.5784,1.6339,1.7311,1.868,2.0395,2.1688,2.2494,2.29,2.3218,2.3496,2.3208,2.3091,1.1248,1.1672,1.2074,1.4092,1.4007,1.3965,1.582,1.5762,1.5615,0.0,1.7539,1.8076,1.8408,1.8828,1.9121,1.9121,1.9121,1.9346,1.999,1.9893,1.9873,2.0243,1.9562,0.0,0.0,0.0,0.0,0.0,1.5978,1.4701,1.4248,1.3986,1.3768,1.35,1.3493,1.3633,1.3975,1.4048,1.4195,1.4409,1.4482,1.475,1.5177,1.5324,1.5518,1.5678,1.5751,1.5784,1.5784,1.5784,1.5784,1.5784,1.5784,1.5784,1.5784,1.5784,1.5784,1.5784,1.5784,1.5784,1.5784,1.5784,1.5784,1.5784,1.5784,1.5784,1.5784,1.5784,1.5784,1.5784,1.5784,1.5784,1.5784,1.5784,1.5784,1.5784,1.5784,1.5784,1.5784,1.5784,1.5784,1.5784,1.5784,1.5784,1.5784,1.5784,1.7171,1.8503,1.936,2.08,2.212,2.3003,2.2818,2.181,1.967,1.9222,1.8126,1.592,1.5784,1.5784,1.5784,1.6109,1.6983,1.8534,2.049,2.1789,2.2446,2.3003,2.3467,2.3779,2.334,2.3149,1.0263,1.0978,1.1712,1.2233,1.2041,1.1988,1.2925,1.3101,1.3291,1.4133,1.5332,1.6232,1.6251,1.7568,1.8637,1.8637,1.8637,1.8646,1.8695,1.9072,1.9326,1.9346,1.9319,0.0,0.0,0.0,0.0,0.0,1.5776,1.4619,1.4589,1.3747,1.3253,1.3233,1.3233,1.3333,1.362,1.3948,1.4095,1.4115,1.4389,1.4536,1.4583,1.5144,1.5404,1.5431,1.5712,1.5784,1.5784,1.5784,1.5784,1.5784,1.5784,1.5784,1.5784,1.5784,1.5784,1.5784,1.5784,1.5784,1.5784,1.5784,1.5784,1.5784,1.5784,1.5784,1.5784,1.5784,1.5784,1.5784,1.5784,1.5784,1.5784,1.5784,1.5784,1.5784,1.5784,1.5784,1.5784,1.5784,1.5784,1.5784,1.5784,1.5784,1.5784,1.5784,1.7848,1.9451,1.9488,2.1543,2.3047,2.3091,2.2076,2.089,1.9633,1.8457,1.7225,1.5872,1.5784,1.5784,1.5784,1.6943,1.7084,1.6008,1.9936,2.2565,2.3699,2.3725,2.3769,2.3779,2.334,2.3359,1.1007,1.0948,1.1007,1.196,1.1064,1.0361,1.208,1.2259,1.2142,1.2445,1.3981,1.5107,1.4521,1.6064,1.7379,1.7379,1.7379,1.7477,1.7793,1.8203,1.8369,1.8096,1.8789,0.0,0.0,0.0,0.0,0.0,0.0,1.4342,1.4342,1.3251,1.2712,1.2945,1.2951,1.306,1.332,1.3613,1.376,1.3766,1.4102,1.4342,1.4492,1.4937,1.5217,1.5411,1.5705,1.5784,1.5784,1.5784,1.5784,1.5784,1.5784,1.5784,1.5784,1.5784,1.5784,1.5784,1.5784,1.5784,1.5784,1.5784,1.5784,1.5784,1.5784,1.5784,1.5784,1.5784,1.5784,1.5784,1.5784,1.5784,1.5784,1.5784,1.5784,1.5784,1.5784,1.5784,1.5784,1.5784,1.5784,1.5784,1.5784,1.5784,1.5784,1.5784,1.7894,1.9497,1.9497,2.0944,2.2262,2.3003,2.2031,2.1114,2.0702,1.9542,1.8319,1.7084,1.6244,1.6286,1.7373,1.7856,1.8326,1.8858,2.1453,2.2452,2.1855,2.3426,2.4199,2.4189,2.3988,2.3896,1.1115,1.0948,1.0831,1.1229,1.0478,0.9873,1.0722,1.126,1.1528,1.1234,1.2876,1.418,1.3613,1.4767,1.5927,1.621,1.6258,1.6445,1.6907,1.7305,1.7447,1.7197,1.791,0.0,0.0,0.0,0.0,0.0,0.0,0.0,1.4171,1.289,1.2291,1.2623,1.273,1.2884,1.3053,1.3347,1.3507,1.3606,1.3841,1.4088,1.4382,1.4683,1.4977,1.5264,1.5558,1.5738,1.5784,1.5784,1.5784,1.5784,1.5784,1.5784,1.5784,1.5784,1.5784,1.5784,1.5784,1.5784,1.5784,1.5784,1.5784,1.5784,1.5784,1.5784,1.5784,1.5784,1.5784,1.5784,1.5784,1.5784,1.5784,1.5784,1.5905,1.5979,1.5979,1.5979,1.5979,1.5979,1.6059,1.6092,1.5992,1.5979,1.6082,1.64,1.8172,1.9497,1.9497,2.0899,2.2076,2.2448,2.18,2.1293,2.1293,1.9807,1.8596,1.7888,1.6681,1.6718,1.836,1.8849,1.9566,2.0657,2.2736,2.3105,2.1629,2.3664,2.4639,2.4629,2.4482,2.4268,0.0,0.0,0.0,1.0001,1.0283,1.0459,0.8825,1.0067,1.1302,1.044,1.1953,1.3447,1.3447,1.3773,1.4348,1.5186,1.5361,1.5527,1.5977,1.6387,1.6638,1.6629,1.6658,0.0,0.0,0.0,0.0,0.0,1.5349,1.4139,1.4115,1.2735,1.2033,1.2278,1.2616,1.2808,1.2847,1.3079,1.334,1.3627,1.36,1.3801,1.4095,1.4389,1.4676,1.5015,1.5264,1.5558,1.5771,1.5778,1.5784,1.5784,1.5784,1.5784,1.5784,1.5784,1.5784,1.5784,1.5784,1.5784,1.5784,1.5784,1.5784,1.5784,1.5784,1.5784,1.5784,1.5784,1.5784,1.5784,1.5784,1.5791,1.5798,1.5798,1.6059,1.6279,1.6335,1.6286,1.6286,1.6286,1.6513,1.6613,1.6382,1.6328,1.6601,1.7517,1.8688,1.9497,1.9497,2.1587,2.2633,2.1471,2.1337,2.1293,2.1337,1.9139,1.7881,1.8148,1.7043,1.7086,1.8697,2.0014,2.0739,2.0891,2.369,2.4498,2.3317,2.4546,2.5125,2.5106,2.4639,2.4443,1.1697,0.0,0.0,0.0,0.0,0.0,0.9882,0.9971,0.9991,0.9473,1.0841,1.2122,1.2122,1.2739,1.3408,1.3945,1.426,1.4504,1.4648,1.5049,1.5205,1.4864,1.5684,1.6172,0.0,0.0,0.0,0.0,1.5523,1.4771,1.4947,1.3587,1.2537,1.2027,1.2271,1.2753,1.3447,1.3099,1.3402,1.4324,1.3811,1.3801,1.4095,1.4389,1.4563,1.4669,1.5177,1.5444,1.5531,1.5745,1.5784,1.5784,1.5784,1.5784,1.5784,1.5784,1.5784,1.5784,1.5784,1.5784,1.5784,1.5784,1.5784,1.5784,1.5784,1.5784,1.5784,1.5784,1.5784,1.5784,1.5784,1.5985,1.6152,1.6152,1.6213,1.6333,1.654,1.6587,1.6587,1.6587,1.6653,1.668,1.66,1.6413,1.6385,1.6636,1.8287,1.9497,1.9497,2.0845,2.1987,2.2536,2.18,2.1658,2.2536,2.0563,1.9318,1.9414,1.8524,1.8803,2.045,2.1804,2.2673,2.2899,2.4627,2.4898,2.3579,2.4898,2.5381,2.5116,2.4988,2.5059,1.2252,1.2305,1.2328,1.2021,0.0,0.0,1.0215,1.0518,1.0693,0.9736,1.0929,1.2015,1.1675,1.2028,1.2436,1.268,1.29,1.3311,1.4007,1.4328,1.4424,1.4133,1.4805,1.5303,0.0,1.5723,1.6074,1.6426,1.5324,1.4675,1.48,1.3987,1.3447,1.3269,1.3035,1.3346,1.4314,1.3572,1.3665,1.4615,1.4183,1.4035,1.4095,1.4262,1.4476,1.4723,1.5064,1.5351,1.5591,1.5758,1.5784,1.5784,1.5784,1.5784,1.5784,1.5784,1.5784,1.5784,1.5784,1.5784,1.5784,1.5784,1.5784,1.5784,1.5784,1.5784,1.5784,1.5784,1.5784,1.5784,1.5784,1.5959,1.6119,1.6295,1.6366,1.6533,1.6827,1.6987,1.7034,1.6914,1.6987,1.7034,1.6914,1.6647,1.6743,1.7657,1.8753,1.9729,2.0446,2.1608,2.2492,2.287,2.2689,2.287,2.3573,2.1543,2.0219,2.0366,1.8935,1.9092,2.1312,2.2191,2.3332,2.4812,2.5593,2.5679,2.5064,2.5496,2.5605,2.5352,2.5537,2.5762,1.2432,1.2837,1.3115,1.2064,1.2318,0.0,1.0215,1.1201,1.208,1.0547,1.1428,1.2259,1.1587,1.1498,1.1506,1.1506,1.1506,1.2064,1.3597,1.3909,1.3929,1.3831,1.3948,1.4338,1.5098,1.4902,1.5077,1.5889,1.4934,1.4267,1.412,1.4204,1.448,1.5058,1.4275,1.435,1.534,1.4243,1.4074,1.4756,1.4647,1.4445,1.4088,1.4208,1.4511,1.4961,1.4995,1.5277,1.5785,1.5764,1.5784,1.5784,1.5784,1.5784,1.5784,1.5784,1.5784,1.5784,1.5784,1.5784,1.5784,1.5784,1.5784,1.5784,1.5784,1.5784,1.5784,1.5784,1.5784,1.5784,1.5784,1.5967,1.6177,1.6496,1.6787,1.7079,1.7384,1.7531,1.7468,1.7293,1.746,1.7502,1.7293,1.6954,1.7435,1.9487,1.9704,2.0196,2.1859,2.3114,2.3585,2.2906,2.3746,2.4322,2.4173,2.1999,2.067,2.0785,1.8665,1.8738,2.165,2.1912,2.3423,2.6395,2.6455,2.6641,2.7012,2.62,2.5801,2.5771,2.626,2.6435,0.0,0.0,0.0,0.0,1.2734,0.0,1.0897,1.0439,1.0157,0.9815,0.9737,0.9922,1.0459,1.0831,1.1035,1.1035,1.1035,1.1279,1.1985,1.27,1.2861,1.2171,1.2988,0.0,1.3841,1.4085,1.4445,1.5019,1.5119,1.4881,1.4218,1.475,1.4839,1.4322,1.4684,1.5367,1.6315,1.4593,1.4399,1.5733,1.5057,1.4525,1.413,1.497,1.5099,1.4623,1.4863,1.5164,1.5498,1.5732,1.5784,1.5784,1.5784,1.5784,1.5784,1.5784,1.5784,1.5784,1.5784,1.5784,1.5784,1.5784,1.5784,1.5784,1.5784,1.5784,1.5784,1.5784,1.5784,1.5784,1.5784,1.698,1.8135,1.8201,1.8465,1.8788,1.906,1.817,1.734,1.7514,1.7542,1.7562,1.7508,1.7306,1.7588,1.9112,1.9925,2.0911,2.229,2.354,2.4234,2.4081,2.4275,2.3942,2.2896,2.1619,2.0489,1.9436,1.9235,2.0042,2.2088,2.3227,2.4766,2.6834,2.6894,2.6934,2.7012,2.6846,2.6592,2.6269,2.6699,2.6709,0.0,0.0,0.0,1.3193,0.0,0.0,0.0,1.0897,1.076,1.0342,1.0273,1.0303,1.0303,1.0273,1.0254,1.0254,1.0079,1.0186,1.0851,1.1692,1.224,1.224,1.2803,0.0,1.3486,1.3665,1.4092,1.4736,1.498,1.511,1.5166,1.551,1.5701,1.5725,1.5623,1.6128,1.7285,1.5869,1.5735,1.685,1.6442,1.6046,1.5718,1.5826,1.5789,1.5521,1.5314,1.5344,1.5625,1.5718,1.5784,1.5784,1.5784,1.5784,1.5784,1.5784,1.5784,1.5784,1.5784,1.5784,1.5784,1.5784,1.5784,1.5784,1.5784,1.5784,1.5784,1.5784,1.5784,1.6001,1.6852,1.7786,1.8589,1.887,1.908,1.9087,1.8695,1.7977,1.746,1.7555,1.7582,1.7582,1.7582,1.795,1.8644,1.993,2.0955,2.2138,2.3645,2.4352,2.4824,2.5049,2.5031,2.4526,2.3145,2.2023,2.0777,1.9388,1.8988,1.9851,2.2204,2.3055,2.4713,2.7273,2.7549,2.7549,2.7344,2.7549,2.7324,2.6709,2.6914,2.7021,0.0,0.0,0.0,0.0,0.0,1.358,0.0,0.0,0.0,1.0987,0.0,0.0,0.0,0.0,0.0,0.0,0.0,0.0,0.0,1.0997,0.0,1.2318,1.2475,0.0,1.3086,1.3281,1.374,1.46,1.4736,1.5146,1.5928,1.6046,1.6457,1.7227,1.6562,1.6762,1.7974,1.707,1.6973,1.771,1.7747,1.7569,1.731,1.6844,1.6606,1.6469,1.5882,1.5656,1.5752,1.5758,1.5784,1.5784,1.5784,1.5784,1.5784,1.5784,1.5784,1.5784,1.5784,1.5784,1.5784,1.5784,1.5784,1.5784,1.5784,1.5784,1.5784,1.5784,1.5872,1.6245,1.7864,1.8588,1.8962,1.9457,1.964,1.9357,1.8248,1.7786,1.7582,1.7582,1.7582,1.7582,1.7582,1.8302,1.9383,2.0907,2.1853,2.3092,2.4956,2.5195,2.5332,2.5654,2.5693,2.5205,2.39,2.2578,2.1197,1.9828,1.8693,1.9392,2.2319,2.3307,2.504,2.7773,2.8125,2.8125,2.7836,2.8047,2.7773,2.7021,2.7187,2.7412,0.0,0.0,0.0,0.0,1.5557,0.0,0.0,0.0,1.2205,1.0686,0.0,0.0,0.0,0.0,0.0,0.0,0.0,0.0,1.1234,1.087,1.0479,1.0586,1.0908,1.1309,0.0,1.2514,1.3301,1.4114,1.4561,1.499,1.5459,1.588,1.632,1.6765,1.7071,1.7478,1.8008,1.707,1.6973,1.771,1.7822,1.7655,1.7342,1.8233,1.7746,1.6171,1.6374,1.6093,1.5464,1.5678,1.5784,1.5784,1.5784,1.5784,1.5784,1.5784,1.5784,1.5784,1.5784,1.5784,1.5784,1.5784,1.5784,1.5784,1.5784,1.5784,1.5784,1.5784,1.6019,1.6566,1.7923,1.9596,2.0901,2.0983,2.1204,2.1044,1.9672,1.8454,1.7582,1.7582,1.7582,1.7582,1.7582,1.7713,1.8651,2.1231,2.1703,2.2704,2.5295,2.5615,2.5635,2.5684,2.5693,2.532,2.433,2.2869,2.1531,2.0272,1.9122,1.9775,2.2736,2.5958,2.7834,2.8223,2.8271,2.8271,2.8223,2.7891,2.749,2.7031,2.7793,2.7969,0.0,0.0,0.0,0.0,0.0,0.0,1.4937,0.0,1.3707,0.0,0.0,0.0,0.0,0.0,0.0,0.0,0.963,0.0,0.0,0.0,1.0371,0.0,0.0,0.0,0.0,0.0,0.0,0.0,1.3445,1.3922,1.4175,1.5139,1.6006,1.6677,1.6882,1.7324,1.8008,1.7613,1.7814,1.8609,1.8682,1.8882,1.9244,1.9232,1.8801,1.7962,1.7003,1.6513,1.6288,1.5797,1.5678,1.5784,1.5784,1.5784,1.5784,1.5784,1.5784,1.5784,1.5784,1.5784,1.5784,1.5784,1.5784,1.5784,1.5784,1.5784,1.5784,1.5784,1.6607,1.783,1.9343,2.1065,2.246,2.2621,2.2146,2.1296,1.9878,1.8558,1.7582,1.7582,1.7582,1.7582,1.7582,1.8251,1.942,2.1397,2.2357,2.3534,2.5479,2.5693,2.5693,2.5693,2.5967,2.5248,2.3177,2.2664,2.1528,1.9415,2.0562,2.1971,2.336,2.6541,2.8291,2.8291,2.8291,2.8174,2.793,2.7998,2.7812,2.7402,2.7764,2.7969,1.6591,0.0,0.0,0.0,0.0,0.0,0.0,0.0,0.0,0.0,0.0,0.0,0.0,0.0,0.0,0.0,0.0,1.003,0.0,1.0312,0.0,0.0,0.0,0.0,0.0,0.0,0.0,0.0,0.0,1.294,1.3268,1.4658,1.579,1.6668,1.6814,1.7266,1.8008,1.8125,1.8555,1.9287,1.9404,1.9844,2.0576,1.9986,1.9584,1.9204,1.7696,1.6987,1.6824,1.5892,1.5638,1.5784,1.5784,1.5784,1.5784,1.5784,1.5784,1.5784,1.5784,1.5784,1.5784,1.5784,1.5784,1.5784,1.5784,1.5838,1.5993,1.6368,1.7503,1.9018,2.0998,2.2421,2.3438,2.3669,2.2667,2.1296,1.9878,1.8558,1.7582,1.7582,1.7582,1.7582,1.7582,1.8401,1.9672,2.1448,2.2517,2.3791,2.5479,2.5791,2.5869,2.5869,2.6299,2.5603,2.3235,2.29,2.1814,1.948,2.19,2.3724,2.4416,2.6943,2.8291,2.8291,2.8291,2.8144,2.7894,2.8144,2.8135,2.7832,2.7832,2.7998,0.0,0.0,0.0,1.8871,0.0,0.0,0.0,0.0,1.7087,0.0,0.0,0.0,0.0,0.0,0.0,0.0,0.0,0.0,0.0,0.0,0.0,0.0,0.0,0.0,0.0,0.0,0.0,0.0,0.0,0.0,1.3267,1.4658,1.579,1.6668,1.7139,1.7568,1.8008,1.8383,1.8812,1.9287,1.9697,2.0127,2.0605,2.0576,1.9981,1.898,1.8406,1.7557,1.6566,1.603,1.5771,1.5784,1.5784,1.5784,1.5784,1.5784,1.5784,1.5784,1.5784,1.5784,1.5784,1.5784,1.5784,1.5784,1.5784,1.6032,1.6545,1.7868,1.8667,1.9814,2.2545,2.3425,2.3674,2.3683,2.2667,2.1296,1.9878,1.8558,1.7582,1.7582,1.7582,1.7582,1.7582,1.7635,1.8603,2.1296,2.1752,2.2717,2.5382,2.6103,2.6367,2.6367,2.6738,2.6511,2.5378,2.4019,2.2711,2.159,2.2704,2.4216,2.5973,2.7501,2.8291,2.8291,2.8291,2.8281,2.8271,2.8281,2.8281,2.8271,2.8271,2.8281,0.0,0.0,1.9069,1.9446,0.0,0.0,0.0,0.0,0.0,0.0,0.0,0.0,0.0,0.0,0.0,0.0,0.0,0.0,0.0,0.0,0.0,0.0,0.0,0.0,0.0,0.0,0.0,0.0,0.0,0.0,0.0,1.3041,1.4825,1.5632,1.6799,1.7578,1.8008,1.8393,1.8857,1.9287,1.9717,2.0146,2.0605,2.0605,2.0566,2.0408,1.9501,1.922,1.9173,1.7462,1.6882,1.699,1.6109,1.5784,1.5784,1.5784,1.5784,1.5784,1.5784,1.5784,1.5784,1.5784,1.5784,1.5818,1.6059,1.6052,1.6155,1.698,1.869,2.0516,2.1637,2.3443,2.502,2.502,2.3335,2.155,2.1092,1.9213,1.7582,1.7582,1.8304,1.8909,1.8909,1.9723,2.0633,2.1541,2.2672,2.407,2.5905,2.6543,2.6807,2.6807,2.7187,2.6898,2.5539,2.4267,2.342,2.3087,2.4425,2.5466,2.6091,2.7501,2.8291,2.8291,2.8291,2.8291,2.8291,2.8291,2.8291,2.8291,2.8291,2.8291,1.9861,1.9861,0.0,2.0024,2.0112,0.0,2.0603,0.0,0.0,0.0,0.0,0.0,0.0,0.0,0.0,0.0,0.0,0.0,0.0,1.1606,0.0,0.0,0.0,0.0,0.0,0.0,0.0,0.0,0.0,0.0,0.0,0.0,1.4347,1.5069,1.6737,1.7812,1.8223,1.8652,1.9082,1.9512,1.9941,2.0293,2.0605,2.0605,2.0723,2.0926,1.9937,1.9862,2.0293,1.8532,1.7728,1.7638,1.6803,1.6197,1.5784,1.5784,1.5784,1.5784,1.5784,1.5784,1.5784,1.5784,1.5784,1.5818,1.6059,1.6126,1.6386,1.7568,1.9445,2.1366,2.2306,2.4145,2.5732,2.5937,2.4258,2.2698,2.2835,2.0597,1.8569,1.8569,1.9092,1.9576,1.9576,2.1151,2.2416,2.2416,2.3503,2.4794,2.6227,2.6894,2.7246,2.7246,2.7637,2.7324,2.5765,2.4509,2.4044,2.4599,2.5544,2.6327,2.6879,2.7789,2.8359,2.8516,2.8369,2.8369,2.8516,2.8369,2.8291,2.8291,2.8291,2.8291]}]]